[[{"header":{"parameterUnit":"m.s-1","parameterCategory":1,"la1":31.0,"la2":29.5877,"lo1":-88.7671,"lo2":-86.6584,"dy":0.0162,"dx":0.0185,"nx":115,"ny":88,"refTime":"2024-03-28T06:00:00:Z","depth":0,"parameterNumber":2,"parameterNumberName":"U-component_of_WINDS"},"data":[0.0,0.0,0.0,0.0,0.0,0.0,0.0,0.0,0.0,0.0,0.0,0.0,0.0,0.0,0.0,0.0,0.0,0.0,0.0,0.0,0.0,0.0,0.0,0.0,0.0,0.0,0.0,0.0,0.0,0.0,0.0,0.0,0.0,0.0,0.0,0.0,0.0,0.0,0.0,0.0,0.0,0.0,0.0,0.0,0.0,0.0,0.0,0.0,0.0,0.0,0.0,0.0,0.0,0.0,0.0,0.0,0.0,0.0,0.0,0.0,0.0,0.0,0.0,0.0,0.0,0.0,0.0,0.0,0.0,0.0,0.0,0.0,0.0,0.0,0.0,0.0,0.0,0.0,0.0,0.0,0.0,0.0,0.0,0.0,0.0,0.0,0.0,0.0,0.0,0.0,0.0,0.0,0.0,0.0,0.0,0.0,0.0,0.0,0.0,0.0,0.0,0.0,0.0,0.0,0.0,0.0,0.0,0.0,0.0,0.0,0.0,0.0,0.0,0.0,0.0,0.0,0.0,0.0,0.0,0.0,0.0,0.0,0.0,0.0,0.0,0.0,0.0,0.0,0.0,0.0,0.0,0.0,0.0,0.0,0.0,0.0,0.0,0.0,0.0,0.0,0.0,0.0,0.0,0.0,0.0,0.0,0.0,0.0,0.0,0.0,0.0,0.0,0.0,0.0,0.0,0.0,0.0,0.0,0.0,0.0,0.0,0.0,0.0,0.0,0.0,0.0,0.0,0.0,0.0,0.0,0.0,0.0,0.0,0.0,0.0,0.0,0.0,0.0,0.0,0.0,0.0,0.0,0.0,0.0,0.0,0.0,0.0,0.0,0.0,0.0,0.0,0.0,0.0,0.0,0.0,0.0,0.0,0.0,0.0,0.0,0.0,0.0,0.0,0.0,0.0,0.0,0.0,0.0,0.0,0.0,0.0,0.0,0.0,0.0,0.0,0.0,0.0,0.0,0.0,0.0,0.0,0.0,0.0,0.0,0.0,0.0,0.0,0.0,0.0,0.0,0.0,0.0,0.0,0.0,0.0,0.0,0.0,0.0,0.0,0.0,0.0,0.0,0.0,0.0,0.0,0.0,0.0,0.0,0.0,0.0,0.0,0.0,0.0,0.0,0.0,0.0,0.0,0.0,0.0,0.0,0.0,0.0,0.0,0.0,0.0,0.0,0.0,0.0,0.0,0.0,0.0,0.0,0.0,0.0,0.0,0.0,0.0,0.0,0.0,0.0,0.0,0.0,0.0,0.0,0.0,0.0,0.0,0.0,0.0,0.0,0.0,0.0,0.0,0.0,0.0,0.0,0.0,0.0,0.0,0.0,0.0,0.0,0.0,0.0,0.0,0.0,0.0,0.0,0.0,0.0,0.0,0.0,0.0,0.0,0.0,0.0,0.0,0.0,0.0,0.0,0.0,0.0,0.0,0.0,0.0,0.0,0.0,0.0,0.0,0.0,0.0,0.0,0.0,0.0,0.0,0.0,0.0,0.0,0.0,0.0,0.0,0.0,0.0,0.0,0.0,0.0,0.0,0.0,0.0,0.0,0.0,0.0,0.0,0.0,0.0,0.0,0.0,0.0,0.0,0.0,0.0,0.0,0.0,0.0,0.0,0.0,0.0,0.0,0.0,0.0,0.0,0.0,0.0,0.0,0.0,0.0,0.0,0.0,0.0,0.0,0.0,0.0,0.0,0.0,0.0,0.0,0.0,0.0,0.0,0.0,0.0,0.0,0.0,0.0,0.0,0.0,0.0,0.0,0.0,0.0,0.0,0.0,0.0,0.0,0.0,0.0,0.0,0.0,0.0,0.0,0.0,0.0,0.0,0.0,0.0,0.0,0.0,0.0,0.0,0.0,0.0,0.0,0.0,0.0,0.0,0.0,0.0,0.0,0.0,0.0,0.0,0.0,0.0,0.0,0.0,0.0,0.0,0.0,0.0,0.0,0.0,0.0,0.0,0.0,0.0,0.0,0.0,0.0,0.0,0.0,0.0,0.0,0.0,0.0,0.0,0.0,0.0,0.0,0.0,0.0,0.0,0.0,0.0,0.0,0.0,0.0,0.0,0.0,0.0,0.0,0.0,0.0,0.0,0.0,0.0,0.0,0.0,0.0,0.0,0.0,0.0,0.0,0.0,0.0,0.0,0.0,0.0,0.0,0.0,0.0,0.0,0.0,0.0,0.0,0.0,0.0,0.0,0.0,0.0,0.0,0.0,0.0,0.0,0.0,0.0,0.0,0.0,0.0,0.0,0.0,0.0,0.0,0.0,0.0,0.0,0.0,0.0,0.0,0.0,0.0,0.0,0.0,0.0,0.0,0.0,0.0,0.0,0.0,0.0,0.0,0.0,0.0,0.0,0.0,0.0,0.0,0.0,0.0,0.0,0.0,0.0,0.0,0.0,0.0,0.0,0.0,0.0,0.0,0.0,0.0,0.0,0.0,0.0,0.0,0.0,0.0,0.0,0.0,0.0,0.0,0.0,0.0,0.0,0.0,0.0,0.0,0.0,0.0,0.0,0.0,0.0,0.0,0.0,0.0,0.0,0.0,0.0,0.0,0.0,0.0,0.0,0.0,0.0,0.0,0.0,0.0,0.0,0.0,0.0,0.0,0.0,0.0,0.0,0.0,0.0,0.0,0.0,0.0,0.0,0.0,0.0,0.0,0.0,0.0,0.0,0.0,0.0,0.0,0.0,0.0,0.0,0.0,0.0,0.0,0.0,0.0,0.0,0.0,0.0,0.0,0.0,0.0,0.0,0.0,0.0,0.0,0.0,0.0,0.0,0.0,0.0,0.0,0.0,0.0,0.0,0.0,0.0,0.0,0.0,0.0,0.0,0.0,0.0,0.0,0.0,0.0,0.0,0.0,0.0,0.0,0.0,0.0,0.0,0.0,0.0,0.0,0.0,0.0,0.0,0.0,0.0,0.0,0.0,0.0,0.0,0.0,0.0,0.0,0.0,0.0,0.0,0.0,0.0,0.0,0.0,0.0,0.0,0.0,0.0,0.0,0.0,0.0,0.0,0.0,0.0,0.0,0.0,0.0,0.0,0.0,0.0,0.0,0.0,0.0,0.0,0.0,0.0,0.0,0.0,0.0,0.0,0.0,0.0,0.0,0.0,0.0,0.0,0.0,0.0,0.0,0.0,0.0,0.0,0.0,0.0,0.0,0.0,0.0,0.0,0.0,0.0,0.0,0.0,0.0,0.0,0.0,0.0,0.0,0.0,0.0,0.0,0.0,0.0,0.0,0.0,0.0,0.0,0.0,0.0,0.0,0.0,0.0,0.0,0.0,0.0,0.0,0.0,0.0,0.0,0.0,0.0,0.0,0.0,0.0,0.0,0.0,0.0,0.0,0.0,0.0,0.0,0.0,0.0,0.0,0.0,0.0,0.0,0.0,0.0,0.0,0.0,0.0,0.0,0.0,0.0,0.0,0.0,0.0,0.0,0.0,0.0,0.0,0.0,0.0,0.0,0.0,0.0,0.0,0.0,0.0,0.0,0.0,0.0,0.0,0.0,0.0,0.0,0.0,0.0,0.0,0.0,0.0,0.0,0.0,0.0,0.0,0.0,0.0,0.0,0.0,0.0,0.0,0.0,0.0,0.0,0.0,0.0,0.0,0.0,0.0,0.0,0.0,0.0,0.0,0.0,0.0,0.0,0.0,0.0,0.0,0.0,0.0,0.0,0.0,0.0,0.0,0.0,0.0,0.0,0.0,0.0,0.0,0.0,0.0,0.0,0.0,0.0,0.0,0.0,0.0,0.0,0.0,0.0,0.0,0.0,0.0,0.0,0.0,0.0,0.0,0.0,0.0,0.0,0.0,0.0,0.0,0.0,0.0,0.0,0.0,0.0,0.0,0.0,0.0,0.0,0.0,0.0,0.0,0.0,0.0,0.0,0.0,0.0,0.0,0.0,0.0,0.0,0.0,0.0,0.0,0.0,0.0,0.0,0.0,0.0,0.0,0.0,0.0,0.0,0.0,0.0,0.0,0.0,0.0,0.0,0.0,0.0,0.0,0.0,0.0,0.0,0.0,0.0,0.0,0.0,0.0,0.0,0.0,0.0,0.0,0.0,0.0,0.0,0.0,0.0,0.0,0.0,0.0,0.0,0.0,0.0,0.0,0.0,0.0,0.0,0.0,0.0,0.0,0.0,0.0,0.0,0.0,0.0,0.0,0.0,0.0,0.0,0.0,0.0,0.0,0.0,0.0,0.0,0.0,0.0,0.0,0.0,0.0,0.0,0.0,0.0,0.0,0.0,0.0,0.0,0.0,-4.5594,0.0,0.0,0.0,0.0,0.0,0.0,0.0,0.0,0.0,0.0,0.0,0.0,0.0,0.0,0.0,0.0,0.0,0.0,0.0,0.0,0.0,0.0,0.0,0.0,0.0,0.0,0.0,0.0,0.0,0.0,0.0,0.0,0.0,0.0,0.0,0.0,0.0,0.0,0.0,0.0,0.0,0.0,0.0,0.0,0.0,0.0,0.0,0.0,0.0,0.0,0.0,0.0,0.0,0.0,0.0,0.0,0.0,0.0,0.0,0.0,0.0,0.0,0.0,0.0,0.0,0.0,0.0,0.0,0.0,0.0,0.0,0.0,0.0,0.0,0.0,0.0,0.0,0.0,0.0,0.0,0.0,0.0,0.0,0.0,0.0,0.0,0.0,0.0,0.0,0.0,0.0,0.0,0.0,0.0,0.0,0.0,0.0,0.0,0.0,0.0,0.0,0.0,0.0,0.0,0.0,0.0,0.0,0.0,0.0,0.0,-4.5654,-4.5648,-4.5648,-4.564,-4.5594,0.0,0.0,0.0,0.0,0.0,0.0,0.0,0.0,0.0,0.0,0.0,0.0,0.0,0.0,0.0,0.0,0.0,0.0,0.0,0.0,0.0,0.0,0.0,0.0,0.0,0.0,0.0,0.0,0.0,0.0,0.0,0.0,0.0,0.0,0.0,0.0,0.0,0.0,0.0,0.0,0.0,0.0,0.0,0.0,0.0,0.0,0.0,0.0,0.0,0.0,0.0,0.0,0.0,0.0,0.0,0.0,0.0,0.0,0.0,0.0,0.0,0.0,0.0,0.0,0.0,0.0,0.0,0.0,0.0,0.0,0.0,0.0,0.0,0.0,0.0,0.0,0.0,0.0,0.0,0.0,0.0,0.0,0.0,0.0,0.0,0.0,0.0,0.0,0.0,0.0,0.0,0.0,0.0,0.0,0.0,0.0,0.0,0.0,0.0,0.0,0.0,0.0,0.0,0.0,0.0,0.0,0.0,0.0,0.0,0.0,0.0,0.0,-4.5717,-4.5693,-4.5612,0.0,0.0,0.0,0.0,0.0,0.0,0.0,0.0,0.0,0.0,0.0,0.0,0.0,0.0,0.0,0.0,0.0,0.0,0.0,0.0,0.0,0.0,0.0,0.0,0.0,0.0,0.0,0.0,0.0,0.0,0.0,0.0,0.0,0.0,0.0,0.0,0.0,0.0,0.0,0.0,0.0,0.0,0.0,0.0,0.0,0.0,0.0,0.0,0.0,0.0,0.0,0.0,0.0,0.0,0.0,0.0,0.0,0.0,0.0,0.0,0.0,0.0,0.0,0.0,0.0,0.0,0.0,0.0,0.0,0.0,0.0,0.0,0.0,0.0,0.0,0.0,0.0,0.0,0.0,0.0,0.0,0.0,0.0,0.0,0.0,0.0,0.0,0.0,0.0,0.0,0.0,0.0,0.0,0.0,0.0,0.0,0.0,0.0,0.0,0.0,0.0,0.0,0.0,0.0,0.0,0.0,0.0,0.0,0.0,0.0,-4.58,-4.5792,-4.5743,0.0,-4.5673,0.0,0.0,0.0,0.0,0.0,0.0,0.0,0.0,0.0,0.0,0.0,0.0,0.0,0.0,0.0,0.0,0.0,0.0,0.0,0.0,0.0,0.0,0.0,0.0,0.0,0.0,0.0,0.0,0.0,0.0,0.0,0.0,0.0,0.0,0.0,0.0,0.0,0.0,0.0,0.0,0.0,0.0,0.0,0.0,0.0,0.0,0.0,0.0,0.0,0.0,0.0,0.0,0.0,0.0,0.0,0.0,0.0,0.0,0.0,0.0,0.0,0.0,0.0,0.0,0.0,0.0,0.0,0.0,0.0,0.0,0.0,0.0,0.0,0.0,0.0,0.0,0.0,0.0,0.0,0.0,0.0,0.0,0.0,0.0,0.0,0.0,0.0,0.0,0.0,0.0,0.0,0.0,0.0,0.0,0.0,0.0,0.0,0.0,0.0,0.0,0.0,0.0,0.0,0.0,0.0,0.0,0.0,0.0,0.0,0.0,-4.5906,-4.5848,-4.5783,-4.5746,0.0,0.0,0.0,0.0,0.0,0.0,0.0,0.0,0.0,0.0,0.0,0.0,0.0,0.0,0.0,0.0,0.0,0.0,0.0,0.0,0.0,0.0,0.0,0.0,0.0,0.0,0.0,0.0,0.0,0.0,0.0,0.0,0.0,0.0,0.0,0.0,0.0,0.0,0.0,0.0,0.0,0.0,0.0,0.0,0.0,0.0,0.0,0.0,0.0,0.0,0.0,0.0,0.0,0.0,0.0,0.0,0.0,0.0,0.0,0.0,0.0,0.0,0.0,0.0,0.0,0.0,0.0,0.0,0.0,0.0,0.0,0.0,0.0,0.0,0.0,0.0,0.0,0.0,0.0,0.0,0.0,0.0,0.0,0.0,0.0,0.0,0.0,0.0,0.0,0.0,0.0,0.0,0.0,0.0,0.0,0.0,0.0,0.0,0.0,0.0,0.0,0.0,0.0,0.0,0.0,0.0,0.0,0.0,0.0,0.0,-4.6032,-4.5989,-4.5923,-4.5873,-4.5684,-4.5367,0.0,0.0,0.0,0.0,0.0,0.0,0.0,0.0,0.0,0.0,0.0,0.0,0.0,0.0,0.0,0.0,0.0,0.0,0.0,0.0,0.0,0.0,0.0,0.0,0.0,0.0,0.0,0.0,0.0,0.0,0.0,0.0,0.0,0.0,0.0,0.0,0.0,0.0,0.0,0.0,0.0,0.0,0.0,0.0,0.0,0.0,0.0,0.0,0.0,0.0,0.0,0.0,0.0,0.0,0.0,0.0,0.0,0.0,0.0,0.0,0.0,0.0,0.0,0.0,0.0,0.0,0.0,0.0,0.0,0.0,0.0,0.0,0.0,0.0,0.0,0.0,0.0,0.0,0.0,0.0,0.0,0.0,0.0,0.0,0.0,0.0,0.0,0.0,0.0,0.0,0.0,0.0,0.0,0.0,0.0,0.0,0.0,0.0,0.0,0.0,0.0,0.0,0.0,0.0,0.0,0.0,0.0,0.0,-4.6192,-4.6134,-4.6076,-4.5997,-4.5932,-4.5479,0.0,0.0,0.0,0.0,0.0,0.0,0.0,0.0,0.0,0.0,0.0,0.0,0.0,0.0,0.0,0.0,0.0,0.0,0.0,0.0,0.0,0.0,0.0,0.0,0.0,0.0,0.0,0.0,0.0,0.0,0.0,0.0,0.0,0.0,0.0,0.0,0.0,0.0,0.0,0.0,0.0,0.0,0.0,0.0,0.0,0.0,0.0,0.0,0.0,0.0,0.0,0.0,0.0,0.0,0.0,0.0,0.0,0.0,0.0,0.0,0.0,0.0,0.0,0.0,0.0,0.0,0.0,0.0,0.0,0.0,0.0,0.0,0.0,0.0,0.0,0.0,0.0,0.0,0.0,0.0,0.0,0.0,0.0,0.0,0.0,0.0,0.0,0.0,0.0,0.0,0.0,0.0,0.0,0.0,0.0,0.0,0.0,0.0,0.0,0.0,0.0,0.0,0.0,0.0,0.0,0.0,0.0,0.0,0.0,-4.6199,-4.617,-4.6142,-4.6061,-4.6041,-4.5567,0.0,0.0,0.0,0.0,0.0,0.0,0.0,0.0,0.0,0.0,0.0,0.0,0.0,0.0,0.0,0.0,0.0,0.0,0.0,0.0,0.0,0.0,0.0,0.0,0.0,0.0,0.0,0.0,0.0,0.0,0.0,0.0,0.0,0.0,0.0,0.0,0.0,0.0,0.0,0.0,0.0,0.0,0.0,0.0,0.0,0.0,0.0,0.0,0.0,0.0,0.0,0.0,0.0,0.0,0.0,0.0,0.0,0.0,0.0,0.0,0.0,0.0,0.0,0.0,0.0,0.0,0.0,0.0,0.0,0.0,0.0,0.0,0.0,0.0,0.0,0.0,0.0,0.0,0.0,0.0,0.0,0.0,0.0,0.0,0.0,0.0,0.0,0.0,0.0,0.0,0.0,0.0,0.0,0.0,0.0,0.0,0.0,0.0,0.0,0.0,0.0,0.0,0.0,0.0,0.0,0.0,0.0,0.0,0.0,-4.6246,0.0,-4.6195,-4.615,-4.6113,-4.5633,0.0,0.0,0.0,0.0,0.0,0.0,0.0,0.0,0.0,0.0,0.0,0.0,0.0,0.0,0.0,0.0,0.0,0.0,0.0,0.0,0.0,0.0,0.0,0.0,0.0,0.0,0.0,0.0,0.0,0.0,0.0,0.0,0.0,0.0,0.0,0.0,0.0,0.0,0.0,0.0,0.0,0.0,0.0,0.0,0.0,0.0,0.0,0.0,0.0,0.0,0.0,0.0,0.0,0.0,0.0,0.0,0.0,0.0,0.0,0.0,0.0,0.0,0.0,0.0,0.0,0.0,0.0,0.0,0.0,0.0,0.0,0.0,0.0,0.0,0.0,0.0,0.0,0.0,0.0,0.0,0.0,0.0,0.0,0.0,0.0,0.0,0.0,0.0,0.0,0.0,0.0,0.0,0.0,0.0,0.0,0.0,0.0,0.0,0.0,0.0,0.0,0.0,0.0,0.0,0.0,0.0,0.0,0.0,-4.6319,-4.6294,-4.6305,-4.6267,-4.6206,-4.6135,-4.5668,0.0,0.0,0.0,0.0,0.0,0.0,0.0,0.0,0.0,0.0,0.0,0.0,0.0,0.0,0.0,0.0,0.0,0.0,0.0,0.0,0.0,0.0,0.0,0.0,0.0,0.0,0.0,0.0,0.0,0.0,0.0,0.0,0.0,0.0,0.0,0.0,0.0,0.0,0.0,0.0,0.0,0.0,0.0,0.0,0.0,0.0,0.0,0.0,0.0,0.0,0.0,0.0,0.0,0.0,0.0,0.0,0.0,0.0,0.0,0.0,0.0,0.0,0.0,0.0,0.0,0.0,0.0,0.0,0.0,0.0,0.0,0.0,0.0,0.0,0.0,0.0,0.0,0.0,0.0,0.0,0.0,0.0,0.0,0.0,0.0,0.0,0.0,0.0,0.0,0.0,0.0,0.0,0.0,0.0,0.0,0.0,0.0,0.0,0.0,0.0,0.0,0.0,0.0,0.0,0.0,0.0,0.0,0.0,0.0,-4.6323,-4.6303,-4.6294,-4.6267,-4.6198,-4.5737,0.0,0.0,0.0,0.0,0.0,0.0,0.0,0.0,0.0,0.0,0.0,0.0,0.0,0.0,0.0,0.0,0.0,0.0,0.0,0.0,0.0,0.0,0.0,0.0,0.0,0.0,0.0,0.0,0.0,0.0,0.0,0.0,0.0,0.0,0.0,0.0,0.0,0.0,0.0,0.0,0.0,0.0,0.0,0.0,0.0,0.0,0.0,0.0,0.0,0.0,0.0,0.0,0.0,0.0,0.0,0.0,0.0,0.0,0.0,0.0,0.0,0.0,0.0,0.0,0.0,0.0,0.0,0.0,0.0,0.0,0.0,0.0,0.0,0.0,0.0,0.0,0.0,0.0,0.0,0.0,0.0,0.0,0.0,0.0,0.0,0.0,0.0,0.0,0.0,0.0,0.0,0.0,0.0,0.0,0.0,0.0,0.0,0.0,0.0,0.0,0.0,0.0,0.0,0.0,0.0,0.0,0.0,0.0,0.0,-4.7284,-4.7284,-4.726,-4.7242,-4.6891,-4.6404,-4.5799,0.0,0.0,0.0,0.0,0.0,0.0,0.0,0.0,0.0,0.0,0.0,0.0,0.0,0.0,0.0,0.0,0.0,0.0,0.0,0.0,0.0,0.0,0.0,0.0,0.0,0.0,0.0,0.0,0.0,0.0,0.0,0.0,0.0,0.0,0.0,0.0,0.0,0.0,0.0,0.0,0.0,0.0,0.0,0.0,0.0,0.0,0.0,0.0,0.0,0.0,0.0,0.0,0.0,0.0,0.0,0.0,0.0,0.0,0.0,0.0,0.0,0.0,0.0,0.0,0.0,0.0,0.0,0.0,0.0,0.0,0.0,0.0,0.0,0.0,0.0,0.0,0.0,0.0,0.0,0.0,0.0,0.0,0.0,0.0,0.0,0.0,0.0,0.0,0.0,0.0,0.0,0.0,0.0,0.0,0.0,0.0,0.0,0.0,0.0,0.0,0.0,0.0,0.0,0.0,0.0,0.0,0.0,0.0,-4.9023,-4.9081,-4.9,-4.8774,-4.7996,-4.7513,0.0,0.0,0.0,0.0,0.0,0.0,0.0,0.0,0.0,0.0,0.0,0.0,0.0,0.0,0.0,0.0,0.0,0.0,0.0,0.0,0.0,0.0,0.0,0.0,0.0,0.0,0.0,0.0,0.0,0.0,0.0,0.0,0.0,0.0,0.0,0.0,0.0,0.0,0.0,0.0,0.0,0.0,0.0,0.0,0.0,0.0,0.0,0.0,0.0,0.0,0.0,0.0,0.0,0.0,0.0,0.0,0.0,0.0,0.0,0.0,0.0,0.0,0.0,0.0,0.0,0.0,0.0,0.0,0.0,0.0,0.0,0.0,0.0,0.0,0.0,0.0,0.0,0.0,0.0,0.0,0.0,0.0,0.0,0.0,0.0,0.0,0.0,0.0,0.0,0.0,0.0,0.0,0.0,0.0,0.0,0.0,0.0,0.0,0.0,0.0,0.0,0.0,0.0,0.0,0.0,0.0,0.0,0.0,0.0,-5.0699,-5.1366,-5.0801,-4.8961,-4.8619,-4.8146,0.0,0.0,0.0,0.0,0.0,0.0,0.0,0.0,0.0,0.0,0.0,0.0,0.0,0.0,0.0,0.0,0.0,0.0,0.0,0.0,0.0,0.0,0.0,0.0,0.0,0.0,0.0,0.0,0.0,0.0,0.0,0.0,0.0,0.0,0.0,0.0,0.0,0.0,0.0,0.0,0.0,0.0,0.0,0.0,0.0,0.0,0.0,0.0,0.0,0.0,0.0,0.0,0.0,0.0,0.0,0.0,0.0,0.0,0.0,0.0,0.0,0.0,0.0,0.0,0.0,0.0,0.0,0.0,0.0,0.0,0.0,0.0,0.0,0.0,0.0,0.0,0.0,0.0,0.0,0.0,0.0,0.0,0.0,0.0,0.0,0.0,0.0,0.0,0.0,0.0,0.0,0.0,0.0,0.0,0.0,0.0,0.0,0.0,0.0,0.0,0.0,0.0,0.0,0.0,0.0,0.0,0.0,0.0,-5.022,-5.1921,-5.2433,-5.1988,-5.0546,-5.0114,-4.9299,0.0,0.0,0.0,0.0,0.0,0.0,0.0,0.0,0.0,0.0,0.0,0.0,0.0,0.0,0.0,0.0,0.0,0.0,0.0,0.0,0.0,0.0,0.0,0.0,0.0,0.0,0.0,0.0,0.0,0.0,0.0,0.0,0.0,0.0,0.0,0.0,0.0,0.0,0.0,0.0,0.0,0.0,0.0,0.0,0.0,0.0,0.0,0.0,0.0,0.0,0.0,0.0,0.0,0.0,0.0,0.0,0.0,0.0,0.0,0.0,0.0,0.0,0.0,0.0,0.0,0.0,0.0,0.0,0.0,0.0,0.0,0.0,0.0,0.0,0.0,0.0,0.0,0.0,0.0,0.0,0.0,0.0,0.0,0.0,0.0,0.0,0.0,0.0,0.0,0.0,0.0,0.0,0.0,0.0,0.0,0.0,0.0,0.0,0.0,0.0,0.0,0.0,0.0,0.0,0.0,0.0,0.0,0.0,-5.0961,-5.2768,-5.2829,-5.2833,-5.2803,-5.1992,-5.0717,0.0,0.0,0.0,0.0,0.0,0.0,0.0,0.0,0.0,0.0,0.0,0.0,0.0,0.0,0.0,0.0,0.0,0.0,0.0,0.0,0.0,0.0,0.0,0.0,0.0,0.0,0.0,0.0,0.0,0.0,0.0,0.0,0.0,0.0,0.0,0.0,0.0,0.0,0.0,0.0,0.0,0.0,0.0,0.0,0.0,0.0,0.0,0.0,0.0,0.0,0.0,0.0,0.0,0.0,0.0,0.0,0.0,0.0,0.0,0.0,0.0,0.0,0.0,0.0,0.0,0.0,0.0,0.0,0.0,0.0,0.0,0.0,0.0,0.0,0.0,0.0,0.0,0.0,0.0,0.0,0.0,0.0,0.0,0.0,0.0,0.0,0.0,0.0,0.0,0.0,0.0,0.0,0.0,0.0,0.0,0.0,0.0,0.0,0.0,0.0,0.0,0.0,0.0,0.0,0.0,0.0,0.0,0.0,-5.1197,-5.3572,-5.3646,-5.3665,-5.3723,-5.2868,-5.16,0.0,0.0,0.0,0.0,0.0,0.0,0.0,0.0,0.0,0.0,0.0,0.0,0.0,0.0,0.0,0.0,0.0,0.0,0.0,0.0,0.0,0.0,0.0,0.0,0.0,0.0,0.0,0.0,0.0,0.0,0.0,0.0,0.0,0.0,0.0,0.0,0.0,0.0,0.0,0.0,0.0,0.0,0.0,0.0,0.0,0.0,0.0,0.0,-4.8212,0.0,0.0,0.0,0.0,0.0,0.0,0.0,0.0,0.0,0.0,0.0,0.0,0.0,0.0,0.0,0.0,0.0,0.0,0.0,0.0,0.0,0.0,0.0,0.0,0.0,0.0,0.0,0.0,0.0,0.0,0.0,0.0,0.0,0.0,0.0,0.0,0.0,0.0,0.0,0.0,0.0,0.0,0.0,0.0,0.0,0.0,0.0,0.0,0.0,0.0,0.0,0.0,0.0,0.0,0.0,0.0,0.0,0.0,0.0,-5.2008,-5.3777,-5.4223,-5.427,-5.3961,-5.351,-5.2262,0.0,0.0,0.0,0.0,0.0,0.0,0.0,0.0,0.0,0.0,0.0,0.0,0.0,0.0,0.0,0.0,0.0,0.0,0.0,0.0,0.0,0.0,0.0,0.0,0.0,0.0,0.0,0.0,0.0,0.0,0.0,0.0,0.0,0.0,0.0,0.0,0.0,0.0,0.0,0.0,0.0,0.0,0.0,0.0,0.0,0.0,0.0,0.0,0.0,0.0,0.0,0.0,0.0,0.0,0.0,0.0,0.0,0.0,0.0,0.0,0.0,0.0,0.0,0.0,0.0,0.0,0.0,0.0,0.0,0.0,0.0,0.0,0.0,0.0,0.0,0.0,0.0,0.0,0.0,0.0,0.0,0.0,0.0,0.0,0.0,0.0,0.0,0.0,0.0,0.0,0.0,0.0,0.0,0.0,0.0,0.0,0.0,0.0,0.0,0.0,0.0,0.0,0.0,0.0,0.0,0.0,0.0,-5.1069,-5.2834,-5.3752,-5.4569,-5.4631,-5.3908,-5.3881,-5.2698,-5.0193,0.0,0.0,0.0,0.0,0.0,0.0,0.0,0.0,0.0,0.0,0.0,0.0,0.0,0.0,0.0,0.0,0.0,0.0,0.0,0.0,0.0,0.0,0.0,0.0,0.0,0.0,0.0,0.0,0.0,0.0,0.0,0.0,0.0,0.0,0.0,0.0,0.0,0.0,-4.7654,-4.8528,0.0,0.0,0.0,0.0,0.0,0.0,0.0,0.0,-4.9329,0.0,0.0,0.0,0.0,0.0,0.0,0.0,0.0,0.0,0.0,0.0,0.0,0.0,0.0,0.0,0.0,0.0,0.0,0.0,0.0,0.0,0.0,0.0,0.0,0.0,0.0,0.0,0.0,0.0,0.0,0.0,0.0,0.0,0.0,0.0,0.0,0.0,0.0,0.0,0.0,0.0,0.0,0.0,0.0,0.0,0.0,0.0,0.0,0.0,0.0,0.0,0.0,0.0,0.0,0.0,0.0,-4.8447,-5.0937,-5.2705,-5.3624,-5.4412,-5.4511,-5.3852,-5.3803,-5.2648,-5.0239,0.0,0.0,0.0,0.0,0.0,0.0,0.0,0.0,0.0,0.0,0.0,0.0,0.0,0.0,0.0,0.0,0.0,0.0,0.0,0.0,0.0,0.0,0.0,0.0,0.0,0.0,0.0,0.0,0.0,0.0,0.0,0.0,0.0,0.0,0.0,0.0,0.0,0.0,0.0,-4.9353,-4.9895,0.0,0.0,0.0,0.0,0.0,0.0,0.0,0.0,-5.0691,0.0,0.0,0.0,0.0,0.0,0.0,0.0,0.0,0.0,0.0,0.0,0.0,0.0,0.0,0.0,0.0,0.0,0.0,0.0,0.0,0.0,0.0,0.0,0.0,0.0,0.0,0.0,0.0,0.0,0.0,0.0,0.0,0.0,0.0,0.0,0.0,0.0,0.0,0.0,0.0,0.0,0.0,0.0,0.0,0.0,0.0,0.0,0.0,0.0,0.0,0.0,0.0,0.0,0.0,0.0,-4.8493,-5.1266,-5.302,-5.353,-5.4765,-5.4866,-5.376,-5.3722,-5.2387,0.0,0.0,0.0,0.0,0.0,0.0,0.0,0.0,0.0,0.0,0.0,0.0,0.0,0.0,0.0,0.0,0.0,0.0,0.0,0.0,0.0,0.0,0.0,0.0,0.0,0.0,0.0,0.0,0.0,0.0,0.0,0.0,0.0,0.0,0.0,0.0,0.0,0.0,0.0,0.0,-5.0564,-5.1544,-5.1951,0.0,0.0,0.0,0.0,0.0,0.0,-5.2941,-5.2411,0.0,0.0,0.0,0.0,0.0,0.0,0.0,0.0,0.0,0.0,0.0,0.0,0.0,0.0,0.0,0.0,0.0,0.0,0.0,0.0,0.0,0.0,0.0,0.0,0.0,0.0,0.0,0.0,0.0,0.0,0.0,0.0,0.0,0.0,0.0,0.0,0.0,0.0,0.0,0.0,0.0,0.0,0.0,0.0,0.0,0.0,0.0,0.0,0.0,0.0,0.0,0.0,0.0,0.0,0.0,-4.8364,-5.1576,-5.332,-5.3442,-5.5061,-5.52,-5.365,-5.3631,-5.2117,0.0,0.0,0.0,0.0,0.0,0.0,0.0,0.0,0.0,0.0,0.0,0.0,0.0,0.0,0.0,0.0,0.0,0.0,0.0,0.0,0.0,0.0,0.0,0.0,0.0,0.0,0.0,0.0,0.0,0.0,0.0,0.0,0.0,0.0,0.0,0.0,0.0,0.0,0.0,0.0,0.0,-5.2868,-5.3662,-5.393,0.0,0.0,0.0,0.0,-5.4261,-5.4074,0.0,0.0,0.0,0.0,0.0,0.0,0.0,0.0,0.0,0.0,0.0,0.0,0.0,0.0,0.0,0.0,0.0,0.0,0.0,0.0,0.0,0.0,0.0,0.0,0.0,0.0,0.0,0.0,0.0,0.0,0.0,0.0,0.0,0.0,0.0,0.0,0.0,0.0,0.0,0.0,0.0,0.0,0.0,0.0,0.0,0.0,0.0,0.0,0.0,0.0,0.0,0.0,0.0,0.0,0.0,0.0,-4.8259,-5.1491,-5.3243,-5.3379,-5.4969,-5.5094,-5.3575,-5.3515,-5.1981,0.0,0.0,0.0,0.0,0.0,0.0,0.0,0.0,0.0,0.0,0.0,0.0,0.0,0.0,0.0,0.0,0.0,0.0,0.0,0.0,0.0,0.0,0.0,0.0,0.0,0.0,0.0,0.0,0.0,0.0,0.0,0.0,0.0,0.0,0.0,0.0,0.0,0.0,0.0,0.0,0.0,-5.2735,-5.3584,-5.4381,-5.5119,0.0,0.0,-5.5119,-5.5818,-5.4739,0.0,0.0,0.0,0.0,0.0,0.0,0.0,0.0,0.0,0.0,0.0,0.0,0.0,0.0,0.0,0.0,0.0,0.0,0.0,0.0,0.0,0.0,0.0,0.0,0.0,0.0,0.0,0.0,0.0,0.0,0.0,0.0,0.0,0.0,0.0,0.0,0.0,0.0,0.0,0.0,0.0,0.0,0.0,0.0,0.0,0.0,0.0,0.0,0.0,0.0,0.0,0.0,0.0,0.0,0.0,-4.7607,-4.8135,-5.138,-5.3099,-5.3189,-5.4816,-5.4927,-5.3369,-5.2902,-5.1347,0.0,0.0,0.0,0.0,0.0,0.0,0.0,0.0,0.0,0.0,0.0,0.0,0.0,0.0,0.0,0.0,0.0,0.0,0.0,0.0,0.0,0.0,0.0,0.0,0.0,0.0,0.0,0.0,0.0,0.0,0.0,0.0,0.0,0.0,0.0,0.0,0.0,0.0,0.0,0.0,0.0,0.0,-5.5478,-5.6052,0.0,0.0,0.0,-5.7009,-5.6895,0.0,0.0,0.0,0.0,0.0,0.0,0.0,0.0,0.0,0.0,0.0,0.0,0.0,0.0,0.0,0.0,0.0,0.0,0.0,0.0,0.0,0.0,0.0,0.0,0.0,0.0,0.0,0.0,0.0,0.0,0.0,0.0,0.0,0.0,0.0,0.0,0.0,0.0,0.0,0.0,0.0,0.0,0.0,0.0,0.0,0.0,0.0,0.0,0.0,0.0,0.0,0.0,0.0,0.0,0.0,0.0,0.0,-4.7986,-5.1261,-5.2947,-5.2985,-5.4622,-5.4775,-5.32,-5.2559,0.0,0.0,0.0,0.0,0.0,0.0,0.0,0.0,0.0,0.0,0.0,0.0,0.0,0.0,0.0,0.0,0.0,0.0,0.0,0.0,0.0,0.0,0.0,0.0,0.0,0.0,0.0,-3.9854,0.0,0.0,0.0,0.0,0.0,0.0,0.0,0.0,0.0,0.0,0.0,0.0,0.0,0.0,-5.4368,-5.6905,-5.7437,-5.7871,0.0,0.0,-5.866,-5.8056,-5.766,-5.6695,0.0,0.0,0.0,0.0,0.0,0.0,0.0,0.0,0.0,0.0,0.0,0.0,0.0,0.0,0.0,0.0,0.0,0.0,0.0,0.0,0.0,0.0,0.0,0.0,0.0,0.0,0.0,0.0,0.0,0.0,0.0,0.0,0.0,0.0,0.0,0.0,0.0,0.0,0.0,0.0,0.0,0.0,0.0,0.0,0.0,0.0,0.0,0.0,0.0,0.0,0.0,0.0,0.0,0.0,-4.7023,-4.7906,-5.1116,-5.2798,-5.2855,-5.446,-5.458,-5.308,-5.2957,-5.144,0.0,0.0,0.0,0.0,0.0,0.0,0.0,0.0,0.0,0.0,0.0,0.0,0.0,0.0,0.0,0.0,0.0,0.0,0.0,0.0,0.0,0.0,0.0,0.0,0.0,0.0,0.0,0.0,0.0,0.0,0.0,0.0,0.0,0.0,0.0,0.0,0.0,0.0,0.0,0.0,0.0,-5.4226,-5.6773,-5.7795,-5.8625,0.0,-5.9638,-5.9599,-5.9541,-5.824,-5.6878,-5.5892,0.0,0.0,0.0,0.0,0.0,0.0,0.0,0.0,0.0,0.0,0.0,0.0,0.0,0.0,0.0,0.0,0.0,0.0,0.0,0.0,0.0,0.0,0.0,0.0,0.0,0.0,0.0,0.0,0.0,0.0,0.0,0.0,0.0,0.0,0.0,0.0,0.0,0.0,0.0,0.0,0.0,0.0,0.0,0.0,0.0,0.0,0.0,0.0,0.0,0.0,0.0,0.0,0.0,-4.6291,-4.7566,-5.0855,-5.2547,-5.2623,-5.4182,-5.4294,-5.273,-5.2234,-5.0688,0.0,0.0,0.0,0.0,0.0,0.0,0.0,0.0,0.0,0.0,0.0,0.0,0.0,0.0,0.0,0.0,0.0,0.0,0.0,0.0,0.0,0.0,0.0,0.0,0.0,0.0,0.0,0.0,-4.2333,-4.3278,-4.4421,0.0,0.0,0.0,0.0,0.0,0.0,0.0,0.0,0.0,0.0,-5.428,-5.7293,-5.8004,0.0,0.0,-6.0312,-6.0131,-5.9645,-5.8588,-5.7347,-5.5999,-5.4882,0.0,0.0,0.0,0.0,0.0,0.0,0.0,0.0,0.0,0.0,0.0,0.0,0.0,0.0,0.0,0.0,0.0,0.0,0.0,0.0,0.0,0.0,0.0,0.0,0.0,0.0,0.0,0.0,0.0,0.0,0.0,0.0,0.0,0.0,0.0,0.0,0.0,0.0,0.0,0.0,0.0,0.0,0.0,0.0,0.0,0.0,0.0,0.0,0.0,0.0,0.0,0.0,-4.5729,-4.7278,-5.0572,-5.2254,-5.2273,-5.3879,-5.4095,-5.275,-5.1954,-5.0417,0.0,0.0,0.0,0.0,0.0,0.0,0.0,0.0,0.0,0.0,0.0,0.0,0.0,0.0,0.0,0.0,0.0,0.0,0.0,0.0,0.0,0.0,0.0,0.0,0.0,0.0,0.0,0.0,-4.3373,-4.4068,-4.46,0.0,0.0,0.0,0.0,0.0,0.0,0.0,0.0,0.0,0.0,-5.4227,-5.7532,-5.7992,-5.8617,-6.0329,-6.0578,-6.038,-5.9816,-5.8798,-5.7685,-5.6522,0.0,0.0,0.0,0.0,0.0,0.0,0.0,0.0,0.0,0.0,0.0,0.0,0.0,0.0,0.0,0.0,0.0,0.0,0.0,0.0,0.0,0.0,0.0,0.0,0.0,0.0,0.0,-4.3606,0.0,0.0,-4.1207,0.0,0.0,0.0,0.0,0.0,0.0,0.0,0.0,0.0,0.0,0.0,0.0,0.0,0.0,0.0,0.0,0.0,0.0,0.0,0.0,0.0,0.0,-4.548,-4.7012,-5.0241,-5.1893,-5.1949,-5.3562,-5.4009,-5.3188,-5.2457,-5.0959,-4.8596,0.0,0.0,0.0,0.0,0.0,0.0,0.0,0.0,0.0,0.0,0.0,0.0,0.0,0.0,0.0,0.0,0.0,0.0,0.0,0.0,0.0,0.0,0.0,0.0,0.0,0.0,-4.4068,-4.4862,-4.5314,0.0,0.0,0.0,0.0,0.0,0.0,0.0,0.0,0.0,-5.2415,-5.2798,-5.4008,-5.7332,-5.7791,-5.8383,-6.0078,-6.0307,-6.0307,-6.0269,-5.888,-5.7791,0.0,0.0,0.0,0.0,0.0,0.0,0.0,0.0,0.0,0.0,0.0,0.0,0.0,0.0,0.0,0.0,0.0,0.0,0.0,0.0,0.0,0.0,0.0,0.0,0.0,0.0,0.0,-4.505,-4.4693,0.0,0.0,0.0,0.0,0.0,0.0,0.0,0.0,0.0,0.0,0.0,-4.5978,-4.6238,0.0,0.0,0.0,0.0,0.0,0.0,0.0,0.0,0.0,0.0,0.0,0.0,-4.5129,-4.6728,-4.986,-5.1502,-5.1521,-5.3124,-5.359,-5.2768,-5.2069,-5.0087,-4.6709,0.0,0.0,0.0,0.0,0.0,0.0,0.0,0.0,0.0,0.0,0.0,0.0,0.0,0.0,0.0,0.0,0.0,0.0,0.0,0.0,0.0,0.0,0.0,0.0,0.0,-4.3904,0.0,0.0,0.0,0.0,0.0,0.0,0.0,0.0,0.0,0.0,-4.8605,-4.9676,-5.2211,-5.252,-5.375,-5.7057,-5.7551,-5.8141,0.0,0.0,0.0,0.0,0.0,0.0,0.0,0.0,0.0,0.0,0.0,0.0,0.0,0.0,-5.4645,-5.3275,-5.3462,-5.3827,-5.3827,0.0,0.0,0.0,0.0,0.0,0.0,0.0,0.0,0.0,0.0,0.0,0.0,0.0,0.0,-4.5535,-4.5424,-4.4128,0.0,0.0,0.0,0.0,0.0,0.0,0.0,0.0,-4.6299,-4.7002,-4.7169,-4.7444,-4.7426,-4.7095,-4.6342,-4.514,0.0,0.0,0.0,0.0,0.0,0.0,0.0,0.0,-4.5018,-4.6346,-4.9455,-5.1082,-5.1156,-5.2711,-5.3303,-5.2691,-5.1491,-4.9407,-4.6408,-4.4031,-4.21,0.0,0.0,0.0,0.0,0.0,0.0,0.0,0.0,0.0,0.0,0.0,0.0,0.0,0.0,0.0,0.0,0.0,0.0,0.0,0.0,0.0,0.0,0.0,-4.4782,0.0,0.0,0.0,0.0,0.0,0.0,0.0,0.0,0.0,-4.8493,-4.8739,-4.9731,-5.1941,-5.2224,-5.3429,-5.6736,0.0,0.0,0.0,0.0,0.0,0.0,0.0,-5.8419,-5.8419,-5.793,-5.7458,-5.7234,-5.7215,-5.7366,-5.7895,0.0,0.0,-5.5666,-5.5694,-5.6076,-5.6076,-5.6074,-5.6066,-5.6066,-5.5931,-5.5784,0.0,0.0,0.0,0.0,-4.5902,0.0,0.0,0.0,-4.5938,-4.5902,0.0,-4.4931,0.0,0.0,0.0,0.0,-4.4473,-4.4583,0.0,0.0,-4.7632,-4.8431,-4.911,-4.9837,-4.9837,-4.9091,-4.8293,-4.7456,-4.6529,-4.3884,-4.2083,0.0,0.0,0.0,0.0,0.0,-4.5166,-4.5993,-4.9076,-5.067,-5.0727,-5.2249,-5.3059,-5.2931,-5.0845,-4.8993,-4.756,-4.5203,-4.3319,-4.2013,-4.0409,0.0,0.0,0.0,0.0,0.0,0.0,0.0,0.0,0.0,0.0,0.0,0.0,0.0,0.0,0.0,0.0,0.0,0.0,0.0,0.0,-4.5073,0.0,0.0,0.0,0.0,0.0,0.0,0.0,0.0,0.0,-4.8015,-4.8287,-4.8952,-5.0037,-5.167,0.0,0.0,0.0,0.0,-5.7376,-5.9028,-5.9272,-5.929,-5.9328,-5.8671,-5.8183,-5.8221,0.0,0.0,-5.9197,-5.9347,-5.9328,-5.9347,-5.9947,-5.9853,-5.7789,-5.7507,-5.7523,-5.7523,-5.7545,-5.7469,-5.7469,-5.751,-5.7339,-4.8698,0.0,0.0,0.0,0.0,-4.7669,-4.7973,-4.8475,-4.7897,-4.7337,-4.6762,-4.5926,0.0,0.0,0.0,0.0,0.0,0.0,-4.6624,-4.7097,-4.8393,-4.9086,-4.9259,-4.9475,-4.9457,-4.9241,-4.9008,-4.8201,-4.6833,-4.6025,-4.4581,-4.2573,0.0,0.0,0.0,0.0,-4.5017,-4.6395,-4.894,-5.0292,-5.0338,-5.1909,-5.2244,-5.1195,-5.0604,-4.9313,-4.7169,-4.5457,-4.4151,-4.3246,-4.0644,0.0,0.0,0.0,0.0,0.0,0.0,0.0,0.0,0.0,0.0,0.0,0.0,0.0,0.0,0.0,0.0,0.0,0.0,0.0,-4.5825,-4.6259,-4.6438,0.0,0.0,0.0,0.0,0.0,0.0,0.0,0.0,0.0,-4.9266,-4.9666,-5.0292,0.0,0.0,-5.3367,-5.6013,-5.6385,-5.6982,-5.864,-5.8864,0.0,-5.9646,-5.9533,-5.957,-6.0147,-6.0222,-6.0315,-6.0539,-6.0594,-6.0594,-6.0594,-6.0781,-6.0711,-6.0217,-6.0285,-6.0472,-6.0491,-6.051,-6.051,-6.051,-6.0341,-6.015,-4.903,-4.8458,-4.7884,-4.7957,-4.8419,-4.8437,-4.8722,-4.9125,-4.8639,-4.8176,-4.7678,-4.7233,-4.6593,-4.5863,-4.5863,0.0,0.0,0.0,-4.7868,-4.8169,-4.9075,-4.9653,-4.988,-4.988,-4.988,-4.988,-4.9596,-4.8976,-4.8019,-4.7364,-4.613,-4.4342,0.0,-4.3198,-4.3626,-4.4421,-4.5287,-4.6251,-4.8315,-4.9406,-4.9513,-5.0769,-5.0868,-4.9702,-4.9734,-4.894,-4.7197,-4.6022,-4.4931,-4.3973,-4.185,-4.0344,0.0,0.0,0.0,0.0,0.0,0.0,0.0,0.0,0.0,0.0,0.0,-4.0173,-4.1518,0.0,0.0,0.0,-4.4702,-4.5701,-4.6523,-4.6869,0.0,0.0,0.0,0.0,0.0,0.0,0.0,-4.8715,-4.8919,-4.9214,-4.9713,-5.0397,-5.1064,-5.1639,-5.214,-5.3363,-5.5753,0.0,-5.679,-5.8776,-5.9072,-5.9329,-6.0107,-6.0255,-6.0533,-6.133,-6.146,-6.1608,-6.1904,-6.1941,-6.1941,-6.1941,-6.1941,-6.1923,-6.1923,-6.2163,-6.2116,-6.162,-6.153,-6.1528,-6.1548,-6.1347,-6.1201,-4.885,-4.881,-4.8651,-4.8557,-4.8531,-4.8531,-4.8566,-4.8618,-4.8618,-4.8583,-4.8531,-4.8531,-4.8084,-4.7305,-4.7305,0.0,-4.8443,-4.8496,-4.8916,-4.9608,-4.9661,-5.0073,-5.0721,-5.0721,-5.0721,-5.0721,-5.0038,-4.9687,-4.9547,-4.8145,-4.7041,-4.6305,-4.5257,-4.4711,-4.4684,-4.5361,-4.5793,-4.5882,-4.7441,-4.8314,-4.8463,-4.9241,-4.931,-4.852,-4.8484,-4.8169,-4.7464,-4.6693,-4.5658,-4.4407,-4.356,-4.2191,-4.0146,0.0,0.0,0.0,0.0,0.0,0.0,0.0,0.0,0.0,0.0,0.0,0.0,0.0,0.0,0.0,-4.5672,0.0,-4.6474,-4.7142,0.0,0.0,0.0,-4.8606,-4.8661,-4.8679,-4.8698,-4.8753,0.0,0.0,-4.9894,-5.112,-5.2132,-5.2444,-5.2482,-5.3295,-5.5563,-5.5932,-5.6836,-5.9183,-5.9553,-5.9866,-6.0674,-6.0951,-6.1265,-6.1929,-6.2058,-6.2298,-6.2907,-6.3073,-6.3128,-6.3055,-6.3165,-6.311,-6.3147,-6.306,-6.2756,-6.1523,-6.1329,-6.1311,-6.1385,-6.1315,-6.1244,-4.9333,-4.9316,-4.9274,-4.9034,-4.874,-4.8723,-4.9069,-4.9543,-4.9589,-4.926,-4.874,-4.874,-4.829,-4.7536,-4.7519,-4.7622,-4.783,-4.8463,-4.8827,-4.9052,-4.9606,-4.9924,-5.0108,-5.0108,-5.0126,-5.0108,-4.9952,-4.9572,-4.9035,-4.8637,-4.8038,-4.7242,-4.6456,-4.5651,-4.4941,-4.5106,-4.5541,-4.6259,-4.7256,-4.8156,-4.8996,-4.9311,-4.9096,-4.8286,-4.825,-4.7916,-4.7133,-4.6346,-4.5781,-4.5458,-4.3632,-4.24,-4.1957,-4.0744,0.0,0.0,0.0,0.0,0.0,0.0,0.0,0.0,0.0,-4.2053,-4.3494,0.0,-4.4368,0.0,-4.6623,-4.7403,-4.7995,-4.82,0.0,0.0,-4.8328,-4.864,-4.9265,-4.9356,-4.9577,-5.022,-5.0458,-5.0769,-5.1375,-5.1759,-5.2456,-5.3692,-5.3897,-5.4338,-5.5515,-5.6231,-5.722,-5.8915,-5.9338,-5.9793,-6.1158,-6.1924,-6.2347,-6.2567,-6.2586,-6.2677,-6.2861,-6.288,-6.288,-6.288,-6.2898,-6.288,-6.2923,-6.2898,-6.2812,-6.2481,-6.2533,-6.2692,-6.2692,-6.258,-6.2509,-4.926,-4.9277,-4.9277,-4.9129,-4.8885,-4.9032,-4.936,-4.9737,-4.972,-4.9497,-4.9119,-4.909,-4.8867,-4.8455,-4.8438,-4.8455,-4.8472,-4.893,-4.9119,-4.9136,-4.9548,-4.9737,-4.9708,-4.9737,-4.9737,-4.9737,-4.9737,-4.9531,-4.9119,-4.8793,-4.8398,-4.7923,-4.6859,-4.606,-4.5502,-4.5291,-4.5451,-4.6038,-4.66,-4.7213,-4.7815,-4.7948,-4.776,-4.7334,-4.7317,-4.7098,-4.6673,-4.623,-4.5822,-4.5501,-4.4299,-4.3493,-4.3226,-4.217,-4.1629,0.0,0.0,0.0,0.0,0.0,0.0,0.0,0.0,0.0,0.0,0.0,-4.5358,-4.6559,-4.7334,-4.8126,-4.8974,-4.9009,-4.9155,-4.9485,-4.9445,-4.9609,-5.0068,-5.0141,-5.0306,-5.0747,-5.1114,-5.1499,-5.194,-5.2619,-5.3371,-5.4308,-5.5023,-5.5629,-5.6051,-5.6547,-5.7501,-5.9368,-5.974,-6.0291,-6.1887,-6.2511,-6.2823,-6.2823,-6.2823,-6.2823,-6.2823,-6.2823,-6.2823,-6.2823,-6.2823,-6.2823,-6.2823,-6.2823,-6.2823,-6.2823,-6.2923,-6.3021,-6.3002,-6.2953,-6.2904,-4.9018,-4.9018,-4.9018,-4.9018,-4.9032,-4.929,-4.9428,-4.9428,-4.9428,-4.9428,-4.9458,-4.9411,-4.9428,-4.9428,-4.9411,-4.9428,-4.9381,-4.9398,-4.9398,-4.9381,-4.9367,-4.9367,-4.935,-4.9381,-4.9398,-4.9428,-4.9428,-4.9428,-4.9394,-4.8779,-4.8472,-4.8404,-4.7039,-4.6277,-4.6186,-4.5699,-4.5475,-4.558,-4.5811,-4.6013,-4.6137,-4.6137,-4.6137,-4.6137,-4.6137,-4.6137,-4.6112,-4.6112,-4.5814,-4.5131,-4.5104,-4.48,-4.4114,-4.3449,-4.3116,0.0,-4.3191,0.0,0.0,0.0,0.0,0.0,0.0,0.0,0.0,-4.6102,-4.6616,-4.7332,-4.8062,-4.8831,-4.9682,-4.9757,-5.0031,-5.071,-5.082,-5.0839,-5.093,-5.0949,-5.1004,-5.1114,-5.172,-5.216,-5.238,-5.3537,-5.4399,-5.4821,-5.5868,-5.6693,-5.695,-5.6987,-5.7831,-6.0089,-6.0584,-6.1282,-6.242,-6.2787,-6.2823,-6.2823,-6.2823,-6.2823,-6.2823,-6.2823,-6.2823,-6.2823,-6.2823,-6.2823,-6.2823,-6.2823,-6.278,-6.2755,-6.278,-6.2798,-6.2805,-6.2823,-6.2823,-4.9018,-4.9018,-4.9018,-4.9018,-4.9001,-4.8956,-4.8987,-4.9111,-4.9094,-4.9111,-4.9094,-4.9094,-4.9111,-4.9094,-4.9094,-4.9049,-4.8925,-4.8925,-4.8863,-4.8704,-4.8688,-4.8656,-4.8704,-4.8846,-4.8925,-4.8956,-4.9032,-4.9094,-4.9094,-4.8958,-4.889,-4.8856,-4.8009,-4.728,-4.6653,0.0,0.0,0.0,-4.558,-4.5752,-4.5871,-4.5871,-4.5871,-4.5871,-4.5871,0.0,-4.5709,-4.5709,-4.564,-4.5483,-4.4945,0.0,0.0,0.0,0.0,0.0,0.0,0.0,0.0,0.0,0.0,0.0,-4.5049,-4.5322,-4.6148,-4.7534,-4.8575,-4.8937,-4.9708,-5.0279,-5.0543,-5.0563,-5.0637,-5.0784,-5.082,-5.1059,-5.1683,-5.1756,-5.1995,-5.2653,-5.2894,-5.3225,-5.3794,-5.4234,-5.4895,-5.6069,-5.6598,-5.706,-5.7666,-5.7721,-5.8437,-6.0107,-6.1367,-6.2358,-6.2768,-6.2823,-6.2823,-6.2823,-6.2823,-6.2823,-6.2823,-6.2823,-6.2798,-6.2798,-6.2823,-6.2798,-6.2798,-6.2823,-6.2755,-6.2654,-6.2629,-6.2679,-6.2798,-6.2798,-6.2823,-4.8736,-4.8753,-4.8736,-4.8736,0.0,-4.8564,-4.8515,-4.8627,-4.8721,-4.8736,-4.8736,-4.8736,-4.8736,-4.8753,-4.8753,-4.8658,-4.85,-4.85,-4.8405,-4.8276,-4.8244,-4.8244,-4.8276,-4.8436,-4.8517,-4.85,-4.869,-4.8736,-4.8736,-4.8863,-4.8894,-4.8909,-4.8213,-4.7703,-4.7327,-4.6261,-4.5512,-4.5113,-4.523,-4.5353,-4.5406,-4.5406,-4.5406,-4.5406,-4.5406,0.0,0.0,0.0,0.0,0.0,0.0,0.0,0.0,-4.4509,0.0,-4.4328,-4.4421,-4.4505,-4.463,-4.4647,-4.4886,-4.545,-4.6048,-4.6666,-4.7345,-4.828,-4.9147,-4.9839,-5.0282,-5.0746,-5.1314,-5.1389,-5.1536,-5.1922,-5.1995,-5.2179,-5.2527,-5.2582,-5.2766,-5.3075,-5.3185,-5.3479,-5.4308,-5.4766,-5.5464,-5.662,-5.7152,-5.7519,-5.7886,-5.7978,-5.8584,-6.0181,-6.1759,-6.2787,-6.2823,-6.2823,-6.2823,-6.2823,-6.2823,-6.2823,-6.2823,-6.2823,-6.278,-6.2723,-6.2705,-6.2679,-6.2603,-6.2578,-6.257,-6.2467,-6.2397,-6.2397,-6.2423,-6.2519,-6.2596,-4.842,-4.842,-4.8388,-4.842,-4.8388,-4.8146,-4.8033,-4.8,-4.8292,0.0,0.0,-4.842,-4.842,-4.842,-4.8436,-4.8292,-4.8065,-4.8065,-4.7984,-4.7787,-4.7787,-4.7787,-4.7836,-4.7968,-4.8065,-4.8065,-4.8292,-4.8436,-4.842,-4.8595,-4.8707,-4.8639,-4.8256,-4.7896,-4.7558,-4.6186,-4.5207,-4.4754,-4.4869,-4.4978,-4.5005,-4.5022,-4.5022,-4.5022,-4.5022,-4.4978,-4.4951,-4.4951,-4.4968,-4.4968,-4.4968,-4.4978,-4.5005,-4.5022,-4.5022,-4.5022,-4.5022,-4.5113,-4.531,-4.5363,-4.5537,-4.5935,-4.6835,-4.7703,-4.8393,-4.8821,-4.9477,-5.0474,-5.0702,-5.1213,-5.2082,-5.2197,-5.2472,-5.313,-5.3185,-5.3167,-5.3185,-5.3185,-5.3167,-5.3185,-5.3185,-5.3573,-5.4528,-5.517,-5.5959,-5.6877,-5.7533,-5.795,-5.7987,-5.8262,-5.8988,-6.0236,-6.1734,-6.2823,-6.2823,-6.2823,-6.2798,-6.2755,-6.2773,-6.2773,-6.273,-6.273,-6.2679,-6.2526,-6.2508,-6.2475,-6.2344,-6.2336,-6.2283,-6.2123,-6.2078,-6.2024,-6.1905,-6.2014,-6.2177,-4.8066,-4.8066,-4.8066,-4.8049,-4.8066,-4.7671,-4.7354,-4.7167,-4.7787,-4.8066,-4.8066,-4.8066,-4.8066,-4.8066,-4.8049,-4.7886,-4.7505,-4.7505,-4.7354,-4.7064,-4.7048,-4.7048,-4.7064,-4.7387,-4.7521,-4.7555,-4.7869,-4.8066,-4.8099,-4.8195,-4.8292,-4.8275,-4.8351,-4.779,-4.6515,-4.519,-4.4439,-4.4367,-4.4676,-4.4886,-4.5005,-4.5022,-4.5022,-4.5022,-4.4995,-4.4968,-4.4848,-4.4831,-4.4831,-4.4831,-4.4831,-4.4886,-4.4978,-4.5022,-4.5022,-4.5022,-4.5022,-4.5005,-4.5059,-4.515,-4.5629,-4.6568,-4.7116,-4.7629,-4.8234,-4.9596,-5.0633,-5.1162,-5.189,-5.2558,-5.2856,-5.2941,-5.302,-5.3167,-5.3185,-5.3185,-5.3185,-5.3185,-5.3185,-5.3164,-5.3185,-5.3772,-5.5056,-5.55,-5.6121,-5.7405,-5.7752,-5.7768,-5.7922,-5.9047,-6.0028,-6.0548,-6.1777,-6.2695,-6.2755,-6.2798,-6.273,-6.2654,-6.2629,-6.2578,-6.2467,-6.2467,-6.2415,-6.2283,-6.2238,-6.2203,-6.2069,-6.2069,-6.1914,-6.1646,-6.1554,-6.1451,-6.1174,-6.1174,-6.1365,-4.7404,-4.7404,-4.7404,-4.742,-4.737,-4.6963,-4.6617,-4.6317,-4.6684,-4.7014,-4.7404,-4.7404,-4.7404,-4.7404,-4.7404,-4.7184,-4.6809,-4.6825,-4.6617,-4.6317,-4.6282,-4.6282,-4.6317,-4.6636,-4.6809,-4.6793,-4.681,-4.6814,-4.6815,-4.6667,-4.6647,-4.6631,-4.6902,-4.6462,-4.5463,-4.4929,-4.4465,-4.4051,-4.4468,-4.4737,-4.4793,-4.4776,-4.4793,-4.4793,-4.4793,-4.4765,-4.4682,-4.4682,-4.4682,-4.4709,-4.4665,-4.472,-4.4793,-4.4793,-4.4776,-4.4776,-4.4776,-4.4803,-4.4869,-4.5463,-4.6084,-4.6784,-4.776,-4.8513,-4.8983,-4.9987,-5.0892,-5.1651,-5.2304,-5.2667,-5.2765,-5.2912,-5.2977,-5.2995,-5.2995,-5.2995,-5.2995,-5.2995,-5.2977,-5.2977,-5.2977,-5.3617,-5.5171,-5.5373,-5.5999,-5.7421,-5.7655,-5.751,-5.7424,-5.8462,-5.9522,-6.0139,-6.117,-6.2029,-6.2468,-6.2596,-6.2545,-6.2415,-6.237,-6.2318,-6.223,-6.2177,-6.2096,-6.1887,-6.1832,-6.1748,-6.1569,-6.1512,-6.135,-6.1045,-6.0582,-6.0303,-6.001,-5.9605,-5.9686,-4.6633,-4.6633,-4.6649,-4.6649,-4.6547,-4.6195,-4.5873,-4.5614,-4.5541,-4.5853,-4.6337,-4.6563,-4.6633,-4.6633,-4.6633,-4.6407,-4.6088,-4.6036,-4.5837,-4.5541,-4.5541,-4.5541,-4.5578,-4.5873,-4.5957,-4.5801,-4.5624,-4.549,-4.5314,-4.5163,-4.513,-4.5194,-4.5269,-4.5032,-4.4504,-4.4539,-4.4265,-4.3717,-4.4138,-4.4457,-4.4542,-4.457,-4.4598,-4.4598,-4.4598,-4.4598,-4.4598,-4.4598,-4.4598,-4.4598,-4.4598,-4.4598,-4.4598,-4.4598,-4.4598,-4.4598,-4.4598,-4.4654,-4.4854,-4.5678,-4.6423,-4.6936,-4.8245,-4.9271,-4.9765,-5.024,-5.0938,-5.1806,-5.2228,-5.2434,-5.2495,-5.2649,-5.2698,-5.2698,-5.2717,-5.2717,-5.2717,-5.2717,-5.2717,-5.2698,-5.2698,-5.3263,-5.4446,-5.4992,-5.5733,-5.7006,-5.7313,-5.7213,-5.7152,-5.7588,-5.8342,-5.9338,-6.0358,-6.1272,-6.1946,-6.22,-6.2194,-6.2078,-6.2024,-6.1942,-6.1832,-6.1776,-6.1664,-6.139,-6.1304,-6.1158,-6.0956,-6.0884,-6.0656,-6.0167,-5.9594,-5.9065,-5.8507,-5.8076,-5.7996,-4.5905,-4.5905,-4.5905,-4.5796,-4.5599,-4.5395,-4.5157,-4.4949,-4.4799,-4.4723,-4.4949,-4.5562,-4.5905,-4.5905,-4.5905,-4.5687,-4.5305,-4.5305,-4.5098,-4.4761,-4.4723,-4.4723,-4.4761,-4.5136,-4.4977,-4.4434,-4.4634,-4.4446,-4.3923,-4.4188,-4.4491,-4.4723,-4.422,-4.3847,-4.3749,-4.343,-4.3239,-4.3174,-4.3608,-4.4006,-4.4338,-4.4497,-4.4598,-4.4598,-4.4598,-4.4598,-4.4598,-4.4598,-4.4598,-4.4598,-4.4598,-4.4598,-4.4598,-4.4598,-4.4598,-4.4598,-4.4598,-4.4654,-4.4827,-4.5518,-4.6391,-4.7374,-4.8316,-4.9216,-5.002,-5.0397,-5.0822,-5.1418,-5.1889,-5.2108,-5.2156,-5.2309,-5.2408,-5.2408,-5.2426,-5.2431,-5.2408,-5.2431,-5.2449,-5.2431,-5.2408,-5.2775,-5.3681,-5.446,-5.5394,-5.6683,-5.6829,-5.6742,-5.6519,-5.6572,-5.6911,-5.7935,-5.9421,-6.0602,-6.1018,-6.1589,-6.1733,-6.1582,-6.1561,-6.1466,-6.1281,-6.1164,-6.1075,-6.074,-6.0696,-6.0525,-6.0205,-6.015,-5.9773,-5.887,-5.8392,-5.8122,-5.7277,-5.6831,-5.7086,-4.5098,-4.5098,-4.5098,-4.4986,-4.4799,-4.4685,-4.4549,-4.4358,-4.4281,-4.4243,-4.4281,-4.461,-4.4874,-4.5098,-4.5098,-4.4949,-4.4701,-4.4648,-4.4511,-4.4281,-4.4243,-4.4243,-4.4281,-4.4549,-4.4293,-4.3636,-4.349,-4.3074,-4.2537,-4.2443,-4.2576,-4.2843,-4.2588,-4.246,-4.2477,-4.2494,-4.2507,-4.2523,-4.3096,-4.3489,-4.3789,-4.4179,-4.444,-4.444,-4.4542,-4.4598,-4.4598,-4.4598,-4.4598,-4.4598,-4.4598,-4.4598,-4.4598,-4.4598,-4.4598,-4.4598,-4.4598,-4.4654,-4.4776,-4.5881,-4.6783,-4.729,-4.8506,-4.9428,-4.9849,-5.0011,-5.0211,-5.0575,-5.1193,-5.1579,-5.1586,-5.1811,-5.1975,-5.1975,-5.1975,-5.1993,-5.1993,-5.1993,-5.1975,-5.1975,-5.1993,-5.2281,-5.3167,-5.4281,-5.53,-5.6115,-5.6265,-5.6172,-5.5918,-5.5861,-5.6003,-5.6421,-5.7508,-5.8809,-5.9898,-6.0514,-6.0802,-6.0926,-6.098,-6.0878,-6.0574,-6.0499,-6.0388,-6.0005,-5.992,-5.9581,-5.8872,-5.8772,-5.8482,-5.7574,-5.6634,-5.6157,-5.5304,-5.5116,-5.5312,-4.4435,-4.4435,-4.4435,-4.4358,-4.4205,-4.4166,-4.4065,-4.391,-4.3832,-4.3817,-4.3817,-4.3817,-4.3957,-4.4243,-4.4381,-4.432,-4.4181,-4.4127,-4.4011,-4.3817,-4.3817,-4.3817,-4.3801,-4.3814,-4.3518,-4.2885,-4.2368,-4.1786,-4.1228,-4.0993,-4.1021,-4.1256,-4.1323,-4.129,-4.1323,-4.1654,-4.1818,-4.1883,-4.2492,-4.2929,-4.3174,-4.3743,-4.4138,-4.4293,-4.444,-4.4542,-4.4598,-4.4598,-4.4598,-4.4598,-4.4598,-4.4598,-4.4598,-4.4598,-4.4598,-4.4598,-4.4598,-4.4626,-4.4754,-4.6129,-4.7003,-4.7249,-4.8558,-4.9471,-4.9619,-4.9649,-4.9679,-4.9837,-5.0418,-5.0812,-5.1017,-5.1271,-5.1444,-5.1444,-5.1444,-5.1444,-5.1444,-5.1444,-5.1444,-5.1444,-5.1444,-5.1853,-5.2812,-5.3878,-5.4772,-5.5482,-5.5642,-5.5525,-5.5277,-5.5217,-5.5234,-5.5252,-5.5724,-5.6889,-5.8822,-5.9574,-5.9797,-6.0132,-6.029,-6.0181,-5.9879,-5.9831,-5.9716,-5.9399,-5.9194,-5.8783,-5.8149,-5.7756,-5.7189,-5.6249,-5.538,-5.4683,-5.419,-5.3934,-5.3917,-4.4026,-4.4026,-4.4026,-4.4011,-4.3988,-4.3793,-4.3729,-4.3675,-4.3463,-4.3329,-4.3369,-4.3369,-4.3369,-4.3448,-4.3856,-4.391,-4.3769,-4.3729,-4.3636,-4.3384,-4.3384,-4.3329,-4.3284,-4.2965,-4.2432,-4.1821,-4.1364,-4.0847,-4.0338,-4.0266,-4.0335,-4.0558,-4.0558,-4.0574,-4.0627,-4.0953,-4.1156,-4.1223,-4.1818,-4.2238,-4.2508,-4.3099,-4.37,-4.4179,-4.431,-4.4395,-4.457,-4.4598,-4.4598,-4.4598,-4.4598,-4.4598,-4.4598,-4.4598,-4.4598,-4.4598,-4.4598,-4.4598,-4.4767,-4.5935,-4.684,-4.7143,-4.8328,-4.9273,-4.9458,-4.9488,-4.9471,-4.95,-4.9708,-5.0011,-5.0352,-5.064,-5.083,-5.083,-5.083,-5.083,-5.083,-5.0847,-5.0847,-5.0847,-5.083,-5.1392,-5.2762,-5.3113,-5.3824,-5.462,-5.5018,-5.493,-5.4683,-5.4557,-5.4557,-5.4606,-5.4793,-5.5383,-5.7403,-5.8167,-5.8801,-5.9292,-5.9354,-5.9448,-5.9233,-5.9047,-5.8927,-5.8686,-5.8239,-5.781,-5.7398,-5.6799,-5.5979,-5.5145,-5.4414,-5.3754,-5.3685,-5.3585,-5.3568,-4.3566,-4.3581,-4.3527,-4.3527,-4.3542,-4.3463,-4.3463,-4.3423,-4.3344,-4.3305,-4.3305,-4.3305,-4.3305,-4.3329,-4.3488,-4.3503,-4.3478,-4.3423,-4.3369,-4.3305,-4.3305,-4.312,-4.2755,-4.2593,-4.1903,-4.0958,-4.0701,-4.0344,-3.992,-3.9879,-3.9965,-4.0156,-4.0156,-4.0172,-4.0226,-4.0405,-4.0578,-4.0749,-4.1223,-4.167,-4.2077,-4.2539,-4.3068,-4.3684,-4.4109,-4.4412,-4.4598,-4.4598,-4.4598,-4.4598,-4.4598,-4.4598,-4.4598,-4.4598,-4.4598,-4.4598,-4.4598,-4.4598,-4.4716,-4.5517,-4.6341,-4.6861,-4.7776,-4.8636,-4.9053,-4.9185,-4.9185,-4.9216,-4.9307,-4.95,-4.9649,-4.9982,-5.0239,-5.0239,-5.0239,-5.0239,-5.0239,-5.0239,-5.0239,-5.0222,-5.0239,-5.0673,-5.1634,-5.2247,-5.2839,-5.3656,-5.4198,-5.4362,-5.4239,-5.4192,-5.4175,-5.4175,-5.4209,-5.4615,-5.5755,-5.644,-5.701,-5.7835,-5.8288,-5.8496,-5.8445,-5.8461,-5.8391,-5.7756,-5.7277,-5.6661,-5.6183,-5.5332,-5.4585,-5.433,-5.3568,-5.3551,-5.3518,-5.3518,-5.3518,-4.3305,-4.3305,-4.3305,-4.3305,-4.3305,-4.3305,-4.3305,-4.3305,-4.3305,-4.3305,-4.3305,-4.3305,-4.3305,-4.3305,-4.3305,-4.3305,-4.3305,-4.3305,-4.3305,-4.3275,-4.312,-4.2791,-4.2396,-4.1961,-4.1265,-4.0472,-4.0172,-3.9901,-3.9634,-3.9589,-3.9661,-3.9768,-3.9818,-3.9783,-3.9854,-3.9965,-4.0126,-4.0301,-4.0696,-4.1138,-4.162,-4.2109,-4.2618,-4.3265,-4.3831,-4.4236,-4.4497,-4.457,-4.4598,-4.4598,-4.4598,-4.4598,-4.4598,-4.4598,-4.4598,-4.4598,-4.4598,-4.4598,-4.4682,-4.528,-4.6024,-4.6735,-4.7496,-4.8223,-4.89,-4.9018,-4.9018,-4.9032,-4.9063,-4.9138,-4.9168,-4.9441,-4.9649,-4.9737,-4.975,-4.9767,-4.9767,-4.9796,-4.9779,-4.9796,-4.9796,-5.014,-5.0858,-5.1584,-5.2248,-5.2846,-5.3565,-5.3962,-5.3849,-5.3833,-5.3833,-5.3833,-5.3833,-5.4021,-5.4563,-5.4967,-5.5766,-5.661,-5.7141,-5.7397,-5.76,-5.7719,-5.7546,-5.6861,-5.6213,-5.5551,-5.4787,-5.3923,-5.3619,-5.3534,-5.3518,-5.3534,-5.3518,-5.3518,-5.3518,-4.3305,-4.3305,-4.3305,-4.3305,-4.3305,-4.3305,-4.3305,-4.3305,-4.3305,-4.3305,-4.3305,-4.3305,-4.3305,-4.3305,-4.3305,-4.3305,-4.3305,-4.3305,-4.3305,-4.3245,-4.2716,-4.244,-4.2246,-4.113,-4.0516,-4.0277,-3.9723,-3.9418,-3.9424,-3.9424,-3.9424,-3.9409,-3.946,-3.9496,-3.9424,-3.9625,-3.9732,-3.9874,-4.0246,-4.0696,-4.1104,-4.172,-4.2365,-4.3005,-4.3535,-4.3948,-4.4265,-4.4468,-4.4598,-4.4598,-4.4598,-4.4598,-4.4598,-4.4598,-4.4598,-4.4598,-4.4598,-4.4598,-4.4666,-4.5229,-4.5889,-4.6616,-4.7428,-4.8105,-4.8697,-4.8968,-4.9018,-4.9001,-4.9001,-4.9001,-4.9032,-4.9063,-4.9185,-4.9428,-4.9471,-4.9488,-4.9488,-4.9488,-4.9488,-4.9488,-4.9488,-4.9795,-5.0509,-5.1213,-5.1902,-5.2439,-5.3206,-5.3717,-5.3584,-5.3601,-5.3534,-5.3534,-5.3601,-5.3737,-5.3636,-5.3653,-5.4602,-5.5485,-5.5825,-5.6183,-5.635,-5.645,-5.6383,-5.5837,-5.5245,-5.4584,-5.4296,-5.3585,-5.3568,-5.3518,-5.3518,-5.3518,-5.3518,-5.3518,-5.3518,-4.3305,-4.3305,-4.3305,-4.3305,-4.3305,-4.3305,-4.3305,-4.3305,-4.3305,-4.3305,-4.3305,-4.3305,-4.3305,-4.3305,-4.3305,-4.3305,-4.3305,-4.3305,-4.3305,-4.32,-4.2656,-4.2141,-4.1632,-4.0801,-4.0172,-3.9753,-3.9529,-3.9388,-3.9388,-3.9388,-3.9388,-3.9388,-3.9388,-3.9388,-3.9388,-3.9445,-3.9553,-3.9681,-3.9859,-4.0161,-4.0662,-4.1171,-4.1737,-4.2381,-4.2974,-4.3535,-4.3948,-4.4355,-4.457,-4.4598,-4.4598,-4.4598,-4.4598,-4.4598,-4.4598,-4.4598,-4.4598,-4.4598,-4.4615,-4.4807,-4.528,-4.5991,-4.6735,-4.7462,-4.8159,-4.8748,-4.8984,-4.9018,-4.9018,-4.9018,-4.9018,-4.9018,-4.9063,-4.9124,-4.9155,-4.9185,-4.9168,-4.9155,-4.9155,-4.9155,-4.9155,-4.9291,-4.9681,-5.0495,-5.1463,-5.1771,-5.2771,-5.35,-5.3501,-5.3518,-5.3518,-5.3518,-5.3518,-5.3518,-5.3518,-5.3518,-5.3991,-5.4601,-5.4873,-5.5144,-5.5295,-5.5361,-5.5243,-5.4955,-5.4329,-5.394,-5.3636,-5.3518,-5.3518,-5.3518,-5.3518,-5.3518,-5.3518,-5.3518,-5.3518,-4.3305,-4.3305,-4.3305,-4.3305,-4.3305,-4.3305,-4.3305,-4.3305,-4.3305,-4.3305,-4.3305,-4.3305,-4.3305,-4.3305,-4.3305,-4.3305,-4.3305,-4.3305,-4.3305,-4.314,-4.2372,-4.1811,-4.1302,-4.0427,-3.9858,-3.9463,-3.9388,-3.9388,-3.9388,-3.9388,-3.9388,-3.9388,-3.9388,-3.9388,-3.9388,-3.9388,-3.9496,-3.9604,-3.9681,-3.993,-4.0385,-4.0851,-4.1423,-4.2109,-4.2758,-4.3309,-4.3802,-4.4253,-4.4542,-4.457,-4.4598,-4.4598,-4.4598,-4.4598,-4.4598,-4.4598,-4.4598,-4.4598,-4.4598,-4.4632,-4.4908,-4.5652,-4.638,-4.7124,-4.7851,-4.8595,-4.8984,-4.9018,-4.9018,-4.9018,-4.9018,-4.9018,-4.9018,-4.9001,-4.9001,-4.9018,-4.9018,-4.9018,-4.9001,-4.9032,-4.9032,-4.9018,-4.9289,-5.027,-5.1134,-5.142,-5.2536,-5.3518,-5.3518,-5.3518,-5.3518,-5.3518,-5.3518,-5.3518,-5.3518,-5.3518,-5.3518,-5.3737,-5.4008,-5.4262,-5.4482,-5.4515,-5.4448,-5.4296,-5.3805,-5.3754,-5.3518,-5.3518,-5.3518,-5.3518,-5.3518,-5.3518,-5.3518,-5.3518,-5.3518,-4.3305,-4.3305,-4.3305,-4.3305,-4.3305,-4.3305,-4.3305,-4.3305,-4.3305,-4.3305,-4.3305,-4.3305,-4.3305,-4.3305,-4.3305,-4.3305,-4.3305,-4.3305,-4.3305,-4.2976,-4.2207,-4.1587,-4.125,-4.0337,-3.9873,-3.9723,-3.9568,-3.9529,-3.9553,-3.9433,-3.9388,-3.9388,-3.9388,-3.9388,-3.9388,-3.9388,-3.9424,-3.946,-3.9625,-3.9879,-4.025,-4.0783,-4.1423,-4.2077,-4.2726,-4.3279,-4.3772,-4.415,-4.444,-4.457,-4.4598,-4.4598,-4.4598,-4.4598,-4.4598,-4.4598,-4.4598,-4.4598,-4.4598,-4.4598,-4.4869,-4.5483,-4.6295,-4.7056,-4.7716,-4.8477,-4.9018,-4.9018,-4.9018,-4.9018,-4.9018,-4.9018,-4.9018,-4.9018,-4.9018,-4.9018,-4.9018,-4.9018,-4.9018,-4.9018,-4.9018,-4.9018,-4.9052,-5.0253,-5.093,-5.1471,-5.2452,-5.3129,-5.3518,-5.3518,-5.3518,-5.3518,-5.3518,-5.3518,-5.3518,-5.3518,-5.3518,-5.3551,-5.3687,-5.3788,-5.3923,-5.3923,-5.3923,-5.3721,-5.3602,-5.3534,-5.3518,-5.3518,-5.3518,-5.3518,-5.3518,-5.3518,-5.3518,-5.3518,-5.3518,-4.3305,-4.3305,-4.3305,-4.3305,-4.3305,-4.3305,-4.3305,-4.3305,-4.3305,-4.3305,-4.3305,-4.3305,-4.3305,-4.3305,-4.3305,-4.3305,-4.3305,-4.3305,-4.3305,-4.317,-4.2506,-4.1856,-4.1482,-4.1055,-4.0831,-4.0756,-4.0322,-4.0142,-4.0098,-3.9738,-3.9478,-3.9388,-3.9493,-3.9433,-3.9388,-3.9418,-3.9388,-3.9424,-3.9589,-3.9859,-4.025,-4.0783,-4.1423,-4.2077,-4.2649,-4.3235,-4.3772,-4.427,-4.4542,-4.4598,-4.4598,-4.4598,-4.4598,-4.4598,-4.4598,-4.4598,-4.4598,-4.4598,-4.4598,-4.4598,-4.4733,-4.497,-4.6109,-4.6853,-4.709,-4.8291,-4.89,-4.9018,-4.9018,-4.9018,-4.9018,-4.9018,-4.9018,-4.9018,-4.9018,-4.9018,-4.9018,-4.9018,-4.9018,-4.9018,-4.9018,-4.9018,-4.9204,-4.9796,-5.0625,-5.1234,-5.2029,-5.2926,-5.3315,-5.3518,-5.3518,-5.3518,-5.3518,-5.3518,-5.3518,-5.3518,-5.3518,-5.3518,-5.3551,-5.3585,-5.3653,-5.3653,-5.3619,-5.3534,-5.3551,-5.3518,-5.3518,-5.3518,-5.3518,-5.3518,-5.3518,-5.3518,-5.3518,-5.3518,-5.3518,-4.3305,-4.3305,-4.3305,-4.3305,-4.3305,-4.3305,-4.3305,-4.3305,-4.3305,-4.3305,-4.3305,-4.3305,-4.3305,-4.3305,-4.3305,-4.3305,-4.3305,-4.3305,-4.3305,-4.3245,-4.294,-4.2267,-4.1632,-4.1422,-4.1422,-4.1354,-4.0995,-4.0831,-4.0756,-4.0412,-4.0277,-4.0292,-4.0232,-4.0113,-3.9822,-3.9828,-3.9715,-3.9577,-3.9661,-3.9879,-4.0335,-4.0817,-4.1423,-4.2077,-4.268,-4.3295,-4.3948,-4.4384,-4.4598,-4.4598,-4.4598,-4.4598,-4.4598,-4.4598,-4.4598,-4.4598,-4.4598,-4.4598,-4.4598,-4.4598,-4.4767,-4.519,-4.6194,-4.6853,-4.7394,-4.8359,-4.9018,-4.9018,-4.9018,-4.9018,-4.9018,-4.9018,-4.9018,-4.9018,-4.9018,-4.9018,-4.9018,-4.9018,-4.9018,-4.9018,-4.9018,-4.9018,-4.9018,-4.9644,-5.0371,-5.1116,-5.186,-5.2672,-5.3298,-5.3416,-5.3518,-5.3518,-5.3518,-5.3518,-5.3518,-5.3518,-5.3518,-5.3518,-5.3518,-5.3518,-5.3518,-5.3518,-5.3518,-5.3518,-5.3518,-5.3518,-5.3518,-5.3518,-5.3518,-5.3518,-5.3518,-5.3518,-5.3518,-5.3518,-5.3518,-4.3305,-4.3305,-4.3305,-4.3305,-4.3305,-4.3305,-4.3305,-4.3305,-4.3305,-4.3305,-4.3305,-4.3305,-4.3305,-4.3305,-4.3305,-4.3305,-4.3305,-4.3305,-4.3305,-4.329,-4.314,-4.2701,-4.1908,-4.1848,-4.1818,-4.1758,-4.1564,-4.1527,-4.1414,-4.1369,-4.1309,-4.1227,-4.1235,-4.1025,-4.0546,-4.0412,-4.0162,-3.9902,-3.9798,-4.0106,-4.0593,-4.1088,-4.1638,-4.227,-4.2943,-4.3595,-4.4121,-4.4468,-4.4598,-4.4598,-4.4598,-4.4598,-4.4598,-4.4598,-4.4598,-4.4598,-4.4598,-4.4598,-4.4598,-4.4615,-4.4919,-4.5585,-4.6312,-4.7107,-4.7784,-4.8545,-4.9018,-4.9018,-4.9018,-4.9018,-4.9018,-4.9018,-4.9018,-4.9018,-4.9018,-4.9018,-4.9018,-4.9018,-4.9018,-4.9018,-4.9018,-4.9018,-4.9171,-4.9593,-5.0253,-5.1065,-5.1758,-5.2384,-5.3078,-5.345,-5.3518,-5.3518,-5.3518,-5.3518,-5.3518,-5.3518,-5.3518,-5.3518,-5.3518,-5.3518,-5.3518,-5.3518,-5.3518,-5.3518,-5.3518,-5.3518,-5.3518,-5.3518,-5.3518,-5.3518,-5.3518,-5.3518,-5.3518,-5.3518,-5.3518,-4.3305,-4.3305,-4.3305,-4.3305,-4.3305,-4.3305,-4.3305,-4.3305,-4.3305,-4.3305,-4.3305,-4.3305,-4.3305,-4.3305,-4.3305,-4.3305,-4.3305,-4.3305,-4.3305,-4.3305,-4.3305,-4.32,-4.2841,-4.2781,-4.2826,-4.2746,-4.2357,-4.2216,-4.2111,-4.1743,-4.1452,-4.1482,-4.1564,-4.1324,-4.116,-4.0733,-4.0462,-4.0411,-4.0238,-4.0405,-4.0987,-4.1555,-4.2109,-4.2728,-4.3446,-4.3964,-4.4253,-4.4514,-4.457,-4.4598,-4.4598,-4.4598,-4.4598,-4.4598,-4.4598,-4.4598,-4.4598,-4.4598,-4.4615,-4.4682,-4.4908,-4.572,-4.6481,-4.7107,-4.7868,-4.8595,-4.8968,-4.9018,-4.9018,-4.9018,-4.9018,-4.9018,-4.9018,-4.9018,-4.9018,-4.9018,-4.9018,-4.9018,-4.9018,-4.9018,-4.9018,-4.9018,-4.9018,-4.912,-4.9864,-5.0913,-5.1589,-5.2131,-5.279,-5.345,-5.3518,-5.3518,-5.3518,-5.3518,-5.3518,-5.3518,-5.3518,-5.3518,-5.3518,-5.3518,-5.3518,-5.3518,-5.3518,-5.3518,-5.3518,-5.3518,-5.3518,-5.3518,-5.3518,-5.3518,-5.3518,-5.3518,-5.3518,-5.3518,-5.3518,-4.3305,-4.3305,-4.3305,-4.3305,-4.3305,-4.3305,-4.3305,-4.3305,-4.3305,-4.3305,-4.3305,-4.3305,-4.3305,-4.3305,-4.3305,-4.3305,-4.3305,-4.3305,-4.3305,-4.3305,-4.3305,-4.3305,-4.3305,-4.3305,-4.329,-4.3269,-4.3,-4.2821,-4.2701,-4.2476,-4.2357,-4.2282,-4.2267,-4.2147,-4.1811,-4.1288,-4.1023,-4.0846,-4.0653,-4.0817,-4.1472,-4.1964,-4.2649,-4.3235,-4.386,-4.4253,-4.444,-4.4542,-4.457,-4.4598,-4.4598,-4.4598,-4.4598,-4.4598,-4.4598,-4.4598,-4.4598,-4.4598,-4.4632,-4.4942,-4.5449,-4.616,-4.6887,-4.7631,-4.824,-4.8832,-4.8968,-4.9018,-4.9018,-4.9018,-4.9018,-4.9018,-4.9018,-4.9018,-4.9018,-4.9018,-4.9018,-4.9018,-4.9018,-4.9018,-4.9018,-4.9018,-4.9018,-4.9018,-4.9763,-5.093,-5.1251,-5.1826,-5.2959,-5.3518,-5.3518,-5.3518,-5.3518,-5.3518,-5.3518,-5.3518,-5.3518,-5.3518,-5.3518,-5.3518,-5.3518,-5.3518,-5.3518,-5.3518,-5.3518,-5.3518,-5.3518,-5.3518,-5.3518,-5.3518,-5.3518,-5.3518,-5.3518,-5.3518,-5.3518,-4.3305,-4.3305,-4.3305,-4.3305,-4.3305,-4.3305,-4.3305,-4.3305,-4.3305,-4.3305,-4.3305,-4.3305,-4.3305,-4.3305,-4.3305,-4.3305,-4.3305,-4.3305,-4.3305,-4.3305,-4.3305,-4.3305,-4.3305,-4.3305,-4.3305,-4.3305,-4.323,-4.323,-4.323,-4.329,-4.3035,-4.3215,-4.3245,-4.2965,-4.2563,-4.1957,-4.16,-4.1418,-4.1044,-4.1171,-4.1834,-4.2318,-4.299,-4.3743,-4.4093,-4.4367,-4.4514,-4.457,-4.4598,-4.4598,-4.4598,-4.4598,-4.4598,-4.4598,-4.4598,-4.4598,-4.4598,-4.4688,-4.4925,-4.5365,-4.5991,-4.6836,-4.7496,-4.8189,-4.8765,-4.8951,-4.9001,-4.9018,-4.9018,-4.9018,-4.9018,-4.9018,-4.9018,-4.9018,-4.9018,-4.9018,-4.9018,-4.9018,-4.9018,-4.9018,-4.9018,-4.9018,-4.9018,-4.9052,-4.9999,-5.0762,-5.1099,-5.1691,-5.2841,-5.3518,-5.3518,-5.3518,-5.3518,-5.3518,-5.3518,-5.3518,-5.3518,-5.3518,-5.3518,-5.3518,-5.3518,-5.3518,-5.3518,-5.3518,-5.3518,-5.3518,-5.3518,-5.3518,-5.3518,-5.3518,-5.3518,-5.3518,-5.3518,-5.3518,-5.3518,-4.3305,-4.3305,-4.3305,-4.3305,-4.3305,-4.3305,-4.3305,-4.3305,-4.3305,-4.3305,-4.3305,-4.3305,-4.3305,-4.3305,-4.3305,-4.3305,-4.3305,-4.3305,-4.3305,-4.3305,-4.3305,-4.3305,-4.3305,-4.3305,-4.3305,-4.3305,-4.3305,-4.3305,-4.3305,-4.3305,-4.3305,-4.3305,-4.3305,-4.3249,-4.3085,-4.2432,-4.1938,-4.2043,-4.1507,-4.1488,-4.2109,-4.2758,-4.3386,-4.4093,-4.4265,-4.4412,-4.4542,-4.4598,-4.4598,-4.4598,-4.4598,-4.4598,-4.4598,-4.4598,-4.4598,-4.4598,-4.4598,-4.4773,-4.5331,-4.5635,-4.6447,-4.7361,-4.7889,-4.8274,-4.8798,-4.9018,-4.9018,-4.9018,-4.9018,-4.9018,-4.9018,-4.9018,-4.9018,-4.9018,-4.9018,-4.9018,-4.9018,-4.9018,-4.9018,-4.9018,-4.9018,-4.9018,-4.9018,-4.9187,-4.9915,-5.0659,-5.1133,-5.1928,-5.3112,-5.3501,-5.3518,-5.3518,-5.3518,-5.3518,-5.3518,-5.3518,-5.3518,-5.3518,-5.3518,-5.3518,-5.3518,-5.3518,-5.3518,-5.3518,-5.3518,-5.3518,-5.3518,-5.3518,-5.3518,-5.3518,-5.3518,-5.3518,-5.3518,-5.3518,-5.3518,-4.3305,-4.3305,-4.3305,-4.3305,-4.3305,-4.3305,-4.3305,-4.3305,-4.3305,-4.3305,-4.3305,-4.3305,-4.3305,-4.3305,-4.3305,-4.3305,-4.3305,-4.3305,-4.3305,-4.3305,-4.3305,-4.3305,-4.3305,-4.3305,-4.3305,-4.3305,-4.3305,-4.3305,-4.3305,-4.3305,-4.3305,-4.3305,-4.3305,-4.3423,-4.3374,-4.2554,-4.2349,-4.2478,-4.2058,-4.1932,-4.2618,-4.3309,-4.3948,-4.4179,-4.4395,-4.4514,-4.457,-4.4598,-4.4598,-4.4598,-4.4598,-4.4598,-4.4598,-4.4615,-4.4615,-4.4632,-4.4649,-4.4925,-4.5652,-4.6024,-4.6802,-4.772,-4.8193,-4.8595,-4.8883,-4.9018,-4.9018,-4.9018,-4.9018,-4.9018,-4.9018,-4.9018,-4.9018,-4.9018,-4.9018,-4.9018,-4.9018,-4.9018,-4.9018,-4.9018,-4.9018,-4.9018,-4.9018,-4.9323,-4.9864,-5.0473,-5.1099,-5.2131,-5.3315,-5.3501,-5.3518,-5.3518,-5.3518,-5.3518,-5.3518,-5.3518,-5.3518,-5.3518,-5.3518,-5.3518,-5.3518,-5.3518,-5.3518,-5.3518,-5.3518,-5.3518,-5.3518,-5.3518,-5.3518,-5.3518,-5.3518,-5.3518,-5.3518,-5.3518,-5.3518,-4.3305,-4.3305,-4.3305,-4.3305,-4.3305,-4.3305,-4.3305,-4.3305,-4.3305,-4.3305,-4.3305,-4.3305,-4.3305,-4.3305,-4.3305,-4.3305,-4.3305,-4.3305,-4.3305,-4.3305,-4.3305,-4.3305,-4.3305,-4.3305,-4.3305,-4.3305,-4.3305,-4.3305,-4.3305,-4.3305,-4.3305,-4.3344,-4.3329,-4.3518,-4.3482,-4.2749,-4.2792,-4.2759,-4.2481,-4.2492,-4.3218,-4.3919,-4.4338,-4.4367,-4.4497,-4.457,-4.4598,-4.4598,-4.4598,-4.4598,-4.4598,-4.4598,-4.4632,-4.475,-4.4852,-4.4835,-4.4835,-4.5213,-4.5872,-4.6633,-4.7378,-4.8206,-4.8697,-4.8934,-4.9001,-4.9018,-4.9018,-4.9018,-4.9018,-4.9018,-4.9018,-4.9018,-4.9018,-4.9018,-4.9018,-4.9018,-4.9018,-4.9018,-4.9018,-4.9018,-4.9018,-4.9018,-4.9018,-4.9171,-4.9661,-5.0591,-5.1234,-5.2063,-5.3112,-5.345,-5.3518,-5.3518,-5.3518,-5.3518,-5.3518,-5.3518,-5.3518,-5.3518,-5.3518,-5.3518,-5.3518,-5.3518,-5.3518,-5.3518,-5.3518,-5.3518,-5.3518,-5.3518,-5.3518,-5.3518,-5.3518,-5.3518,-5.3518,-5.3518,-5.3518,-4.3305,-4.3305,-4.3305,-4.3305,-4.3305,-4.3305,-4.3305,-4.3305,-4.3305,-4.3305,-4.3305,-4.3305,-4.3305,-4.3305,-4.3305,-4.3305,-4.3305,-4.3305,-4.3305,-4.3305,-4.3305,-4.3305,-4.3305,-4.3305,-4.3305,-4.3305,-4.3305,-4.3305,-4.3305,-4.3305,-4.3305,-4.3344,-4.3503,-4.3754,-4.3851,-4.3118,-4.2819,-4.3122,-4.2582,-4.268,-4.3595,-4.4121,-4.4384,-4.4514,-4.457,-4.4598,-4.4598,-4.4598,-4.4632,-4.4699,-4.4666,-4.4632,-4.4699,-4.5246,-4.55,-4.5568,-4.5652,-4.5906,-4.6633,-4.7259,-4.797,-4.8545,-4.8951,-4.9001,-4.9018,-4.9018,-4.9018,-4.9018,-4.9018,-4.9018,-4.9018,-4.9018,-4.9018,-4.9018,-4.9018,-4.9018,-4.9018,-4.9018,-4.9018,-4.9018,-4.9018,-4.9018,-4.9018,-4.9187,-4.9492,-5.0473,-5.142,-5.2215,-5.2926,-5.3315,-5.3518,-5.3518,-5.3518,-5.3518,-5.3518,-5.3518,-5.3518,-5.3518,-5.3518,-5.3518,-5.3518,-5.3518,-5.3518,-5.3518,-5.3518,-5.3518,-5.3518,-5.3518,-5.3518,-5.3518,-5.3518,-5.3518,-5.3518,-5.3518,-5.3518,-4.3305,-4.3305,-4.3305,-4.3305,-4.3305,-4.3305,-4.3305,-4.3305,-4.3305,-4.3305,-4.3305,-4.3305,-4.3305,-4.3305,-4.3305,-4.3305,-4.3305,-4.3305,-4.3305,-4.3305,-4.3305,-4.3305,-4.3305,-4.3305,-4.3305,-4.3305,-4.3305,-4.3305,-4.3305,-4.3305,-4.3305,-4.3344,-4.3596,-4.3871,-4.4105,-4.3692,-4.3622,-4.3645,-4.3427,-4.3449,-4.396,-4.4327,-4.4514,-4.4615,-4.4632,-4.4649,-4.4632,-4.4598,-4.4869,-4.5077,-4.5213,-4.5449,-4.5799,-4.6143,-4.6329,-4.6363,-4.6752,-4.7107,-4.7428,-4.772,-4.8308,-4.8781,-4.9018,-4.9018,-4.9018,-4.9018,-4.9018,-4.9018,-4.9018,-4.9018,-4.9018,-4.9018,-4.9018,-4.9018,-4.9018,-4.9018,-4.9018,-4.9018,-4.9018,-4.9018,-4.9018,-4.9018,-4.9018,-4.9103,-4.9576,-5.0676,-5.1437,-5.2063,-5.2807,-5.3399,-5.3518,-5.3518,-5.3518,-5.3518,-5.3518,-5.3518,-5.3518,-5.3518,-5.3518,-5.3518,-5.3518,-5.3518,-5.3518,-5.3518,-5.3518,-5.3518,-5.3518,-5.3518,-5.3518,-5.3518,-5.3518,-5.3518,-5.3518,-5.3518,-5.3518,-4.3305,-4.3305,-4.3305,-4.3305,-4.3305,-4.3305,-4.3305,-4.3305,-4.3305,-4.3305,-4.3305,-4.3305,-4.3305,-4.3305,-4.3305,-4.3305,-4.3305,-4.3305,-4.3305,-4.3305,-4.3305,-4.3305,-4.3305,-4.3305,-4.3305,-4.3305,-4.3305,-4.3305,-4.3305,-4.3305,-4.3305,-4.3344,-4.3636,-4.3949,-4.419,-4.4183,-4.4197,-4.4443,-4.4434,-4.4593,-4.4908,-4.5127,-4.5049,-4.5026,-4.5038,-4.5072,-4.4919,-4.5173,-4.5551,-4.5821,-4.5974,-4.6194,-4.6566,-4.687,-4.7056,-4.7225,-4.7665,-4.8071,-4.8173,-4.8308,-4.8511,-4.8798,-4.9018,-4.9018,-4.9018,-4.9018,-4.9018,-4.9018,-4.9018,-4.9018,-4.9018,-4.9018,-4.9018,-4.9018,-4.9018,-4.9018,-4.9018,-4.9018,-4.9018,-4.9018,-4.9018,-4.9018,-4.9018,-4.9018,-4.9661,-5.0845,-5.1539,-5.2029,-5.2706,-5.345,-5.3518,-5.3518,-5.3518,-5.3518,-5.3518,-5.3518,-5.3518,-5.3518,-5.3518,-5.3518,-5.3518,-5.3518,-5.3518,-5.3518,-5.3518,-5.3518,-5.3518,-5.3518,-5.3518,-5.3518,-5.3518,-5.3518,-5.3518,-5.3518,-5.3518,-4.3305,-4.3305,-4.3305,-4.3305,-4.3305,-4.3305,-4.3305,-4.3305,-4.3305,-4.3305,-4.3305,-4.3305,-4.3305,-4.3305,-4.3305,-4.3305,-4.3305,-4.3305,-4.3305,-4.3305,-4.3305,-4.3305,-4.3305,-4.3305,-4.3305,-4.3305,-4.3305,-4.3305,-4.3305,-4.3305,-4.3305,-4.3384,-4.3793,-4.405,-4.4356,-4.4601,-4.492,-4.5261,-4.5481,-4.5811,-4.6098,-4.6258,-4.616,-4.5855,-4.616,-4.6363,-4.5737,-4.6109,-4.6498,-4.6684,-4.6735,-4.687,-4.7208,-4.7597,-4.7817,-4.7986,-4.8359,-4.8697,-4.8748,-4.8765,-4.89,-4.8984,-4.9018,-4.9018,-4.9018,-4.9018,-4.9018,-4.9018,-4.9018,-4.9018,-4.9018,-4.9018,-4.9018,-4.9018,-4.9018,-4.9018,-4.9018,-4.9018,-4.9018,-4.9018,-4.9018,-4.9018,-4.9018,-4.9018,-4.9746,-5.0913,-5.1911,-5.2418,-5.2909,-5.3518,-5.3518,-5.3518,-5.3518,-5.3518,-5.3518,-5.3518,-5.3518,-5.3518,-5.3518,-5.3518,-5.3518,-5.3518,-5.3518,-5.3518,-5.3518,-5.3518,-5.3518,-5.3518,-5.3518,-5.3518,-5.3518,-5.3518,-5.3518,-5.3518,-5.3518,-4.3305,-4.3305,-4.3305,-4.3305,-4.3305,-4.3305,-4.3305,-4.3305,-4.3305,-4.3305,-4.3305,-4.3305,-4.3305,-4.3305,-4.3305,-4.3305,-4.3305,-4.3305,-4.3305,-4.3305,-4.3305,-4.3305,-4.3305,-4.3305,-4.3305,-4.3305,-4.3305,-4.3305,-4.3305,-4.3305,-4.3423,-4.3621,-4.3972,-4.4419,-4.4791,-4.5274,-4.5844,-4.6189,-4.6357,-4.6441,-4.6621,-4.6756,-4.665,-4.6481,-4.6532,-4.6684,-4.6447,-4.6616,-4.7022,-4.7361,-4.7462,-4.7682,-4.7936,-4.8376,-4.8494,-4.8528,-4.8866,-4.8968,-4.9018,-4.9018,-4.9018,-4.9018,-4.9018,-4.9018,-4.9018,-4.9018,-4.9018,-4.9018,-4.9018,-4.9018,-4.9018,-4.9018,-4.9018,-4.9018,-4.9018,-4.9018,-4.9018,-4.9018,-4.9018,-4.9018,-4.9018,-4.9018,-4.9018,-4.9018,-4.9949,-5.0963,-5.1928,-5.2773,-5.3213,-5.3518,-5.3518,-5.3518,-5.3518,-5.3518,-5.3518,-5.3518,-5.3518,-5.3518,-5.3518,-5.3518,-5.3518,-5.3518,-5.3518,-5.3518,-5.3518,-5.3518,-5.3518,-5.3518,-5.3518,-5.3518,-5.3518,-5.3518,-5.3518,-5.3518,-5.3518,-4.3305,-4.3305,-4.3305,-4.3305,-4.3305,-4.3305,-4.3305,-4.3305,-4.3305,-4.3305,-4.3305,-4.3305,-4.3305,-4.3305,-4.3305,-4.3305,-4.3305,-4.3305,-4.3305,-4.3305,-4.3305,-4.3305,-4.3305,-4.3305,-4.3305,-4.3305,-4.3305,-4.3305,-4.3305,-4.3305,-4.3503,-4.3817,-4.4205,-4.4648,-4.5269,-4.6166,-4.6881,-4.7231,-4.7357,-4.7248,-4.7466,-4.7513,-4.731,-4.7293,-4.7411,-4.7378,-4.7344,-4.7462,-4.7817,-4.8105,-4.8291,-4.8494,-4.8781,-4.9001,-4.9018,-4.9018,-4.9018,-4.9018,-4.9018,-4.9018,-4.9018,-4.9018,-4.9018,-4.9018,-4.9018,-4.9018,-4.9018,-4.9018,-4.9018,-4.9018,-4.9018,-4.9018,-4.9018,-4.9018,-4.9018,-4.9018,-4.9018,-4.9018,-4.9018,-4.9018,-4.9018,-4.9035,-4.9373,-4.9492,-5.0338,-5.1319,-5.2317,-5.301,-5.3298,-5.3518,-5.3518,-5.3518,-5.3518,-5.3518,-5.3518,-5.3518,-5.3518,-5.3518,-5.3518,-5.3518,-5.3518,-5.3518,-5.3518,-5.3518,-5.3518,-5.3518,-5.3518,-5.3518,-5.3518,-5.3518,-5.3518,-5.3518,-5.3518,-5.3518,-5.3518,-4.3305,-4.3305,-4.3305,-4.3305,-4.3305,-4.3305,-4.3305,-4.3305,-4.3305,-4.3305,-4.3305,-4.3305,-4.3305,-4.3305,-4.3305,-4.3305,-4.3305,-4.3305,-4.3305,-4.3305,-4.3305,-4.3305,-4.3305,-4.3305,-4.3305,-4.3305,-4.3305,-4.3305,-4.3305,-4.3384,-4.3596,-4.4089,-4.4534,-4.5008,-4.5363,-4.6655,-4.7605,-4.8145,-4.8428,-4.8577,-4.8649,-4.8629,-4.8308,-4.8139,-4.8325,-4.8274,-4.8088,-4.8308,-4.8595,-4.8714,-4.8781,-4.8883,-4.8968,-4.9018,-4.9018,-4.9018,-4.9018,-4.9018,-4.9018,-4.9018,-4.9018,-4.9018,-4.9018,-4.9018,-4.9018,-4.9018,-4.9018,-4.9018,-4.9018,-4.9018,-4.9018,-4.9018,-4.9018,-4.9018,-4.9018,-4.9018,-4.9018,-4.9018,-4.9018,-4.9018,-4.9018,-4.9103,-4.9576,-5.0084,-5.0828,-5.1742,-5.2739,-5.3264,-5.345,-5.3518,-5.3518,-5.3518,-5.3518,-5.3518,-5.3518,-5.3518,-5.3518,-5.3518,-5.3518,-5.3518,-5.3518,-5.3518,-5.3518,-5.3518,-5.3518,-5.3518,-5.3518,-5.3518,-5.3518,-5.3518,-5.3518,-5.3518,-5.3518,-5.3518,-5.3518,-4.3305,-4.3305,-4.3305,-4.3305,-4.3305,-4.3305,-4.3305,-4.3305,-4.3305,-4.3305,-4.3305,-4.3305,-4.3305,-4.3305,-4.3305,-4.3305,-4.3305,-4.3305,-4.3305,-4.3305,-4.3305,-4.3305,-4.3305,-4.3305,-4.3305,-4.3305,-4.3305,-4.3344,-4.3305,-4.3463,-4.3817,-4.4281,-4.5142,-4.5909,-4.6493,-4.732,-4.8017,-4.8388,-4.8688,-4.8954,-4.9001,-4.9001,-4.8883,-4.8612,-4.8883,-4.8832,-4.8578,-4.8917,-4.8984,-4.9018,-4.9018,-4.9018,-4.9018,-4.9018,-4.9018,-4.9018,-4.9018,-4.9018,-4.9018,-4.9018,-4.9018,-4.9018,-4.9018,-4.9018,-4.9018,-4.9018,-4.9018,-4.9018,-4.9018,-4.9018,-4.9018,-4.9018,-4.9018,-4.9018,-4.9018,-4.9018,-4.9018,-4.9018,-4.9018,-4.9018,-4.9018,-4.9492,-4.9965,-5.076,-5.1522,-5.2063,-5.2976,-5.3298,-5.3501,-5.3518,-5.3518,-5.3518,-5.3518,-5.3518,-5.3518,-5.3518,-5.3518,-5.3518,-5.3518,-5.3518,-5.3518,-5.3518,-5.3518,-5.3518,-5.3518,-5.3518,-5.3518,-5.3518,-5.3518,-5.3518,-5.3518,-5.3518,-5.3518,-5.3518,-5.3518,-4.3305,-4.3305,-4.3305,-4.3305,-4.3305,-4.3305,-4.3305,-4.3305,-4.3305,-4.3305,-4.3305,-4.3305,-4.3305,-4.3305,-4.3305,-4.3305,-4.3305,-4.3305,-4.3305,-4.3305,-4.3305,-4.3305,-4.3305,-4.3305,-4.3305,-4.3344,-4.3423,-4.3478,-4.3518,-4.3793,-4.4243,-4.4911,-4.5837,-4.6477,-4.7082,-4.7704,-4.8179,-4.8515,-4.8815,-4.9001,-4.9018,-4.9001,-4.9001,-4.8968,-4.9001,-4.8968,-4.9001,-4.9018,-4.9018,-4.9018,-4.9018,-4.9018,-4.9018,-4.9018,-4.9018,-4.9018,-4.9018,-4.9018,-4.9018,-4.9018,-4.9018,-4.9018,-4.9018,-4.9018,-4.9018,-4.9018,-4.9018,-4.9018,-4.9018,-4.9018,-4.9018,-4.9018,-4.9018,-4.9018,-4.9018,-4.9018,-4.9018,-4.9018,-4.9238,-4.9221,-4.9526,-4.9982,-5.0608,-5.1403,-5.2249,-5.2689,-5.3162,-5.3348,-5.3518,-5.3518,-5.3518,-5.3518,-5.3518,-5.3518,-5.3518,-5.3518,-5.3518,-5.3518,-5.3518,-5.3518,-5.3518,-5.3518,-5.3518,-5.3518,-5.3518,-5.3518,-5.3518,-5.3518,-5.3518,-5.3518,-5.3518,-5.3518,-5.3518,-5.3518,-5.3518,-4.3305,-4.3305,-4.3305,-4.3305,-4.3305,-4.3305,-4.3305,-4.3305,-4.3305,-4.3305,-4.3305,-4.3305,-4.3305,-4.3305,-4.3305,-4.3305,-4.3305,-4.3305,-4.3305,-4.3305,-4.3305,-4.3305,-4.3305,-4.3305,-4.3344,-4.3423,-4.3557,-4.3675,-4.3754,-4.4243,-4.4836,-4.5489,-4.6266,-4.6894,-4.7454,-4.7918,-4.8324,-4.8627,-4.8846,-4.897,-4.9018,-4.9018,-4.9018,-4.9018,-4.9018,-4.9018,-4.9018,-4.9018,-4.9018,-4.9018,-4.9018,-4.9018,-4.9018,-4.9018,-4.9018,-4.9018,-4.9018,-4.9018,-4.9018,-4.9018,-4.9018,-4.9018,-4.9018,-4.9018,-4.9018,-4.9018,-4.9018,-4.9018,-4.9018,-4.9018,-4.9018,-4.9018,-4.9018,-4.9018,-4.9018,-4.9018,-4.9035,-4.9187,-4.9509,-4.9763,-5.0168,-5.0727,-5.1589,-5.2367,-5.2756,-5.3044,-5.3331,-5.3382,-5.3518,-5.3518,-5.3518,-5.3518,-5.3518,-5.3518,-5.3518,-5.3518,-5.3518,-5.3518,-5.3518,-5.3518,-5.3518,-5.3518,-5.3518,-5.3518,-5.3518,-5.3518,-5.3518,-5.3518,-5.3518,-5.3518,-5.3518,-5.3518,-5.3518,-5.3518,-5.3518,-4.3305,-4.3305,-4.3305,-4.3305,-4.3305,-4.3305,-4.3305,-4.3305,-4.3305,-4.3305,-4.3305,-4.3305,-4.3305,-4.3305,-4.3305,-4.3305,-4.3305,-4.3305,-4.3305,-4.3305,-4.3305,-4.3305,-4.3305,-4.3329,-4.3409,-4.3557,-4.3714,-4.391,-4.4281,-4.4761,-4.551,-4.6266,-4.6772,-4.732,-4.777,-4.8244,-4.8468,-4.869,-4.8909,-4.897,-4.9018,-4.9018,-4.9018,-4.9018,-4.9018,-4.9018,-4.9018,-4.9018,-4.9018,-4.9018,-4.9018,-4.9018,-4.9018,-4.9018,-4.9018,-4.9018,-4.9018,-4.9018,-4.9018,-4.9018,-4.9018,-4.9018,-4.9018,-4.9018,-4.9018,-4.9018,-4.9018,-4.9018,-4.9018,-4.9018,-4.9018,-4.9018,-4.9018,-4.9018,-4.9035,-4.9086,-4.9154,-4.9509,-4.9847,-5.0439,-5.0862,-5.1589,-5.2469,-5.2841,-5.3179,-5.3399,-5.3518,-5.3518,-5.3518,-5.3518,-5.3518,-5.3518,-5.3518,-5.3518,-5.3518,-5.3518,-5.3518,-5.3518,-5.3518,-5.3518,-5.3518,-5.3518,-5.3518,-5.3518,-5.3518,-5.3518,-5.3518,-5.3518,-5.3518,-5.3518,-5.3518,-5.3518,-5.3518,-5.3518,-5.3518,-4.3305,-4.3305,-4.3305,-4.3305,-4.3305,-4.3305,-4.3305,-4.3305,-4.3305,-4.3305,-4.3305,-4.3305,-4.3305,-4.3305,-4.3305,-4.3305,-4.3305,-4.3305,-4.3305,-4.3305,-4.3305,-4.3384,-4.3409,-4.3463,-4.366,-4.3832,-4.405,-4.4305,-4.4783,-4.551,-4.6301,-4.6894,-4.7336,-4.7754,-4.8179,-4.8468,-4.8707,-4.8863,-4.8956,-4.9018,-4.9018,-4.9018,-4.9018,-4.9018,-4.9018,-4.9018,-4.9018,-4.9018,-4.9018,-4.9018,-4.9018,-4.9018,-4.9018,-4.9018,-4.9018,-4.9018,-4.9018,-4.9018,-4.9018,-4.9018,-4.9018,-4.9018,-4.9018,-4.9018,-4.9018,-4.9018,-4.9018,-4.9018,-4.9018,-4.9018,-4.9018,-4.9018,-4.9018,-4.9018,-4.9086,-4.9154,-4.9458,-4.983,-5.0405,-5.1065,-5.1742,-5.2452,-5.301,-5.3331,-5.3501,-5.3501,-5.3518,-5.3518,-5.3518,-5.3518,-5.3518,-5.3518,-5.3518,-5.3518,-5.3518,-5.3518,-5.3518,-5.3518,-5.3518,-5.3518,-5.3518,-5.3518,-5.3518,-5.3518,-5.3518,-5.3518,-5.3518,-5.3518,-5.3518,-5.3518,-5.3518,-5.3518,-5.3518,-5.3518,-5.3518,-4.3305,-4.3305,-4.3305,-4.3305,-4.3305,-4.3305,-4.3305,-4.3305,-4.3305,-4.3305,-4.3305,-4.3305,-4.3305,-4.3305,-4.3305,-4.3305,-4.3305,-4.3305,-4.3305,-4.3344,-4.3384,-4.3463,-4.3596,-4.3754,-4.4011,-4.432,-4.461,-4.4896,-4.5473,-4.6195,-4.6878,-4.7438,-4.777,-4.8147,-4.8468,-4.8644,-4.8832,-4.8956,-4.8987,-4.9018,-4.9018,-4.9018,-4.9018,-4.9018,-4.9018,-4.9018,-4.9018,-4.9018,-4.9018,-4.9018,-4.9018,-4.9018,-4.9018,-4.9018,-4.9018,-4.9018,-4.9018,-4.9018,-4.9018,-4.9018,-4.9018,-4.9018,-4.9018,-4.9018,-4.9018,-4.9018,-4.9018,-4.9018,-4.9018,-4.9018,-4.9018,-4.9018,-4.9018,-4.9018,-4.9052,-4.9323,-4.9763,-5.0371,-5.1268,-5.1911,-5.252,-5.3145,-5.323,-5.3501,-5.3501,-5.3518,-5.3518,-5.3518,-5.3518,-5.3518,-5.3518,-5.3518,-5.3518,-5.3518,-5.3518,-5.3518,-5.3518,-5.3518,-5.3518,-5.3518,-5.3518,-5.3518,-5.3518,-5.3518,-5.3518,-5.3518,-5.3518,-5.3518,-5.3518,-5.3518,-5.3518,-5.3518,-5.3518,-5.3518,-5.3518,-4.3305,-4.3305,-4.3305,-4.3305,-4.3305,-4.3305,-4.3305,-4.3305,-4.3305,-4.329,-4.3305,-4.3305,-4.3305,-4.3305,-4.3305,-4.3305,-4.3329,-4.3344,-4.3305,-4.3423,-4.3503,-4.3714,-4.3793,-4.4104,-4.4381,-4.4685,-4.5046,-4.5619,-4.6337,-4.6947,-4.7471,-4.7951,-4.8179,-4.8373,-4.8707,-4.8818,-4.8894,-4.9001,-4.9018,-4.9018,-4.9018,-4.9018,-4.9018,-4.9018,-4.9018,-4.9018,-4.9018,-4.9018,-4.9018,-4.9018,-4.9018,-4.9018,-4.9018,-4.9018,-4.9018,-4.9018,-4.9018,-4.9018,-4.9018,-4.9018,-4.9018,-4.9018,-4.9018,-4.9018,-4.9018,-4.9018,-4.9018,-4.9018,-4.9018,-4.9018,-4.9018,-4.9018,-4.9069,-4.9069,-4.9103,-4.9593,-5.0101,-5.1116,-5.2114,-5.2706,-5.3298,-5.345,-5.3501,-5.3518,-5.3518,-5.3518,-5.3518,-5.3518,-5.3518,-5.3518,-5.3518,-5.3518,-5.3518,-5.3518,-5.3518,-5.3518,-5.3518,-5.3518,-5.3518,-5.3518,-5.3518,-5.3518,-5.3518,-5.3518,-5.3518,-5.3518,-5.3518,-5.3518,-5.3518,-5.3518,-5.3518,-5.3518,-5.3518,-5.3518,-5.3518,-4.3305,-4.3305,-4.3305,-4.3305,-4.3305,-4.3305,-4.3369,-4.3463,-4.3463,-4.3542,-4.3566,-4.3423,-4.3305,-4.3305,-4.3305,-4.3423,-4.3448,-4.3463,-4.3581,-4.366,-4.3856,-4.4026,-4.422,-4.4511,-4.4955,-4.5326,-4.5965,-4.6636,-4.7202,-4.7621,-4.7984,-4.8373,-4.8468,-4.8595,-4.8863,-4.8894,-4.8925,-4.897,-4.9001,-4.9018,-4.9018,-4.9018,-4.9018,-4.9018,-4.9018,-4.9018,-4.9018,-4.9018,-4.9018,-4.9018,-4.9018,-4.9018,-4.9018,-4.9018,-4.9018,-4.9018,-4.9018,-4.9018,-4.9018,-4.9018,-4.9018,-4.9018,-4.9018,-4.9018,-4.9018,-4.9018,-4.9018,-4.9018,-4.9018,-4.9018,-4.9018,-4.9018,-4.9357,-4.9492,-4.9712,-5.0101,-5.1048,-5.2164,-5.2773,-5.3129,-5.3467,-5.3484,-5.3518,-5.3518,-5.3518,-5.3518,-5.3518,-5.3518,-5.3518,-5.3518,-5.3518,-5.3518,-5.3518,-5.3518,-5.3518,-5.3518,-5.3518,-5.3518,-5.3518,-5.3518,-5.3518,-5.3518,-5.3518,-5.3518,-5.3518,-5.3518,-5.3518,-5.3518,-5.3518,-5.3518,-5.3518,-5.3518,-5.3518,-5.3518,-5.3518,-4.3305,-4.3305,-4.3344,-4.3344,-4.3384,-4.3384,-4.3542,-4.3769,-4.3808,-4.3925,-4.4026,-4.3699,-4.3448,-4.3369,-4.3423,-4.3581,-4.3699,-4.3778,-4.391,-4.4104,-4.432,-4.4511,-4.4761,-4.512,-4.564,-4.6285,-4.6913,-4.7337,-4.7787,-4.813,-4.8436,-4.8769,-4.888,-4.8894,-4.8987,-4.9001,-4.9001,-4.9001,-4.9018,-4.9018,-4.9018,-4.9018,-4.9018,-4.9018,-4.9018,-4.9018,-4.9018,-4.9018,-4.9018,-4.9018,-4.9018,-4.9018,-4.9018,-4.9018,-4.9018,-4.9018,-4.9018,-4.9018,-4.9018,-4.9018,-4.9018,-4.9018,-4.9018,-4.9018,-4.9018,-4.9018,-4.9018,-4.9018,-4.9018,-4.9035,-4.9035,-4.9255,-4.9627,-5.0067,-5.0338,-5.071,-5.1877,-5.2942,-5.3247,-5.3518,-5.3518,-5.3518,-5.3518,-5.3518,-5.3518,-5.3518,-5.3518,-5.3518,-5.3518,-5.3518,-5.3518,-5.3518,-5.3518,-5.3518,-5.3518,-5.3518,-5.3518,-5.3518,-5.3518,-5.3518,-5.3518,-5.3518,-5.3518,-5.3518,-5.3518,-5.3518,-5.3518,-5.3518,-5.3518,-5.3518,-5.3518,-5.3518,-5.3518,-5.3518,-5.3518,-4.3305,-4.3329,-4.3518,-4.3636,-4.3636,-4.3778,-4.3988,-4.4181,-4.422,-4.4266,-4.4458,-4.4435,-4.4189,-4.3856,-4.3871,-4.4026,-4.4205,-4.4205,-4.432,-4.4511,-4.4911,-4.5061,-4.5305,-4.5837,-4.6461,-4.71,-4.7621,-4.7984,-4.8227,-4.85,-4.8753,-4.894,-4.8956,-4.8987,-4.8987,-4.9018,-4.9018,-4.9018,-4.9018,-4.9018,-4.9018,-4.9018,-4.9018,-4.9018,-4.9018,-4.9018,-4.9018,-4.9018,-4.9018,-4.9018,-4.9018,-4.9018,-4.9018,-4.9018,-4.9018,-4.9018,-4.9018,-4.9018,-4.9018,-4.9018,-4.9018,-4.9018,-4.9018,-4.9018,-4.9018,-4.9018,-4.9018,-4.9035,-4.9052,-4.9137,-4.9221,-4.9627,-5.0033,-5.0608,-5.1014,-5.1589,-5.2435,-5.3027,-5.3433,-5.3518,-5.3518,-5.3518,-5.3518,-5.3518,-5.3518,-5.3518,-5.3518,-5.3518,-5.3518,-5.3518,-5.3518,-5.3518,-5.3518,-5.3518,-5.3518,-5.3518,-5.3518,-5.3518,-5.3518,-5.3518,-5.3518,-5.3518,-5.3518,-5.3518,-5.3518,-5.3518,-5.3518,-5.3518,-5.3518,-5.3518,-5.3518,-5.3518,-5.3518,-5.3518,-5.3518]},{"header":{"parameterUnit":"m.s-1","parameterCategory":1,"la1":31.0,"la2":29.5877,"lo1":-88.7671,"lo2":-86.6584,"dy":0.0162,"dx":0.0185,"nx":115,"ny":88,"refTime":"2024-03-28T06:00:00:Z","depth":0,"parameterNumber":3,"parameterNumberName":"V-component_of_WINDS"},"data":[0.0,0.0,0.0,0.0,0.0,0.0,0.0,0.0,0.0,0.0,0.0,0.0,0.0,0.0,0.0,0.0,0.0,0.0,0.0,0.0,0.0,0.0,0.0,0.0,0.0,0.0,0.0,0.0,0.0,0.0,0.0,0.0,0.0,0.0,0.0,0.0,0.0,0.0,0.0,0.0,0.0,0.0,0.0,0.0,0.0,0.0,0.0,0.0,0.0,0.0,0.0,0.0,0.0,0.0,0.0,0.0,0.0,0.0,0.0,0.0,0.0,0.0,0.0,0.0,0.0,0.0,0.0,0.0,0.0,0.0,0.0,0.0,0.0,0.0,0.0,0.0,0.0,0.0,0.0,0.0,0.0,0.0,0.0,0.0,0.0,0.0,0.0,0.0,0.0,0.0,0.0,0.0,0.0,0.0,0.0,0.0,0.0,0.0,0.0,0.0,0.0,0.0,0.0,0.0,0.0,0.0,0.0,0.0,0.0,0.0,0.0,0.0,0.0,0.0,0.0,0.0,0.0,0.0,0.0,0.0,0.0,0.0,0.0,0.0,0.0,0.0,0.0,0.0,0.0,0.0,0.0,0.0,0.0,0.0,0.0,0.0,0.0,0.0,0.0,0.0,0.0,0.0,0.0,0.0,0.0,0.0,0.0,0.0,0.0,0.0,0.0,0.0,0.0,0.0,0.0,0.0,0.0,0.0,0.0,0.0,0.0,0.0,0.0,0.0,0.0,0.0,0.0,0.0,0.0,0.0,0.0,0.0,0.0,0.0,0.0,0.0,0.0,0.0,0.0,0.0,0.0,0.0,0.0,0.0,0.0,0.0,0.0,0.0,0.0,0.0,0.0,0.0,0.0,0.0,0.0,0.0,0.0,0.0,0.0,0.0,0.0,0.0,0.0,0.0,0.0,0.0,0.0,0.0,0.0,0.0,0.0,0.0,0.0,0.0,0.0,0.0,0.0,0.0,0.0,0.0,0.0,0.0,0.0,0.0,0.0,0.0,0.0,0.0,0.0,0.0,0.0,0.0,0.0,0.0,0.0,0.0,0.0,0.0,0.0,0.0,0.0,0.0,0.0,0.0,0.0,0.0,0.0,0.0,0.0,0.0,0.0,0.0,0.0,0.0,0.0,0.0,0.0,0.0,0.0,0.0,0.0,0.0,0.0,0.0,0.0,0.0,0.0,0.0,0.0,0.0,0.0,0.0,0.0,0.0,0.0,0.0,0.0,0.0,0.0,0.0,0.0,0.0,0.0,0.0,0.0,0.0,0.0,0.0,0.0,0.0,0.0,0.0,0.0,0.0,0.0,0.0,0.0,0.0,0.0,0.0,0.0,0.0,0.0,0.0,0.0,0.0,0.0,0.0,0.0,0.0,0.0,0.0,0.0,0.0,0.0,0.0,0.0,0.0,0.0,0.0,0.0,0.0,0.0,0.0,0.0,0.0,0.0,0.0,0.0,0.0,0.0,0.0,0.0,0.0,0.0,0.0,0.0,0.0,0.0,0.0,0.0,0.0,0.0,0.0,0.0,0.0,0.0,0.0,0.0,0.0,0.0,0.0,0.0,0.0,0.0,0.0,0.0,0.0,0.0,0.0,0.0,0.0,0.0,0.0,0.0,0.0,0.0,0.0,0.0,0.0,0.0,0.0,0.0,0.0,0.0,0.0,0.0,0.0,0.0,0.0,0.0,0.0,0.0,0.0,0.0,0.0,0.0,0.0,0.0,0.0,0.0,0.0,0.0,0.0,0.0,0.0,0.0,0.0,0.0,0.0,0.0,0.0,0.0,0.0,0.0,0.0,0.0,0.0,0.0,0.0,0.0,0.0,0.0,0.0,0.0,0.0,0.0,0.0,0.0,0.0,0.0,0.0,0.0,0.0,0.0,0.0,0.0,0.0,0.0,0.0,0.0,0.0,0.0,0.0,0.0,0.0,0.0,0.0,0.0,0.0,0.0,0.0,0.0,0.0,0.0,0.0,0.0,0.0,0.0,0.0,0.0,0.0,0.0,0.0,0.0,0.0,0.0,0.0,0.0,0.0,0.0,0.0,0.0,0.0,0.0,0.0,0.0,0.0,0.0,0.0,0.0,0.0,0.0,0.0,0.0,0.0,0.0,0.0,0.0,0.0,0.0,0.0,0.0,0.0,0.0,0.0,0.0,0.0,0.0,0.0,0.0,0.0,0.0,0.0,0.0,0.0,0.0,0.0,0.0,0.0,0.0,0.0,0.0,0.0,0.0,0.0,0.0,0.0,0.0,0.0,0.0,0.0,0.0,0.0,0.0,0.0,0.0,0.0,0.0,0.0,0.0,0.0,0.0,0.0,0.0,0.0,0.0,0.0,0.0,0.0,0.0,0.0,0.0,0.0,0.0,0.0,0.0,0.0,0.0,0.0,0.0,0.0,0.0,0.0,0.0,0.0,0.0,0.0,0.0,0.0,0.0,0.0,0.0,0.0,0.0,0.0,0.0,0.0,0.0,0.0,0.0,0.0,0.0,0.0,0.0,0.0,0.0,0.0,0.0,0.0,0.0,0.0,0.0,0.0,0.0,0.0,0.0,0.0,0.0,0.0,0.0,0.0,0.0,0.0,0.0,0.0,0.0,0.0,0.0,0.0,0.0,0.0,0.0,0.0,0.0,0.0,0.0,0.0,0.0,0.0,0.0,0.0,0.0,0.0,0.0,0.0,0.0,0.0,0.0,0.0,0.0,0.0,0.0,0.0,0.0,0.0,0.0,0.0,0.0,0.0,0.0,0.0,0.0,0.0,0.0,0.0,0.0,0.0,0.0,0.0,0.0,0.0,0.0,0.0,0.0,0.0,0.0,0.0,0.0,0.0,0.0,0.0,0.0,0.0,0.0,0.0,0.0,0.0,0.0,0.0,0.0,0.0,0.0,0.0,0.0,0.0,0.0,0.0,0.0,0.0,0.0,0.0,0.0,0.0,0.0,0.0,0.0,0.0,0.0,0.0,0.0,0.0,0.0,0.0,0.0,0.0,0.0,0.0,0.0,0.0,0.0,0.0,0.0,0.0,0.0,0.0,0.0,0.0,0.0,0.0,0.0,0.0,0.0,0.0,0.0,0.0,0.0,0.0,0.0,0.0,0.0,0.0,0.0,0.0,0.0,0.0,0.0,0.0,0.0,0.0,0.0,0.0,0.0,0.0,0.0,0.0,0.0,0.0,0.0,0.0,0.0,0.0,0.0,0.0,0.0,0.0,0.0,0.0,0.0,0.0,0.0,0.0,0.0,0.0,0.0,0.0,0.0,0.0,0.0,0.0,0.0,0.0,0.0,0.0,0.0,0.0,0.0,0.0,0.0,0.0,0.0,0.0,0.0,0.0,0.0,0.0,0.0,0.0,0.0,0.0,0.0,0.0,0.0,0.0,0.0,0.0,0.0,0.0,0.0,0.0,0.0,0.0,0.0,0.0,0.0,0.0,0.0,0.0,0.0,0.0,0.0,0.0,0.0,0.0,0.0,0.0,0.0,0.0,0.0,0.0,0.0,0.0,0.0,0.0,0.0,0.0,0.0,0.0,0.0,0.0,0.0,0.0,0.0,0.0,0.0,0.0,0.0,0.0,0.0,0.0,0.0,0.0,0.0,0.0,0.0,0.0,0.0,0.0,0.0,0.0,0.0,0.0,0.0,0.0,0.0,0.0,0.0,0.0,0.0,0.0,0.0,0.0,0.0,0.0,0.0,0.0,0.0,0.0,0.0,0.0,0.0,0.0,0.0,0.0,0.0,0.0,0.0,0.0,0.0,0.0,0.0,0.0,0.0,0.0,0.0,0.0,0.0,0.0,0.0,0.0,0.0,0.0,0.0,0.0,0.0,0.0,0.0,0.0,0.0,0.0,0.0,0.0,0.0,0.0,0.0,0.0,0.0,0.0,0.0,0.0,0.0,0.0,0.0,0.0,0.0,0.0,0.0,0.0,0.0,0.0,0.0,0.0,0.0,0.0,0.0,0.0,0.0,0.0,0.0,0.0,0.0,0.0,0.0,0.0,0.0,0.0,0.0,0.0,0.0,0.0,0.0,0.0,0.0,0.0,0.0,0.0,0.0,0.0,0.0,0.0,0.0,0.0,0.0,0.0,0.0,0.0,0.0,0.0,0.0,0.0,0.0,0.0,0.0,0.0,0.0,0.0,0.0,0.0,0.0,0.0,0.0,0.0,0.0,0.0,0.0,0.0,0.0,0.0,0.0,0.0,0.0,0.0,0.0,0.0,0.0,0.0,0.0,0.0,0.0,0.0,0.0,0.0,0.0,0.0,0.0,0.0,-0.7988,0.0,0.0,0.0,0.0,0.0,0.0,0.0,0.0,0.0,0.0,0.0,0.0,0.0,0.0,0.0,0.0,0.0,0.0,0.0,0.0,0.0,0.0,0.0,0.0,0.0,0.0,0.0,0.0,0.0,0.0,0.0,0.0,0.0,0.0,0.0,0.0,0.0,0.0,0.0,0.0,0.0,0.0,0.0,0.0,0.0,0.0,0.0,0.0,0.0,0.0,0.0,0.0,0.0,0.0,0.0,0.0,0.0,0.0,0.0,0.0,0.0,0.0,0.0,0.0,0.0,0.0,0.0,0.0,0.0,0.0,0.0,0.0,0.0,0.0,0.0,0.0,0.0,0.0,0.0,0.0,0.0,0.0,0.0,0.0,0.0,0.0,0.0,0.0,0.0,0.0,0.0,0.0,0.0,0.0,0.0,0.0,0.0,0.0,0.0,0.0,0.0,0.0,0.0,0.0,0.0,0.0,0.0,0.0,0.0,0.0,-0.764,-0.7793,-0.7793,-0.7842,-0.7988,0.0,0.0,0.0,0.0,0.0,0.0,0.0,0.0,0.0,0.0,0.0,0.0,0.0,0.0,0.0,0.0,0.0,0.0,0.0,0.0,0.0,0.0,0.0,0.0,0.0,0.0,0.0,0.0,0.0,0.0,0.0,0.0,0.0,0.0,0.0,0.0,0.0,0.0,0.0,0.0,0.0,0.0,0.0,0.0,0.0,0.0,0.0,0.0,0.0,0.0,0.0,0.0,0.0,0.0,0.0,0.0,0.0,0.0,0.0,0.0,0.0,0.0,0.0,0.0,0.0,0.0,0.0,0.0,0.0,0.0,0.0,0.0,0.0,0.0,0.0,0.0,0.0,0.0,0.0,0.0,0.0,0.0,0.0,0.0,0.0,0.0,0.0,0.0,0.0,0.0,0.0,0.0,0.0,0.0,0.0,0.0,0.0,0.0,0.0,0.0,0.0,0.0,0.0,0.0,0.0,0.0,0.0,0.0,0.0,0.0,0.0,0.0,-0.7497,-0.7646,-0.7889,0.0,0.0,0.0,0.0,0.0,0.0,0.0,0.0,0.0,0.0,0.0,0.0,0.0,0.0,0.0,0.0,0.0,0.0,0.0,0.0,0.0,0.0,0.0,0.0,0.0,0.0,0.0,0.0,0.0,0.0,0.0,0.0,0.0,0.0,0.0,0.0,0.0,0.0,0.0,0.0,0.0,0.0,0.0,0.0,0.0,0.0,0.0,0.0,0.0,0.0,0.0,0.0,0.0,0.0,0.0,0.0,0.0,0.0,0.0,0.0,0.0,0.0,0.0,0.0,0.0,0.0,0.0,0.0,0.0,0.0,0.0,0.0,0.0,0.0,0.0,0.0,0.0,0.0,0.0,0.0,0.0,0.0,0.0,0.0,0.0,0.0,0.0,0.0,0.0,0.0,0.0,0.0,0.0,0.0,0.0,0.0,0.0,0.0,0.0,0.0,0.0,0.0,0.0,0.0,0.0,0.0,0.0,0.0,0.0,0.0,-0.6845,-0.6895,-0.7092,0.0,-0.7643,0.0,0.0,0.0,0.0,0.0,0.0,0.0,0.0,0.0,0.0,0.0,0.0,0.0,0.0,0.0,0.0,0.0,0.0,0.0,0.0,0.0,0.0,0.0,0.0,0.0,0.0,0.0,0.0,0.0,0.0,0.0,0.0,0.0,0.0,0.0,0.0,0.0,0.0,0.0,0.0,0.0,0.0,0.0,0.0,0.0,0.0,0.0,0.0,0.0,0.0,0.0,0.0,0.0,0.0,0.0,0.0,0.0,0.0,0.0,0.0,0.0,0.0,0.0,0.0,0.0,0.0,0.0,0.0,0.0,0.0,0.0,0.0,0.0,0.0,0.0,0.0,0.0,0.0,0.0,0.0,0.0,0.0,0.0,0.0,0.0,0.0,0.0,0.0,0.0,0.0,0.0,0.0,0.0,0.0,0.0,0.0,0.0,0.0,0.0,0.0,0.0,0.0,0.0,0.0,0.0,0.0,0.0,0.0,0.0,0.0,-0.5942,-0.6087,-0.6689,-0.7194,0.0,0.0,0.0,0.0,0.0,0.0,0.0,0.0,0.0,0.0,0.0,0.0,0.0,0.0,0.0,0.0,0.0,0.0,0.0,0.0,0.0,0.0,0.0,0.0,0.0,0.0,0.0,0.0,0.0,0.0,0.0,0.0,0.0,0.0,0.0,0.0,0.0,0.0,0.0,0.0,0.0,0.0,0.0,0.0,0.0,0.0,0.0,0.0,0.0,0.0,0.0,0.0,0.0,0.0,0.0,0.0,0.0,0.0,0.0,0.0,0.0,0.0,0.0,0.0,0.0,0.0,0.0,0.0,0.0,0.0,0.0,0.0,0.0,0.0,0.0,0.0,0.0,0.0,0.0,0.0,0.0,0.0,0.0,0.0,0.0,0.0,0.0,0.0,0.0,0.0,0.0,0.0,0.0,0.0,0.0,0.0,0.0,0.0,0.0,0.0,0.0,0.0,0.0,0.0,0.0,0.0,0.0,0.0,0.0,0.0,-0.4686,-0.5087,-0.5486,-0.6192,-0.6828,-0.7338,0.0,0.0,0.0,0.0,0.0,0.0,0.0,0.0,0.0,0.0,0.0,0.0,0.0,0.0,0.0,0.0,0.0,0.0,0.0,0.0,0.0,0.0,0.0,0.0,0.0,0.0,0.0,0.0,0.0,0.0,0.0,0.0,0.0,0.0,0.0,0.0,0.0,0.0,0.0,0.0,0.0,0.0,0.0,0.0,0.0,0.0,0.0,0.0,0.0,0.0,0.0,0.0,0.0,0.0,0.0,0.0,0.0,0.0,0.0,0.0,0.0,0.0,0.0,0.0,0.0,0.0,0.0,0.0,0.0,0.0,0.0,0.0,0.0,0.0,0.0,0.0,0.0,0.0,0.0,0.0,0.0,0.0,0.0,0.0,0.0,0.0,0.0,0.0,0.0,0.0,0.0,0.0,0.0,0.0,0.0,0.0,0.0,0.0,0.0,0.0,0.0,0.0,0.0,0.0,0.0,0.0,0.0,0.0,-0.3281,-0.3783,-0.4437,-0.519,-0.5741,-0.6189,0.0,0.0,0.0,0.0,0.0,0.0,0.0,0.0,0.0,0.0,0.0,0.0,0.0,0.0,0.0,0.0,0.0,0.0,0.0,0.0,0.0,0.0,0.0,0.0,0.0,0.0,0.0,0.0,0.0,0.0,0.0,0.0,0.0,0.0,0.0,0.0,0.0,0.0,0.0,0.0,0.0,0.0,0.0,0.0,0.0,0.0,0.0,0.0,0.0,0.0,0.0,0.0,0.0,0.0,0.0,0.0,0.0,0.0,0.0,0.0,0.0,0.0,0.0,0.0,0.0,0.0,0.0,0.0,0.0,0.0,0.0,0.0,0.0,0.0,0.0,0.0,0.0,0.0,0.0,0.0,0.0,0.0,0.0,0.0,0.0,0.0,0.0,0.0,0.0,0.0,0.0,0.0,0.0,0.0,0.0,0.0,0.0,0.0,0.0,0.0,0.0,0.0,0.0,0.0,0.0,0.0,0.0,0.0,0.0,-0.2169,-0.2723,-0.3429,-0.4384,-0.4788,-0.5343,0.0,0.0,0.0,0.0,0.0,0.0,0.0,0.0,0.0,0.0,0.0,0.0,0.0,0.0,0.0,0.0,0.0,0.0,0.0,0.0,0.0,0.0,0.0,0.0,0.0,0.0,0.0,0.0,0.0,0.0,0.0,0.0,0.0,0.0,0.0,0.0,0.0,0.0,0.0,0.0,0.0,0.0,0.0,0.0,0.0,0.0,0.0,0.0,0.0,0.0,0.0,0.0,0.0,0.0,0.0,0.0,0.0,0.0,0.0,0.0,0.0,0.0,0.0,0.0,0.0,0.0,0.0,0.0,0.0,0.0,0.0,0.0,0.0,0.0,0.0,0.0,0.0,0.0,0.0,0.0,0.0,0.0,0.0,0.0,0.0,0.0,0.0,0.0,0.0,0.0,0.0,0.0,0.0,0.0,0.0,0.0,0.0,0.0,0.0,0.0,0.0,0.0,0.0,0.0,0.0,0.0,0.0,0.0,0.0,-0.1463,0.0,-0.2623,-0.3581,-0.4034,-0.4746,0.0,0.0,0.0,0.0,0.0,0.0,0.0,0.0,0.0,0.0,0.0,0.0,0.0,0.0,0.0,0.0,0.0,0.0,0.0,0.0,0.0,0.0,0.0,0.0,0.0,0.0,0.0,0.0,0.0,0.0,0.0,0.0,0.0,0.0,0.0,0.0,0.0,0.0,0.0,0.0,0.0,0.0,0.0,0.0,0.0,0.0,0.0,0.0,0.0,0.0,0.0,0.0,0.0,0.0,0.0,0.0,0.0,0.0,0.0,0.0,0.0,0.0,0.0,0.0,0.0,0.0,0.0,0.0,0.0,0.0,0.0,0.0,0.0,0.0,0.0,0.0,0.0,0.0,0.0,0.0,0.0,0.0,0.0,0.0,0.0,0.0,0.0,0.0,0.0,0.0,0.0,0.0,0.0,0.0,0.0,0.0,0.0,0.0,0.0,0.0,0.0,0.0,0.0,0.0,0.0,0.0,0.0,0.0,-0.091,-0.1162,-0.1465,-0.1969,-0.2775,-0.353,-0.4397,0.0,0.0,0.0,0.0,0.0,0.0,0.0,0.0,0.0,0.0,0.0,0.0,0.0,0.0,0.0,0.0,0.0,0.0,0.0,0.0,0.0,0.0,0.0,0.0,0.0,0.0,0.0,0.0,0.0,0.0,0.0,0.0,0.0,0.0,0.0,0.0,0.0,0.0,0.0,0.0,0.0,0.0,0.0,0.0,0.0,0.0,0.0,0.0,0.0,0.0,0.0,0.0,0.0,0.0,0.0,0.0,0.0,0.0,0.0,0.0,0.0,0.0,0.0,0.0,0.0,0.0,0.0,0.0,0.0,0.0,0.0,0.0,0.0,0.0,0.0,0.0,0.0,0.0,0.0,0.0,0.0,0.0,0.0,0.0,0.0,0.0,0.0,0.0,0.0,0.0,0.0,0.0,0.0,0.0,0.0,0.0,0.0,0.0,0.0,0.0,0.0,0.0,0.0,0.0,0.0,0.0,0.0,0.0,0.0,-0.0657,-0.0707,-0.1162,-0.1969,-0.2573,-0.3349,0.0,0.0,0.0,0.0,0.0,0.0,0.0,0.0,0.0,0.0,0.0,0.0,0.0,0.0,0.0,0.0,0.0,0.0,0.0,0.0,0.0,0.0,0.0,0.0,0.0,0.0,0.0,0.0,0.0,0.0,0.0,0.0,0.0,0.0,0.0,0.0,0.0,0.0,0.0,0.0,0.0,0.0,0.0,0.0,0.0,0.0,0.0,0.0,0.0,0.0,0.0,0.0,0.0,0.0,0.0,0.0,0.0,0.0,0.0,0.0,0.0,0.0,0.0,0.0,0.0,0.0,0.0,0.0,0.0,0.0,0.0,0.0,0.0,0.0,0.0,0.0,0.0,0.0,0.0,0.0,0.0,0.0,0.0,0.0,0.0,0.0,0.0,0.0,0.0,0.0,0.0,0.0,0.0,0.0,0.0,0.0,0.0,0.0,0.0,0.0,0.0,0.0,0.0,0.0,0.0,0.0,0.0,0.0,0.0,-0.0258,-0.0361,-0.0722,-0.1495,-0.1996,-0.2737,-0.3806,0.0,0.0,0.0,0.0,0.0,0.0,0.0,0.0,0.0,0.0,0.0,0.0,0.0,0.0,0.0,0.0,0.0,0.0,0.0,0.0,0.0,0.0,0.0,0.0,0.0,0.0,0.0,0.0,0.0,0.0,0.0,0.0,0.0,0.0,0.0,0.0,0.0,0.0,0.0,0.0,0.0,0.0,0.0,0.0,0.0,0.0,0.0,0.0,0.0,0.0,0.0,0.0,0.0,0.0,0.0,0.0,0.0,0.0,0.0,0.0,0.0,0.0,0.0,0.0,0.0,0.0,0.0,0.0,0.0,0.0,0.0,0.0,0.0,0.0,0.0,0.0,0.0,0.0,0.0,0.0,0.0,0.0,0.0,0.0,0.0,0.0,0.0,0.0,0.0,0.0,0.0,0.0,0.0,0.0,0.0,0.0,0.0,0.0,0.0,0.0,0.0,0.0,0.0,0.0,0.0,0.0,0.0,0.0,0.0053,-0.0214,-0.0641,-0.1224,-0.1728,-0.249,0.0,0.0,0.0,0.0,0.0,0.0,0.0,0.0,0.0,0.0,0.0,0.0,0.0,0.0,0.0,0.0,0.0,0.0,0.0,0.0,0.0,0.0,0.0,0.0,0.0,0.0,0.0,0.0,0.0,0.0,0.0,0.0,0.0,0.0,0.0,0.0,0.0,0.0,0.0,0.0,0.0,0.0,0.0,0.0,0.0,0.0,0.0,0.0,0.0,0.0,0.0,0.0,0.0,0.0,0.0,0.0,0.0,0.0,0.0,0.0,0.0,0.0,0.0,0.0,0.0,0.0,0.0,0.0,0.0,0.0,0.0,0.0,0.0,0.0,0.0,0.0,0.0,0.0,0.0,0.0,0.0,0.0,0.0,0.0,0.0,0.0,0.0,0.0,0.0,0.0,0.0,0.0,0.0,0.0,0.0,0.0,0.0,0.0,0.0,0.0,0.0,0.0,0.0,0.0,0.0,0.0,0.0,0.0,0.0,0.0664,0.0336,-0.0055,-0.0641,-0.1167,-0.1892,0.0,0.0,0.0,0.0,0.0,0.0,0.0,0.0,0.0,0.0,0.0,0.0,0.0,0.0,0.0,0.0,0.0,0.0,0.0,0.0,0.0,0.0,0.0,0.0,0.0,0.0,0.0,0.0,0.0,0.0,0.0,0.0,0.0,0.0,0.0,0.0,0.0,0.0,0.0,0.0,0.0,0.0,0.0,0.0,0.0,0.0,0.0,0.0,0.0,0.0,0.0,0.0,0.0,0.0,0.0,0.0,0.0,0.0,0.0,0.0,0.0,0.0,0.0,0.0,0.0,0.0,0.0,0.0,0.0,0.0,0.0,0.0,0.0,0.0,0.0,0.0,0.0,0.0,0.0,0.0,0.0,0.0,0.0,0.0,0.0,0.0,0.0,0.0,0.0,0.0,0.0,0.0,0.0,0.0,0.0,0.0,0.0,0.0,0.0,0.0,0.0,0.0,0.0,0.0,0.0,0.0,0.0,0.0,0.1205,0.1133,0.0915,0.0624,0.0165,-0.0547,-0.1291,0.0,0.0,0.0,0.0,0.0,0.0,0.0,0.0,0.0,0.0,0.0,0.0,0.0,0.0,0.0,0.0,0.0,0.0,0.0,0.0,0.0,0.0,0.0,0.0,0.0,0.0,0.0,0.0,0.0,0.0,0.0,0.0,0.0,0.0,0.0,0.0,0.0,0.0,0.0,0.0,0.0,0.0,0.0,0.0,0.0,0.0,0.0,0.0,0.0,0.0,0.0,0.0,0.0,0.0,0.0,0.0,0.0,0.0,0.0,0.0,0.0,0.0,0.0,0.0,0.0,0.0,0.0,0.0,0.0,0.0,0.0,0.0,0.0,0.0,0.0,0.0,0.0,0.0,0.0,0.0,0.0,0.0,0.0,0.0,0.0,0.0,0.0,0.0,0.0,0.0,0.0,0.0,0.0,0.0,0.0,0.0,0.0,0.0,0.0,0.0,0.0,0.0,0.0,0.0,0.0,0.0,0.0,0.0,0.1891,0.1612,0.1556,0.1383,0.0979,0.0113,-0.0775,0.0,0.0,0.0,0.0,0.0,0.0,0.0,0.0,0.0,0.0,0.0,0.0,0.0,0.0,0.0,0.0,0.0,0.0,0.0,0.0,0.0,0.0,0.0,0.0,0.0,0.0,0.0,0.0,0.0,0.0,0.0,0.0,0.0,0.0,0.0,0.0,0.0,0.0,0.0,0.0,0.0,0.0,0.0,0.0,0.0,0.0,0.0,0.0,0.0,0.0,0.0,0.0,0.0,0.0,0.0,0.0,0.0,0.0,0.0,0.0,0.0,0.0,0.0,0.0,0.0,0.0,0.0,0.0,0.0,0.0,0.0,0.0,0.0,0.0,0.0,0.0,0.0,0.0,0.0,0.0,0.0,0.0,0.0,0.0,0.0,0.0,0.0,0.0,0.0,0.0,0.0,0.0,0.0,0.0,0.0,0.0,0.0,0.0,0.0,0.0,0.0,0.0,0.0,0.0,0.0,0.0,0.0,0.0,0.3075,0.2925,0.2635,0.2226,0.17,0.0519,-0.0338,0.0,0.0,0.0,0.0,0.0,0.0,0.0,0.0,0.0,0.0,0.0,0.0,0.0,0.0,0.0,0.0,0.0,0.0,0.0,0.0,0.0,0.0,0.0,0.0,0.0,0.0,0.0,0.0,0.0,0.0,0.0,0.0,0.0,0.0,0.0,0.0,0.0,0.0,0.0,0.0,0.0,0.0,0.0,0.0,0.0,0.0,0.0,0.0,-0.0999,0.0,0.0,0.0,0.0,0.0,0.0,0.0,0.0,0.0,0.0,0.0,0.0,0.0,0.0,0.0,0.0,0.0,0.0,0.0,0.0,0.0,0.0,0.0,0.0,0.0,0.0,0.0,0.0,0.0,0.0,0.0,0.0,0.0,0.0,0.0,0.0,0.0,0.0,0.0,0.0,0.0,0.0,0.0,0.0,0.0,0.0,0.0,0.0,0.0,0.0,0.0,0.0,0.0,0.0,0.0,0.0,0.0,0.0,0.0,0.4322,0.3996,0.3792,0.3379,0.2592,0.1635,0.0627,0.0,0.0,0.0,0.0,0.0,0.0,0.0,0.0,0.0,0.0,0.0,0.0,0.0,0.0,0.0,0.0,0.0,0.0,0.0,0.0,0.0,0.0,0.0,0.0,0.0,0.0,0.0,0.0,0.0,0.0,0.0,0.0,0.0,0.0,0.0,0.0,0.0,0.0,0.0,0.0,0.0,0.0,0.0,0.0,0.0,0.0,0.0,0.0,0.0,0.0,0.0,0.0,0.0,0.0,0.0,0.0,0.0,0.0,0.0,0.0,0.0,0.0,0.0,0.0,0.0,0.0,0.0,0.0,0.0,0.0,0.0,0.0,0.0,0.0,0.0,0.0,0.0,0.0,0.0,0.0,0.0,0.0,0.0,0.0,0.0,0.0,0.0,0.0,0.0,0.0,0.0,0.0,0.0,0.0,0.0,0.0,0.0,0.0,0.0,0.0,0.0,0.0,0.0,0.0,0.0,0.0,0.0,0.5706,0.5553,0.4998,0.5074,0.4599,0.3533,0.3001,0.1955,0.0438,0.0,0.0,0.0,0.0,0.0,0.0,0.0,0.0,0.0,0.0,0.0,0.0,0.0,0.0,0.0,0.0,0.0,0.0,0.0,0.0,0.0,0.0,0.0,0.0,0.0,0.0,0.0,0.0,0.0,0.0,0.0,0.0,0.0,0.0,0.0,0.0,0.0,0.0,0.0468,0.0847,0.0,0.0,0.0,0.0,0.0,0.0,0.0,0.0,0.0807,0.0,0.0,0.0,0.0,0.0,0.0,0.0,0.0,0.0,0.0,0.0,0.0,0.0,0.0,0.0,0.0,0.0,0.0,0.0,0.0,0.0,0.0,0.0,0.0,0.0,0.0,0.0,0.0,0.0,0.0,0.0,0.0,0.0,0.0,0.0,0.0,0.0,0.0,0.0,0.0,0.0,0.0,0.0,0.0,0.0,0.0,0.0,0.0,0.0,0.0,0.0,0.0,0.0,0.0,0.0,0.0,0.654,0.6932,0.6822,0.6228,0.638,0.585,0.4534,0.4175,0.3335,0.1864,0.0,0.0,0.0,0.0,0.0,0.0,0.0,0.0,0.0,0.0,0.0,0.0,0.0,0.0,0.0,0.0,0.0,0.0,0.0,0.0,0.0,0.0,0.0,0.0,0.0,0.0,0.0,0.0,0.0,0.0,0.0,0.0,0.0,0.0,0.0,0.0,0.0,0.0,0.0,0.1454,0.1633,0.0,0.0,0.0,0.0,0.0,0.0,0.0,0.0,0.1106,0.0,0.0,0.0,0.0,0.0,0.0,0.0,0.0,0.0,0.0,0.0,0.0,0.0,0.0,0.0,0.0,0.0,0.0,0.0,0.0,0.0,0.0,0.0,0.0,0.0,0.0,0.0,0.0,0.0,0.0,0.0,0.0,0.0,0.0,0.0,0.0,0.0,0.0,0.0,0.0,0.0,0.0,0.0,0.0,0.0,0.0,0.0,0.0,0.0,0.0,0.0,0.0,0.0,0.0,0.0,0.7193,0.7662,0.7687,0.7285,0.7332,0.6858,0.571,0.5114,0.4238,0.0,0.0,0.0,0.0,0.0,0.0,0.0,0.0,0.0,0.0,0.0,0.0,0.0,0.0,0.0,0.0,0.0,0.0,0.0,0.0,0.0,0.0,0.0,0.0,0.0,0.0,0.0,0.0,0.0,0.0,0.0,0.0,0.0,0.0,0.0,0.0,0.0,0.0,0.0,0.0,0.2484,0.2814,0.2893,0.0,0.0,0.0,0.0,0.0,0.0,0.2659,0.2288,0.0,0.0,0.0,0.0,0.0,0.0,0.0,0.0,0.0,0.0,0.0,0.0,0.0,0.0,0.0,0.0,0.0,0.0,0.0,0.0,0.0,0.0,0.0,0.0,0.0,0.0,0.0,0.0,0.0,0.0,0.0,0.0,0.0,0.0,0.0,0.0,0.0,0.0,0.0,0.0,0.0,0.0,0.0,0.0,0.0,0.0,0.0,0.0,0.0,0.0,0.0,0.0,0.0,0.0,0.0,0.7768,0.8342,0.8445,0.8166,0.8168,0.7758,0.6825,0.5992,0.5076,0.0,0.0,0.0,0.0,0.0,0.0,0.0,0.0,0.0,0.0,0.0,0.0,0.0,0.0,0.0,0.0,0.0,0.0,0.0,0.0,0.0,0.0,0.0,0.0,0.0,0.0,0.0,0.0,0.0,0.0,0.0,0.0,0.0,0.0,0.0,0.0,0.0,0.0,0.0,0.0,0.0,0.4103,0.4223,0.4304,0.0,0.0,0.0,0.0,0.433,0.3959,0.0,0.0,0.0,0.0,0.0,0.0,0.0,0.0,0.0,0.0,0.0,0.0,0.0,0.0,0.0,0.0,0.0,0.0,0.0,0.0,0.0,0.0,0.0,0.0,0.0,0.0,0.0,0.0,0.0,0.0,0.0,0.0,0.0,0.0,0.0,0.0,0.0,0.0,0.0,0.0,0.0,0.0,0.0,0.0,0.0,0.0,0.0,0.0,0.0,0.0,0.0,0.0,0.0,0.0,0.0,0.0,0.8401,0.8963,0.9149,0.8813,0.9014,0.8603,0.7529,0.7105,0.6152,0.0,0.0,0.0,0.0,0.0,0.0,0.0,0.0,0.0,0.0,0.0,0.0,0.0,0.0,0.0,0.0,0.0,0.0,0.0,0.0,0.0,0.0,0.0,0.0,0.0,0.0,0.0,0.0,0.0,0.0,0.0,0.0,0.0,0.0,0.0,0.0,0.0,0.0,0.0,0.0,0.0,0.5368,0.5514,0.5596,0.5672,0.0,0.0,0.5672,0.5744,0.515,0.0,0.0,0.0,0.0,0.0,0.0,0.0,0.0,0.0,0.0,0.0,0.0,0.0,0.0,0.0,0.0,0.0,0.0,0.0,0.0,0.0,0.0,0.0,0.0,0.0,0.0,0.0,0.0,0.0,0.0,0.0,0.0,0.0,0.0,0.0,0.0,0.0,0.0,0.0,0.0,0.0,0.0,0.0,0.0,0.0,0.0,0.0,0.0,0.0,0.0,0.0,0.0,0.0,0.0,0.0,0.8609,0.8976,0.9581,0.9841,0.9678,0.9789,0.95,0.8632,0.8083,0.7102,0.0,0.0,0.0,0.0,0.0,0.0,0.0,0.0,0.0,0.0,0.0,0.0,0.0,0.0,0.0,0.0,0.0,0.0,0.0,0.0,0.0,0.0,0.0,0.0,0.0,0.0,0.0,0.0,0.0,0.0,0.0,0.0,0.0,0.0,0.0,0.0,0.0,0.0,0.0,0.0,0.0,0.0,0.6996,0.7131,0.0,0.0,0.0,0.6874,0.6671,0.0,0.0,0.0,0.0,0.0,0.0,0.0,0.0,0.0,0.0,0.0,0.0,0.0,0.0,0.0,0.0,0.0,0.0,0.0,0.0,0.0,0.0,0.0,0.0,0.0,0.0,0.0,0.0,0.0,0.0,0.0,0.0,0.0,0.0,0.0,0.0,0.0,0.0,0.0,0.0,0.0,0.0,0.0,0.0,0.0,0.0,0.0,0.0,0.0,0.0,0.0,0.0,0.0,0.0,0.0,0.0,0.0,0.9545,1.0196,1.0532,1.0539,1.0617,1.0337,0.962,0.909,0.0,0.0,0.0,0.0,0.0,0.0,0.0,0.0,0.0,0.0,0.0,0.0,0.0,0.0,0.0,0.0,0.0,0.0,0.0,0.0,0.0,0.0,0.0,0.0,0.0,0.0,0.0,0.1958,0.0,0.0,0.0,0.0,0.0,0.0,0.0,0.0,0.0,0.0,0.0,0.0,0.0,0.0,0.7641,0.8251,0.8392,0.8391,0.0,0.0,0.8114,0.7772,0.7335,0.7024,0.0,0.0,0.0,0.0,0.0,0.0,0.0,0.0,0.0,0.0,0.0,0.0,0.0,0.0,0.0,0.0,0.0,0.0,0.0,0.0,0.0,0.0,0.0,0.0,0.0,0.0,0.0,0.0,0.0,0.0,0.0,0.0,0.0,0.0,0.0,0.0,0.0,0.0,0.0,0.0,0.0,0.0,0.0,0.0,0.0,0.0,0.0,0.0,0.0,0.0,0.0,0.0,0.0,0.0,0.9674,1.0128,1.0807,1.1162,1.1174,1.1514,1.1228,1.0258,1.0174,0.936,0.0,0.0,0.0,0.0,0.0,0.0,0.0,0.0,0.0,0.0,0.0,0.0,0.0,0.0,0.0,0.0,0.0,0.0,0.0,0.0,0.0,0.0,0.0,0.0,0.0,0.0,0.0,0.0,0.0,0.0,0.0,0.0,0.0,0.0,0.0,0.0,0.0,0.0,0.0,0.0,0.0,0.8467,0.8992,0.9154,0.9285,0.0,0.9379,0.9373,0.9364,0.8834,0.8437,0.8291,0.0,0.0,0.0,0.0,0.0,0.0,0.0,0.0,0.0,0.0,0.0,0.0,0.0,0.0,0.0,0.0,0.0,0.0,0.0,0.0,0.0,0.0,0.0,0.0,0.0,0.0,0.0,0.0,0.0,0.0,0.0,0.0,0.0,0.0,0.0,0.0,0.0,0.0,0.0,0.0,0.0,0.0,0.0,0.0,0.0,0.0,0.0,0.0,0.0,0.0,0.0,0.0,0.0,1.0474,1.12,1.1975,1.2373,1.2391,1.2758,1.2535,1.175,1.146,1.0659,0.0,0.0,0.0,0.0,0.0,0.0,0.0,0.0,0.0,0.0,0.0,0.0,0.0,0.0,0.0,0.0,0.0,0.0,0.0,0.0,0.0,0.0,0.0,0.0,0.0,0.0,0.0,0.0,0.5245,0.5554,0.5996,0.0,0.0,0.0,0.0,0.0,0.0,0.0,0.0,0.0,0.0,0.9571,1.036,1.0489,0.0,0.0,1.0567,1.0467,1.0182,0.987,0.9597,0.9371,0.8692,0.0,0.0,0.0,0.0,0.0,0.0,0.0,0.0,0.0,0.0,0.0,0.0,0.0,0.0,0.0,0.0,0.0,0.0,0.0,0.0,0.0,0.0,0.0,0.0,0.0,0.0,0.0,0.0,0.0,0.0,0.0,0.0,0.0,0.0,0.0,0.0,0.0,0.0,0.0,0.0,0.0,0.0,0.0,0.0,0.0,0.0,0.0,0.0,0.0,0.0,0.0,0.0,1.1401,1.2282,1.3197,1.3635,1.364,1.406,1.3927,1.3274,1.2833,1.2046,0.0,0.0,0.0,0.0,0.0,0.0,0.0,0.0,0.0,0.0,0.0,0.0,0.0,0.0,0.0,0.0,0.0,0.0,0.0,0.0,0.0,0.0,0.0,0.0,0.0,0.0,0.0,0.0,0.6821,0.7177,0.7664,0.0,0.0,0.0,0.0,0.0,0.0,0.0,0.0,0.0,0.0,1.0602,1.1509,1.1601,1.166,1.1658,1.1707,1.16,1.1221,1.103,1.0822,1.0667,0.0,0.0,0.0,0.0,0.0,0.0,0.0,0.0,0.0,0.0,0.0,0.0,0.0,0.0,0.0,0.0,0.0,0.0,0.0,0.0,0.0,0.0,0.0,0.0,0.0,0.0,0.0,1.0872,0.0,0.0,1.0322,0.0,0.0,0.0,0.0,0.0,0.0,0.0,0.0,0.0,0.0,0.0,0.0,0.0,0.0,0.0,0.0,0.0,0.0,0.0,0.0,0.0,0.0,1.2506,1.348,1.4406,1.488,1.4896,1.5295,1.5296,1.475,1.424,1.3416,1.2173,0.0,0.0,0.0,0.0,0.0,0.0,0.0,0.0,0.0,0.0,0.0,0.0,0.0,0.0,0.0,0.0,0.0,0.0,0.0,0.0,0.0,0.0,0.0,0.0,0.0,0.0,0.787,0.8416,0.8859,0.0,0.0,0.0,0.0,0.0,0.0,0.0,0.0,0.0,1.1082,1.1162,1.148,1.2186,1.2284,1.241,1.2702,1.275,1.275,1.2742,1.2515,1.2284,0.0,0.0,0.0,0.0,0.0,0.0,0.0,0.0,0.0,0.0,0.0,0.0,0.0,0.0,0.0,0.0,0.0,0.0,0.0,0.0,0.0,0.0,0.0,0.0,0.0,0.0,0.0,1.3024,1.2921,0.0,0.0,0.0,0.0,0.0,0.0,0.0,0.0,0.0,0.0,0.0,1.505,1.5135,0.0,0.0,0.0,0.0,0.0,0.0,0.0,0.0,0.0,0.0,0.0,0.0,1.3582,1.4565,1.5542,1.6115,1.6121,1.6623,1.6704,1.6322,1.5733,1.4658,1.2899,0.0,0.0,0.0,0.0,0.0,0.0,0.0,0.0,0.0,0.0,0.0,0.0,0.0,0.0,0.0,0.0,0.0,0.0,0.0,0.0,0.0,0.0,0.0,0.0,0.0,0.9132,0.0,0.0,0.0,0.0,0.0,0.0,0.0,0.0,0.0,0.0,1.1389,1.1869,1.2354,1.2488,1.2718,1.3501,1.3618,1.3757,0.0,0.0,0.0,0.0,0.0,0.0,0.0,0.0,0.0,0.0,0.0,0.0,0.0,0.0,1.1865,1.0175,1.0029,1.0098,1.0098,0.0,0.0,0.0,0.0,0.0,0.0,0.0,0.0,0.0,0.0,0.0,0.0,0.0,0.0,1.496,1.4924,1.4551,0.0,0.0,0.0,0.0,0.0,0.0,0.0,0.0,1.6055,1.6529,1.7052,1.7151,1.7145,1.7083,1.681,1.5819,0.0,0.0,0.0,0.0,0.0,0.0,0.0,0.0,1.4845,1.5676,1.6788,1.734,1.7365,1.7829,1.8029,1.7886,1.7104,1.5875,1.4078,1.3095,1.1973,0.0,0.0,0.0,0.0,0.0,0.0,0.0,0.0,0.0,0.0,0.0,0.0,0.0,0.0,0.0,0.0,0.0,0.0,0.0,0.0,0.0,0.0,0.0,1.0751,0.0,0.0,0.0,0.0,0.0,0.0,0.0,0.0,0.0,1.2654,1.2718,1.3093,1.3675,1.3749,1.4004,1.4871,0.0,0.0,0.0,0.0,0.0,0.0,0.0,1.5381,1.5381,1.5319,1.5195,1.5202,1.5197,1.5237,1.5378,0.0,0.0,1.2405,1.2092,1.2175,1.2175,1.2367,1.2494,1.2494,1.317,1.3779,0.0,0.0,0.0,0.0,1.6934,0.0,0.0,0.0,1.6948,1.6934,0.0,1.6687,0.0,0.0,0.0,0.0,1.6573,1.6614,0.0,0.0,1.8106,1.853,1.9159,1.9443,1.9443,1.9152,1.878,1.8455,1.8036,1.6027,1.4799,0.0,0.0,0.0,0.0,0.0,1.6272,1.6797,1.7923,1.8568,1.8526,1.9082,1.9312,1.9265,1.8255,1.7109,1.5741,1.4906,1.3815,1.2345,1.1635,0.0,0.0,0.0,0.0,0.0,0.0,0.0,0.0,0.0,0.0,0.0,0.0,0.0,0.0,0.0,0.0,0.0,0.0,0.0,0.0,1.1762,0.0,0.0,0.0,0.0,0.0,0.0,0.0,0.0,0.0,1.4565,1.4132,1.4152,1.4407,1.4877,0.0,0.0,0.0,0.0,1.652,1.6996,1.7066,1.7071,1.7082,1.6893,1.6821,1.6832,0.0,0.0,1.7254,1.7298,1.7293,1.7298,1.7402,1.6951,1.5012,1.4538,1.4475,1.4475,1.4548,1.4529,1.4529,1.5074,1.5565,2.1618,0.0,0.0,0.0,0.0,1.9502,1.9687,1.9955,1.9717,1.9487,1.919,1.8964,0.0,0.0,0.0,0.0,0.0,0.0,1.9372,1.981,2.0355,2.0773,2.1163,2.1256,2.1248,2.1156,2.1056,2.0709,2.0181,1.9537,1.8125,1.6023,0.0,0.0,0.0,0.0,1.745,1.8217,1.9217,1.9621,1.9449,1.9991,1.9989,1.9396,1.8857,1.807,1.7052,1.6097,1.5095,1.4104,1.301,0.0,0.0,0.0,0.0,0.0,0.0,0.0,0.0,0.0,0.0,0.0,0.0,0.0,0.0,0.0,0.0,0.0,0.0,0.0,1.287,1.3483,1.3976,0.0,0.0,0.0,0.0,0.0,0.0,0.0,0.0,0.0,1.6245,1.5898,1.5797,0.0,0.0,1.6762,1.7594,1.7711,1.7898,1.8419,1.8489,0.0,1.8735,1.8771,1.8782,1.8964,1.8988,1.9017,1.9088,1.9105,1.9105,1.9105,1.9164,1.8996,1.841,1.75,1.6841,1.6847,1.6852,1.6852,1.6852,1.7374,1.7889,2.4179,2.2984,2.2138,2.1792,2.1811,2.1819,2.1948,2.2194,2.2038,2.1828,2.1603,2.1401,2.1111,2.078,2.078,0.0,0.0,0.0,2.1752,2.2079,2.2494,2.2825,2.3127,2.3127,2.3127,2.3127,2.2995,2.2708,2.2264,2.196,2.0901,1.9051,0.0,1.7893,1.8238,1.8514,1.8874,1.9454,2.0136,2.0465,2.0256,2.0641,2.0552,1.9892,1.9653,1.9217,1.8473,1.7666,1.6855,1.5896,1.4871,1.3793,0.0,0.0,0.0,0.0,0.0,0.0,0.0,0.0,0.0,0.0,0.0,1.0109,1.0448,0.0,0.0,0.0,1.303,1.3646,1.4501,1.4834,0.0,0.0,0.0,0.0,0.0,0.0,0.0,1.6477,1.6785,1.7126,1.73,1.7353,1.7272,1.7216,1.7382,1.7726,1.8587,0.0,1.8933,1.9524,1.9622,1.9779,2.0039,2.0088,2.0181,2.0446,2.049,2.0539,2.0638,2.065,2.065,2.065,2.065,2.0644,2.0644,1.9973,1.9213,1.8766,1.8592,1.8664,1.8597,1.9122,1.9517,2.6111,2.6021,2.4589,2.3946,2.3867,2.3867,2.3884,2.391,2.391,2.3893,2.3867,2.3867,2.3712,2.3393,2.3393,0.0,2.3824,2.385,2.4057,2.4464,2.449,2.4625,2.4944,2.4944,2.4944,2.4944,2.4608,2.4436,2.4367,2.3677,2.3134,2.2772,2.1164,2.02,2.007,2.0374,2.0508,2.0548,2.0936,2.1133,2.1135,2.1156,2.0994,2.0658,2.0643,2.0384,1.9843,1.946,1.8795,1.7773,1.6994,1.5985,1.4761,0.0,0.0,0.0,0.0,0.0,0.0,0.0,0.0,0.0,0.0,0.0,0.0,0.0,0.0,0.0,1.473,0.0,1.5663,1.5945,0.0,0.0,0.0,1.6796,1.6815,1.6821,1.6827,1.6847,0.0,0.0,1.7668,1.8417,1.8717,1.8186,1.8135,1.8416,1.9267,1.9395,1.9709,2.0451,2.0578,2.0687,2.104,2.1136,2.1245,2.1475,2.152,2.1603,2.1814,2.1872,2.1891,2.1865,2.1904,2.1885,2.1897,2.179,2.1532,2.0362,2.0075,2.0069,2.0093,2.0367,2.0641,2.7065,2.7056,2.6684,2.614,2.544,2.5431,2.5612,2.5928,2.5883,2.5711,2.544,2.544,2.5205,2.4878,2.4869,2.4923,2.5032,2.5296,2.5485,2.5603,2.5892,2.6127,2.6154,2.6154,2.6163,2.6154,2.6073,2.5874,2.5594,2.5386,2.514,2.4724,2.3991,2.2947,2.1556,2.1575,2.1661,2.1694,2.2099,2.22,2.2007,2.1826,2.1539,2.1246,2.1231,2.1021,2.0617,2.0272,1.9906,1.9472,1.8577,1.778,1.7112,1.6204,0.0,0.0,0.0,0.0,0.0,0.0,0.0,0.0,0.0,1.2957,1.3453,0.0,1.4256,0.0,1.5713,1.6149,1.6409,1.6714,0.0,0.0,1.7233,1.7463,1.7688,1.7721,1.78,1.8031,1.8178,1.8353,1.8572,1.8775,1.9028,1.9344,1.9351,1.9509,1.9932,2.0189,2.0615,2.1153,2.1305,2.1541,2.1958,2.2309,2.2462,2.2541,2.2548,2.2581,2.2647,2.2654,2.2654,2.2654,2.266,2.2654,2.2592,2.266,2.2552,2.2202,2.1761,2.1357,2.1357,2.1624,2.1829,2.7799,2.7809,2.7809,2.7514,2.7028,2.6761,2.673,2.6935,2.6926,2.6805,2.66,2.6654,2.6533,2.6309,2.63,2.6309,2.6318,2.6498,2.66,2.6609,2.6833,2.6935,2.6989,2.6935,2.6935,2.6935,2.6935,2.6823,2.66,2.6423,2.621,2.602,2.5442,2.4619,2.3624,2.3139,2.2909,2.2828,2.2791,2.2646,2.2424,2.2231,2.2081,2.1884,2.1876,2.1837,2.164,2.1435,2.1246,2.0916,2.0305,1.9764,1.9359,1.861,1.7993,0.0,0.0,0.0,0.0,0.0,0.0,0.0,0.0,0.0,0.0,0.0,1.5729,1.6259,1.6762,1.7101,1.7282,1.7475,1.7588,1.7767,1.7935,1.8056,1.8223,1.825,1.831,1.847,1.8604,1.8744,1.8905,1.9152,1.9426,1.9766,2.0027,2.0247,2.0401,2.0581,2.0929,2.1681,2.1744,2.1944,2.2525,2.2752,2.2866,2.2866,2.2866,2.2866,2.2866,2.2866,2.2866,2.2866,2.2866,2.2866,2.2866,2.2866,2.2866,2.2866,2.2592,2.2317,2.231,2.2448,2.2585,2.8301,2.8301,2.8301,2.8301,2.8237,2.7745,2.7539,2.7539,2.7539,2.7539,2.7485,2.753,2.7539,2.7539,2.753,2.7539,2.7584,2.7593,2.7593,2.7584,2.7647,2.7647,2.7638,2.7584,2.7593,2.7539,2.7539,2.7539,2.752,2.7178,2.7007,2.6969,2.6208,2.585,2.5733,2.4877,2.418,2.3728,2.3279,2.2878,2.2627,2.2627,2.2627,2.2627,2.2627,2.2627,2.2677,2.2677,2.2531,2.2195,2.1938,2.1669,2.1338,2.0783,2.0392,0.0,2.014,0.0,0.0,0.0,0.0,0.0,0.0,0.0,0.0,1.7237,1.7198,1.7345,1.785,1.8136,1.8083,1.8049,1.821,1.8457,1.8497,1.8504,1.8537,1.8544,1.8564,1.8604,1.8824,1.8985,1.9065,1.9486,1.98,1.9953,2.0334,2.0635,2.0728,2.0742,2.1049,2.1871,2.2051,2.2305,2.2719,2.2853,2.2866,2.2866,2.2866,2.2866,2.2866,2.2866,2.2866,2.2866,2.2866,2.2866,2.2866,2.2866,2.2928,2.2996,2.2928,2.2934,2.2859,2.2866,2.2866,2.8301,2.8301,2.8301,2.8301,2.8291,2.8408,2.8354,2.814,2.813,2.814,2.813,2.813,2.814,2.813,2.813,2.8247,2.8461,2.8461,2.8568,2.8761,2.8751,2.8804,2.8761,2.8558,2.8461,2.8408,2.8237,2.813,2.813,2.8053,2.8014,2.7995,2.7509,2.7091,2.6732,0.0,0.0,0.0,2.3728,2.3438,2.3247,2.3247,2.3247,2.3247,2.3247,0.0,2.3479,2.3479,2.3443,2.3363,2.3086,0.0,0.0,0.0,0.0,0.0,0.0,0.0,0.0,0.0,0.0,0.0,2.0589,1.9883,1.8938,1.8844,1.8646,1.8297,1.8523,1.8611,1.8459,1.8404,1.843,1.8484,1.8497,1.8584,1.8811,1.8838,1.8925,1.9229,1.9252,1.9372,1.9579,1.974,1.998,2.0408,2.067,2.0768,2.0989,2.1009,2.1269,2.1877,2.2412,2.2774,2.2846,2.2866,2.2866,2.2866,2.2866,2.2866,2.2866,2.2866,2.2934,2.2934,2.2866,2.2934,2.2934,2.2866,2.2996,2.327,2.3338,2.3201,2.2934,2.2934,2.2866,2.8708,2.8717,2.8708,2.8708,0.0,2.9036,2.9079,2.893,2.8771,2.8708,2.8708,2.8708,2.8708,2.8717,2.8717,2.8877,2.9142,2.9142,2.93,2.9511,2.9564,2.9564,2.9511,2.9248,2.9152,2.9142,2.8824,2.8708,2.8708,2.8568,2.8514,2.8451,2.7976,2.7611,2.7324,2.6709,2.5815,2.4686,2.443,2.4242,2.4143,2.4143,2.4143,2.4143,2.4143,0.0,0.0,0.0,0.0,0.0,0.0,0.0,0.0,2.3542,0.0,2.3384,2.3247,2.3044,2.2801,2.281,2.2686,2.2475,2.2273,2.1514,1.9975,1.9813,1.9545,1.9007,1.905,1.9036,1.874,1.8704,1.8758,1.8898,1.8925,1.8991,1.9118,1.9138,1.9205,1.9383,1.9424,1.9531,1.9766,1.9933,2.0187,2.0608,2.0802,2.0935,2.1069,2.1102,2.1323,2.1904,2.2478,2.2853,2.2866,2.2866,2.2866,2.2866,2.2866,2.2866,2.2866,2.2866,2.2928,2.314,2.3133,2.3201,2.3406,2.3475,2.355,2.3823,2.3952,2.3952,2.3884,2.3686,2.3482,2.9237,2.9237,2.929,2.9237,2.929,2.9649,2.9869,2.9921,2.9448,0.0,0.0,2.9237,2.9237,2.9237,2.9248,2.9448,2.9816,2.9816,2.9984,3.0297,3.0297,3.0297,3.0256,2.9973,2.9816,2.9816,2.9448,2.9248,2.9237,2.8983,2.8834,2.8794,2.8213,2.7862,2.7665,2.68,2.6035,2.545,2.5128,2.4932,2.4883,2.4892,2.4892,2.4892,2.4892,2.4932,2.4981,2.4981,2.499,2.499,2.499,2.4932,2.4883,2.4892,2.4892,2.4892,2.4892,2.4686,2.4282,2.4183,2.4022,2.3595,2.3287,2.2434,2.0854,2.0598,2.0241,1.9692,1.959,1.9403,1.9085,1.8998,1.9098,1.9403,1.9424,1.9417,1.9424,1.9424,1.9417,1.9424,1.9424,1.9499,1.9846,2.008,2.0368,2.0702,2.1011,2.1235,2.1249,2.135,2.147,2.1924,2.2546,2.2866,2.2866,2.2866,2.2934,2.2996,2.3003,2.3003,2.3065,2.3065,2.3201,2.3611,2.3604,2.3747,2.4088,2.4163,2.4299,2.4706,2.4766,2.4902,2.5247,2.4977,2.457,2.9889,2.9889,2.9889,2.9879,2.9889,3.0443,3.0899,3.1219,3.0297,2.9889,2.9889,2.9889,2.9889,2.9889,2.9879,3.0141,3.063,3.063,3.0899,3.1373,3.1362,3.1362,3.1373,3.0847,3.064,3.0588,3.013,2.9889,2.9837,2.9606,2.9448,2.9438,2.9124,2.8503,2.7742,2.6685,2.6112,2.6004,2.547,2.5137,2.4883,2.4892,2.4892,2.4892,2.4941,2.499,2.5245,2.5235,2.5235,2.5235,2.5235,2.5137,2.4932,2.4892,2.4892,2.4892,2.4892,2.4883,2.4784,2.4578,2.4389,2.4242,2.3555,2.259,2.1412,2.1565,2.1427,2.0606,2.0309,2.0044,1.9696,1.9465,1.9363,1.9417,1.9424,1.9424,1.9424,1.9424,1.9424,1.9482,1.9424,1.9638,2.0107,2.0201,2.0496,2.0965,2.1378,2.167,2.1872,2.193,2.1923,2.2038,2.2485,2.2819,2.2996,2.2934,2.3065,2.327,2.3338,2.3475,2.3823,2.3823,2.3959,2.4299,2.436,2.4503,2.4841,2.4841,2.5172,2.5771,2.5891,2.6084,2.6679,2.6679,2.6285,3.0858,3.0858,3.0858,3.0868,3.0909,3.1454,3.1964,3.2432,3.1936,3.1414,3.0858,3.0858,3.0858,3.0858,3.0858,3.1157,3.1648,3.1659,3.1964,3.2432,3.2482,3.2482,3.2432,3.1902,3.1648,3.1637,3.0837,3.0474,3.0402,2.9802,2.9432,2.9422,2.9024,2.8472,2.786,2.7197,2.6718,2.6534,2.5868,2.544,2.5342,2.5333,2.5342,2.5342,2.5342,2.5391,2.5538,2.5538,2.5538,2.5489,2.5528,2.543,2.5342,2.5342,2.5333,2.5333,2.5333,2.5284,2.5128,2.4942,2.4697,2.4419,2.4401,2.399,2.2971,2.2517,2.2063,2.1527,2.1066,2.068,2.0321,2.0046,1.9873,1.988,1.988,1.988,1.988,1.988,1.9873,1.9873,1.9873,2.0113,2.0696,2.0772,2.0937,2.154,2.1915,2.2292,2.262,2.2808,2.2774,2.2635,2.2946,2.3269,2.3434,2.3482,2.3618,2.3959,2.402,2.4156,2.4435,2.457,2.4774,2.524,2.5375,2.5577,2.6055,2.619,2.6517,2.702,2.7052,2.7244,2.7744,2.7874,2.7279,3.1975,3.1975,3.1986,3.1986,3.2066,3.2572,3.3024,3.3446,3.3545,3.3085,3.237,3.2077,3.1975,3.1975,3.1975,3.2269,3.2723,3.2762,3.3074,3.3545,3.3545,3.3545,3.3496,3.3024,3.2705,3.2519,3.165,3.1191,3.0998,3.0106,2.9588,2.9419,2.8979,2.8551,2.8216,2.7831,2.7459,2.7119,2.639,2.5927,2.5781,2.5732,2.5684,2.5684,2.5684,2.5684,2.5684,2.5684,2.5684,2.5684,2.5684,2.5684,2.5684,2.5684,2.5684,2.5684,2.5684,2.5586,2.5313,2.532,2.514,2.476,2.5249,2.5308,2.4676,2.3695,2.2879,2.2459,2.1767,2.1318,2.101,2.0673,2.0493,2.0493,2.05,2.05,2.05,2.05,2.05,2.0493,2.0493,2.0713,2.1173,2.1385,2.1743,2.2455,2.2793,2.3043,2.3454,2.378,2.3794,2.3674,2.3699,2.3827,2.4089,2.4188,2.442,2.4766,2.4902,2.5105,2.5375,2.551,2.5779,2.6375,2.6576,2.691,2.7459,2.7666,2.7883,2.8377,2.8265,2.8331,2.8852,2.8798,2.8208,3.3047,3.3047,3.3047,3.3197,3.3434,3.3744,3.4028,3.4335,3.4531,3.4628,3.4335,3.3484,3.3047,3.3047,3.3047,3.3346,3.3831,3.3831,3.4139,3.458,3.4628,3.4628,3.458,3.4089,3.3586,3.3105,3.2503,3.1997,3.162,3.1012,3.0506,3.0025,2.9547,2.9298,2.9163,2.8406,2.7946,2.7904,2.7183,2.6572,2.6052,2.582,2.5684,2.5684,2.5684,2.5684,2.5684,2.5684,2.5684,2.5684,2.5684,2.5684,2.5684,2.5684,2.5684,2.5684,2.5684,2.5586,2.5362,2.5687,2.5847,2.5722,2.5825,2.5963,2.59,2.5333,2.4514,2.3568,2.2562,2.2051,2.1938,2.1467,2.1174,2.1174,2.1181,2.1117,2.1174,2.1117,2.1124,2.1117,2.1174,2.1255,2.162,2.1934,2.2592,2.3769,2.3976,2.4232,2.4795,2.4966,2.5116,2.5116,2.4917,2.4562,2.4575,2.4727,2.5256,2.5823,2.5973,2.6249,2.6725,2.6992,2.7193,2.7841,2.7981,2.8304,2.8797,2.9094,2.9153,2.9351,2.9432,2.9535,2.9896,2.9821,2.9244,3.4139,3.4139,3.4139,3.4286,3.4531,3.4677,3.4884,3.5126,3.5223,3.5271,3.5223,3.4775,3.4433,3.4139,3.4139,3.4335,3.4689,3.4726,3.4932,3.5223,3.5271,3.5271,3.5223,3.4884,3.445,3.3863,3.3221,3.2606,3.2054,3.1263,3.065,3.0208,2.9959,2.9869,2.9812,2.9205,2.8874,2.8885,2.7987,2.7373,2.6965,2.6284,2.5917,2.5917,2.5781,2.5684,2.5684,2.5684,2.5684,2.5684,2.5684,2.5684,2.5684,2.5684,2.5684,2.5684,2.5684,2.5586,2.5333,2.5958,2.6267,2.6078,2.6542,2.6768,2.6645,2.6382,2.5999,2.5284,2.4008,2.3167,2.3103,2.2595,2.2263,2.2263,2.2263,2.2271,2.2271,2.2271,2.2263,2.2263,2.2271,2.2394,2.2705,2.3181,2.3974,2.4984,2.5272,2.5525,2.6075,2.6197,2.6263,2.6384,2.636,2.6184,2.5889,2.5842,2.6359,2.7047,2.731,2.7584,2.8246,2.8452,2.8642,2.9347,2.9387,2.9544,2.9997,3.0108,3.0201,3.0211,3.0192,3.0174,3.0027,3.0004,2.9642,3.503,3.503,3.503,3.5126,3.532,3.5368,3.5524,3.5716,3.5812,3.58,3.58,3.58,3.5596,3.5271,3.5066,3.5175,3.538,3.5416,3.556,3.58,3.58,3.58,3.5787,3.5401,3.4927,3.4342,3.355,3.2868,3.2283,3.1598,3.0982,3.0668,3.0578,3.0623,3.0578,3.0125,2.9897,2.9806,2.8932,2.8279,2.7904,2.7003,2.639,2.6091,2.5917,2.5781,2.5684,2.5684,2.5684,2.5684,2.5684,2.5684,2.5684,2.5684,2.5684,2.5684,2.5684,2.5635,2.545,2.6232,2.6593,2.6393,2.7055,2.7422,2.7152,2.7098,2.7043,2.6708,2.5551,2.4714,2.4334,2.384,2.3512,2.3512,2.3512,2.3512,2.3512,2.3512,2.3512,2.3512,2.3512,2.3699,2.4137,2.4624,2.525,2.6315,2.6614,2.6857,2.7409,2.753,2.7539,2.7547,2.7783,2.767,2.7195,2.7149,2.7646,2.836,2.8757,2.9028,2.9691,2.9831,3.0018,3.0511,3.0569,3.0682,3.0837,3.0952,3.0729,3.07,3.0619,3.0467,3.0348,3.0205,3.0195,3.5572,3.5572,3.5572,3.556,3.562,3.586,3.5968,3.6003,3.6228,3.6358,3.631,3.631,3.631,3.6216,3.5752,3.5716,3.592,3.5968,3.6051,3.6323,3.6323,3.6358,3.632,3.5575,3.4901,3.4322,3.3646,3.2857,3.2086,3.1957,3.1869,3.1617,3.1617,3.1629,3.1528,3.1071,3.0802,3.0713,2.9897,2.9301,2.8943,2.8055,2.7109,2.6284,2.61,2.5955,2.5732,2.5684,2.5684,2.5684,2.5684,2.5684,2.5684,2.5684,2.5684,2.5684,2.5684,2.5684,2.5781,2.6454,2.6839,2.674,2.7343,2.7736,2.7485,2.7431,2.7422,2.7368,2.6989,2.6382,2.5725,2.511,2.4723,2.4723,2.4723,2.4723,2.4723,2.4731,2.4731,2.4731,2.4723,2.4996,2.5662,2.5833,2.647,2.7456,2.7882,2.814,2.8618,2.8856,2.8856,2.8806,2.8828,2.8754,2.8308,2.8213,2.8918,2.9643,2.9998,3.0372,3.0917,3.1313,3.1497,3.1533,3.1375,3.1388,3.1571,3.1403,3.111,3.0962,3.0865,3.0723,3.0606,3.0782,3.0772,3.6073,3.6086,3.6121,3.6121,3.6133,3.6228,3.6228,3.6275,3.637,3.6417,3.6417,3.6417,3.6417,3.6358,3.6168,3.6181,3.6241,3.6275,3.631,3.6417,3.6417,3.6182,3.5796,3.5503,3.4928,3.414,3.3776,3.3257,3.2543,3.2438,3.2363,3.2157,3.2157,3.2169,3.2069,3.1781,3.156,3.1339,3.0713,3.0136,2.96,2.8896,2.8102,2.7098,2.6438,2.5965,2.5684,2.5684,2.5684,2.5684,2.5684,2.5684,2.5684,2.5684,2.5684,2.5684,2.5684,2.5684,2.5752,2.6279,2.6688,2.6919,2.7445,2.7868,2.7965,2.797,2.797,2.7916,2.7755,2.7368,2.7098,2.6436,2.5944,2.5944,2.5944,2.5944,2.5944,2.5944,2.5944,2.5935,2.5944,2.6168,2.6522,2.6909,2.7506,2.8305,2.8742,2.9057,2.945,2.9577,2.9568,2.9568,2.9587,2.9576,2.9724,2.9303,2.952,3.0429,3.0992,3.1267,3.1733,3.1907,3.2035,3.1932,3.1831,3.1651,3.1625,3.1305,3.104,3.0974,3.0928,3.0918,3.0898,3.0898,3.0898,3.6417,3.6417,3.6417,3.6417,3.6417,3.6417,3.6417,3.6417,3.6417,3.6417,3.6417,3.6417,3.6417,3.6417,3.6417,3.6417,3.6417,3.6417,3.6417,3.6392,3.6182,3.5906,3.5495,3.5132,3.4625,3.396,3.3709,3.3333,3.289,3.2853,3.2766,3.2636,3.2605,3.2649,3.2562,3.2363,3.2133,3.1913,3.1439,3.0859,3.0239,2.9554,2.8746,2.7762,2.686,2.6187,2.582,2.5732,2.5684,2.5684,2.5684,2.5684,2.5684,2.5684,2.5684,2.5684,2.5684,2.5684,2.5732,2.6143,2.6572,2.6982,2.7422,2.7842,2.8232,2.8301,2.8301,2.8237,2.8184,2.8014,2.796,2.7476,2.7098,2.6935,2.6871,2.6881,2.6881,2.6826,2.6817,2.6826,2.6826,2.7012,2.7327,2.779,2.8369,2.9067,2.9463,2.9835,3.0157,3.0225,3.0225,3.0225,3.0225,3.033,3.0401,3.0156,3.02,3.0977,3.1268,3.1734,3.2093,3.2241,3.231,3.2252,3.2047,3.175,3.1472,3.1133,3.0957,3.0908,3.0898,3.0908,3.0898,3.0898,3.0898,3.6417,3.6417,3.6417,3.6417,3.6417,3.6417,3.6417,3.6417,3.6417,3.6417,3.6417,3.6417,3.6417,3.6417,3.6417,3.6417,3.6417,3.6417,3.6417,3.6367,3.5843,3.5533,3.537,3.4512,3.3997,3.3796,3.3332,3.3149,3.3081,3.3081,3.3081,3.3068,3.3038,3.2995,3.3081,3.281,3.268,3.2506,3.2013,3.1439,3.0904,3.0034,2.9117,2.8128,2.7336,2.6668,2.6139,2.5868,2.5684,2.5684,2.5684,2.5684,2.5684,2.5684,2.5684,2.5684,2.5684,2.5684,2.5723,2.6113,2.6494,2.6914,2.7383,2.7773,2.8115,2.8271,2.8301,2.8291,2.8291,2.8291,2.8237,2.8184,2.797,2.7539,2.7422,2.7431,2.7431,2.7431,2.7431,2.7431,2.7431,2.7602,2.7926,2.8388,2.8918,2.9518,3.0026,3.0392,3.0704,3.0713,3.083,3.083,3.0713,3.0713,3.0811,3.0898,3.1128,3.1392,3.1504,3.1706,3.2044,3.2264,3.2144,3.2075,3.1655,3.1435,3.1269,3.0937,3.0928,3.0898,3.0898,3.0898,3.0898,3.0898,3.0898,3.6417,3.6417,3.6417,3.6417,3.6417,3.6417,3.6417,3.6417,3.6417,3.6417,3.6417,3.6417,3.6417,3.6417,3.6417,3.6417,3.6417,3.6417,3.6417,3.6329,3.5793,3.5282,3.4856,3.4236,3.3709,3.3357,3.3169,3.3124,3.3124,3.3124,3.3124,3.3124,3.3124,3.3124,3.3124,3.3025,3.2896,3.2711,3.2494,3.2089,3.1484,3.0814,2.9977,2.9059,2.8175,2.7336,2.6668,2.6062,2.5732,2.5684,2.5684,2.5684,2.5684,2.5684,2.5684,2.5684,2.5684,2.5684,2.5693,2.5869,2.6143,2.6553,2.6982,2.7402,2.7875,2.8144,2.8281,2.8301,2.8301,2.8301,2.8301,2.8301,2.8184,2.8077,2.8023,2.797,2.796,2.8023,2.8023,2.8023,2.8023,2.8101,2.8323,2.8787,2.9339,2.9665,3.0238,3.0811,3.0889,3.0898,3.0898,3.0898,3.0898,3.0898,3.0898,3.0898,3.1015,3.1207,3.1362,3.1517,3.1844,3.1963,3.1894,3.1728,3.1367,3.1143,3.0967,3.0898,3.0898,3.0898,3.0898,3.0898,3.0898,3.0898,3.0898,3.6417,3.6417,3.6417,3.6417,3.6417,3.6417,3.6417,3.6417,3.6417,3.6417,3.6417,3.6417,3.6417,3.6417,3.6417,3.6417,3.6417,3.6417,3.6417,3.6279,3.5554,3.5006,3.458,3.3922,3.3445,3.3187,3.3124,3.3124,3.3124,3.3124,3.3124,3.3124,3.3124,3.3124,3.3124,3.3124,3.2995,3.2865,3.2711,3.2407,3.1837,3.1205,3.0442,2.9485,2.8502,2.7657,2.6907,2.6197,2.5781,2.5732,2.5684,2.5684,2.5684,2.5684,2.5684,2.5684,2.5684,2.5684,2.5684,2.5703,2.5928,2.6357,2.6777,2.7207,2.7627,2.8057,2.8281,2.8301,2.8301,2.8301,2.8301,2.8301,2.8301,2.8291,2.8291,2.8301,2.8301,2.8301,2.8291,2.8237,2.8237,2.8301,2.8457,2.9023,2.9597,2.9687,3.0332,3.0898,3.0898,3.0898,3.0898,3.0898,3.0898,3.0898,3.0898,3.0898,3.0898,3.1025,3.1103,3.1249,3.1455,3.1475,3.1435,3.1348,3.1064,3.1035,3.0898,3.0898,3.0898,3.0898,3.0898,3.0898,3.0898,3.0898,3.0898,3.6417,3.6417,3.6417,3.6417,3.6417,3.6417,3.6417,3.6417,3.6417,3.6417,3.6417,3.6417,3.6417,3.6417,3.6417,3.6417,3.6417,3.6417,3.6417,3.6141,3.5416,3.4818,3.4613,3.3847,3.3458,3.3332,3.3275,3.3169,3.3262,3.3162,3.3124,3.3124,3.3124,3.3124,3.3124,3.3124,3.3081,3.3038,3.281,3.2438,3.1945,3.1294,3.0442,2.9531,2.8549,2.7704,2.6955,2.6332,2.5917,2.5732,2.5684,2.5684,2.5684,2.5684,2.5684,2.5684,2.5684,2.5684,2.5684,2.5684,2.584,2.626,2.6728,2.7168,2.7549,2.7988,2.8301,2.8301,2.8301,2.8301,2.8301,2.8301,2.8301,2.8301,2.8301,2.8301,2.8301,2.8301,2.8301,2.8301,2.8301,2.8301,2.832,2.9014,2.9404,2.9717,3.0283,3.0674,3.0898,3.0898,3.0898,3.0898,3.0898,3.0898,3.0898,3.0898,3.0898,3.0918,3.0996,3.1055,3.1133,3.1133,3.1133,3.1016,3.0947,3.0908,3.0898,3.0898,3.0898,3.0898,3.0898,3.0898,3.0898,3.0898,3.0898,3.6417,3.6417,3.6417,3.6417,3.6417,3.6417,3.6417,3.6417,3.6417,3.6417,3.6417,3.6417,3.6417,3.6417,3.6417,3.6417,3.6417,3.6417,3.6417,3.6304,3.5667,3.5044,3.4731,3.4449,3.4261,3.4198,3.3834,3.3684,3.3646,3.3345,3.3199,3.3124,3.3212,3.3162,3.3124,3.3149,3.3124,3.3081,3.2853,3.2494,3.1945,3.1294,3.0442,2.9531,2.8699,2.7809,2.6955,2.6207,2.5781,2.5684,2.5684,2.5684,2.5684,2.5684,2.5684,2.5684,2.5684,2.5684,2.5684,2.5684,2.5762,2.5898,2.6621,2.7051,2.7187,2.7881,2.8232,2.8301,2.8301,2.8301,2.8301,2.8301,2.8301,2.8301,2.8301,2.8301,2.8301,2.8301,2.8301,2.8301,2.8301,2.8301,2.8408,2.875,2.9228,2.958,3.0039,3.0557,3.0781,3.0898,3.0898,3.0898,3.0898,3.0898,3.0898,3.0898,3.0898,3.0898,3.0918,3.0937,3.0976,3.0976,3.0957,3.0908,3.0918,3.0898,3.0898,3.0898,3.0898,3.0898,3.0898,3.0898,3.0898,3.0898,3.0898,3.6417,3.6417,3.6417,3.6417,3.6417,3.6417,3.6417,3.6417,3.6417,3.6417,3.6417,3.6417,3.6417,3.6417,3.6417,3.6417,3.6417,3.6417,3.6417,3.6367,3.6031,3.5466,3.4856,3.468,3.468,3.47,3.4399,3.4261,3.4198,3.3909,3.3796,3.3809,3.3759,3.3658,3.3488,3.342,3.3251,3.2989,3.2766,3.2438,3.1869,3.125,3.0442,2.9531,2.8653,2.7715,2.6668,2.6014,2.5684,2.5684,2.5684,2.5684,2.5684,2.5684,2.5684,2.5684,2.5684,2.5684,2.5684,2.5684,2.5781,2.6025,2.667,2.7051,2.7363,2.792,2.8301,2.8301,2.8301,2.8301,2.8301,2.8301,2.8301,2.8301,2.8301,2.8301,2.8301,2.8301,2.8301,2.8301,2.8301,2.8301,2.8301,2.8662,2.9082,2.9512,2.9941,3.041,3.0771,3.084,3.0898,3.0898,3.0898,3.0898,3.0898,3.0898,3.0898,3.0898,3.0898,3.0898,3.0898,3.0898,3.0898,3.0898,3.0898,3.0898,3.0898,3.0898,3.0898,3.0898,3.0898,3.0898,3.0898,3.0898,3.0898,3.6417,3.6417,3.6417,3.6417,3.6417,3.6417,3.6417,3.6417,3.6417,3.6417,3.6417,3.6417,3.6417,3.6417,3.6417,3.6417,3.6417,3.6417,3.6417,3.6405,3.6279,3.583,3.5165,3.5115,3.509,3.5039,3.4876,3.4768,3.4751,3.4713,3.4663,3.4517,3.46,3.4424,3.4022,3.3909,3.3477,3.2965,3.2661,3.2189,3.1572,3.0892,3.0114,2.9255,2.8222,2.7241,2.638,2.5868,2.5684,2.5684,2.5684,2.5684,2.5684,2.5684,2.5684,2.5684,2.5684,2.5684,2.5684,2.5693,2.5869,2.6318,2.6738,2.7197,2.7588,2.8027,2.8301,2.8301,2.8301,2.8301,2.8301,2.8301,2.8301,2.8301,2.8301,2.8301,2.8301,2.8301,2.8301,2.8301,2.8301,2.8301,2.8389,2.8633,2.9014,2.9482,2.9883,3.0244,3.0644,3.0859,3.0898,3.0898,3.0898,3.0898,3.0898,3.0898,3.0898,3.0898,3.0898,3.0898,3.0898,3.0898,3.0898,3.0898,3.0898,3.0898,3.0898,3.0898,3.0898,3.0898,3.0898,3.0898,3.0898,3.0898,3.0898,3.6417,3.6417,3.6417,3.6417,3.6417,3.6417,3.6417,3.6417,3.6417,3.6417,3.6417,3.6417,3.6417,3.6417,3.6417,3.6417,3.6417,3.6417,3.6417,3.6417,3.6417,3.6329,3.6028,3.5977,3.6015,3.5868,3.5542,3.5345,3.5257,3.5027,3.4705,3.4731,3.4876,3.4675,3.4537,3.4104,3.3727,3.3238,3.2584,3.1781,3.1026,3.0261,2.9485,2.8617,2.7478,2.6678,2.6197,2.583,2.5732,2.5684,2.5684,2.5684,2.5684,2.5684,2.5684,2.5684,2.5684,2.5684,2.5693,2.5732,2.5928,2.6396,2.6836,2.7197,2.7637,2.8057,2.8271,2.8301,2.8301,2.8301,2.8301,2.8301,2.8301,2.8301,2.8301,2.8301,2.8301,2.8301,2.8301,2.8301,2.8301,2.8301,2.8301,2.8359,2.8789,2.9394,2.9785,3.0098,3.0478,3.0859,3.0898,3.0898,3.0898,3.0898,3.0898,3.0898,3.0898,3.0898,3.0898,3.0898,3.0898,3.0898,3.0898,3.0898,3.0898,3.0898,3.0898,3.0898,3.0898,3.0898,3.0898,3.0898,3.0898,3.0898,3.0898,3.6417,3.6417,3.6417,3.6417,3.6417,3.6417,3.6417,3.6417,3.6417,3.6417,3.6417,3.6417,3.6417,3.6417,3.6417,3.6417,3.6417,3.6417,3.6417,3.6417,3.6417,3.6417,3.6417,3.6417,3.6405,3.6307,3.6081,3.5931,3.583,3.5642,3.5542,3.5479,3.5466,3.5366,3.5006,3.4415,3.3816,3.3076,3.2192,3.125,3.0408,2.9726,2.8699,2.7809,2.6812,2.6197,2.5917,2.5781,2.5732,2.5684,2.5684,2.5684,2.5684,2.5684,2.5684,2.5684,2.5684,2.5684,2.5703,2.5947,2.624,2.665,2.707,2.75,2.7851,2.8193,2.8271,2.8301,2.8301,2.8301,2.8301,2.8301,2.8301,2.8301,2.8301,2.8301,2.8301,2.8301,2.8301,2.8301,2.8301,2.8301,2.8301,2.8301,2.873,2.9404,2.959,2.9922,3.0576,3.0898,3.0898,3.0898,3.0898,3.0898,3.0898,3.0898,3.0898,3.0898,3.0898,3.0898,3.0898,3.0898,3.0898,3.0898,3.0898,3.0898,3.0898,3.0898,3.0898,3.0898,3.0898,3.0898,3.0898,3.0898,3.0898,3.6417,3.6417,3.6417,3.6417,3.6417,3.6417,3.6417,3.6417,3.6417,3.6417,3.6417,3.6417,3.6417,3.6417,3.6417,3.6417,3.6417,3.6417,3.6417,3.6417,3.6417,3.6417,3.6417,3.6417,3.6417,3.6417,3.6355,3.6355,3.6355,3.6405,3.6191,3.6342,3.6367,3.5972,3.5478,3.474,3.3913,3.3019,3.1851,3.0814,2.9909,2.922,2.8186,2.7003,2.6428,2.6004,2.583,2.5732,2.5684,2.5684,2.5684,2.5684,2.5684,2.5684,2.5684,2.5684,2.5684,2.5801,2.5937,2.6191,2.6553,2.7041,2.7422,2.7822,2.8154,2.8262,2.8291,2.8301,2.8301,2.8301,2.8301,2.8301,2.8301,2.8301,2.8301,2.8301,2.8301,2.8301,2.8301,2.8301,2.8301,2.8301,2.8301,2.832,2.8867,2.9381,2.9502,2.9844,3.0508,3.0898,3.0898,3.0898,3.0898,3.0898,3.0898,3.0898,3.0898,3.0898,3.0898,3.0898,3.0898,3.0898,3.0898,3.0898,3.0898,3.0898,3.0898,3.0898,3.0898,3.0898,3.0898,3.0898,3.0898,3.0898,3.0898,3.6417,3.6417,3.6417,3.6417,3.6417,3.6417,3.6417,3.6417,3.6417,3.6417,3.6417,3.6417,3.6417,3.6417,3.6417,3.6417,3.6417,3.6417,3.6417,3.6417,3.6417,3.6417,3.6417,3.6417,3.6417,3.6417,3.6417,3.6417,3.6417,3.6417,3.6417,3.6417,3.6417,3.621,3.5675,3.4901,3.3961,3.2921,3.1634,3.042,2.9485,2.8502,2.7573,2.6428,2.6139,2.5965,2.5781,2.5684,2.5684,2.5684,2.5684,2.5684,2.5684,2.5684,2.5684,2.5684,2.5684,2.585,2.6172,2.6348,2.6816,2.7344,2.7718,2.7871,2.8174,2.8301,2.8301,2.8301,2.8301,2.8301,2.8301,2.8301,2.8301,2.8301,2.8301,2.8301,2.8301,2.8301,2.8301,2.8301,2.8301,2.8301,2.8301,2.8398,2.8818,2.9248,2.9521,2.998,3.0664,3.0889,3.0898,3.0898,3.0898,3.0898,3.0898,3.0898,3.0898,3.0898,3.0898,3.0898,3.0898,3.0898,3.0898,3.0898,3.0898,3.0898,3.0898,3.0898,3.0898,3.0898,3.0898,3.0898,3.0898,3.0898,3.0898,3.6417,3.6417,3.6417,3.6417,3.6417,3.6417,3.6417,3.6417,3.6417,3.6417,3.6417,3.6417,3.6417,3.6417,3.6417,3.6417,3.6417,3.6417,3.6417,3.6417,3.6417,3.6417,3.6417,3.6417,3.6417,3.6417,3.6417,3.6417,3.6417,3.6417,3.6417,3.6417,3.6417,3.6275,3.5754,3.4691,3.3762,3.2742,3.1193,2.9703,2.8746,2.7657,2.6668,2.6284,2.5955,2.583,2.5732,2.5684,2.5684,2.5684,2.5684,2.5684,2.5684,2.5693,2.5693,2.5703,2.5713,2.5937,2.6357,2.6572,2.7021,2.762,2.7894,2.8057,2.8223,2.8301,2.8301,2.8301,2.8301,2.8301,2.8301,2.8301,2.8301,2.8301,2.8301,2.8301,2.8301,2.8301,2.8301,2.8301,2.8301,2.8301,2.8301,2.8476,2.8789,2.9141,2.9502,3.0098,3.0781,3.0889,3.0898,3.0898,3.0898,3.0898,3.0898,3.0898,3.0898,3.0898,3.0898,3.0898,3.0898,3.0898,3.0898,3.0898,3.0898,3.0898,3.0898,3.0898,3.0898,3.0898,3.0898,3.0898,3.0898,3.0898,3.0898,3.6417,3.6417,3.6417,3.6417,3.6417,3.6417,3.6417,3.6417,3.6417,3.6417,3.6417,3.6417,3.6417,3.6417,3.6417,3.6417,3.6417,3.6417,3.6417,3.6417,3.6417,3.6417,3.6417,3.6417,3.6417,3.6417,3.6417,3.6417,3.6417,3.6417,3.6417,3.637,3.6358,3.6193,3.5685,3.4387,3.3358,3.2148,3.0582,2.9,2.7799,2.6716,2.6052,2.6004,2.582,2.5732,2.5684,2.5684,2.5684,2.5684,2.5684,2.5684,2.5703,2.5771,2.583,2.582,2.582,2.6103,2.6484,2.6924,2.7353,2.7832,2.8115,2.8252,2.8291,2.8301,2.8301,2.8301,2.8301,2.8301,2.8301,2.8301,2.8301,2.8301,2.8301,2.8301,2.8301,2.8301,2.8301,2.8301,2.8301,2.8301,2.8301,2.8389,2.8672,2.9209,2.958,3.0059,3.0664,3.0859,3.0898,3.0898,3.0898,3.0898,3.0898,3.0898,3.0898,3.0898,3.0898,3.0898,3.0898,3.0898,3.0898,3.0898,3.0898,3.0898,3.0898,3.0898,3.0898,3.0898,3.0898,3.0898,3.0898,3.0898,3.0898,3.6417,3.6417,3.6417,3.6417,3.6417,3.6417,3.6417,3.6417,3.6417,3.6417,3.6417,3.6417,3.6417,3.6417,3.6417,3.6417,3.6417,3.6417,3.6417,3.6417,3.6417,3.6417,3.6417,3.6417,3.6417,3.6417,3.6417,3.6417,3.6417,3.6417,3.6417,3.637,3.6181,3.5908,3.551,3.4144,3.3005,3.2054,3.0373,2.8653,2.7241,2.638,2.6014,2.583,2.5732,2.5684,2.5684,2.5684,2.5703,2.5742,2.5723,2.5703,2.5742,2.6123,2.6269,2.6309,2.6357,2.6504,2.6924,2.7285,2.7695,2.8027,2.8262,2.8291,2.8301,2.8301,2.8301,2.8301,2.8301,2.8301,2.8301,2.8301,2.8301,2.8301,2.8301,2.8301,2.8301,2.8301,2.8301,2.8301,2.8301,2.8301,2.8301,2.8398,2.8574,2.9141,2.9687,3.0146,3.0557,3.0781,3.0898,3.0898,3.0898,3.0898,3.0898,3.0898,3.0898,3.0898,3.0898,3.0898,3.0898,3.0898,3.0898,3.0898,3.0898,3.0898,3.0898,3.0898,3.0898,3.0898,3.0898,3.0898,3.0898,3.0898,3.0898,3.6417,3.6417,3.6417,3.6417,3.6417,3.6417,3.6417,3.6417,3.6417,3.6417,3.6417,3.6417,3.6417,3.6417,3.6417,3.6417,3.6417,3.6417,3.6417,3.6417,3.6417,3.6417,3.6417,3.6417,3.6417,3.6417,3.6417,3.6417,3.6417,3.6417,3.6417,3.637,3.6098,3.5764,3.5319,3.3983,3.2723,3.1204,2.9292,2.7547,2.661,2.611,2.583,2.5693,2.5703,2.5713,2.5703,2.5684,2.584,2.6025,2.6103,2.624,2.6376,2.6641,2.6748,2.6768,2.6992,2.7197,2.7383,2.762,2.7891,2.8164,2.8301,2.8301,2.8301,2.8301,2.8301,2.8301,2.8301,2.8301,2.8301,2.8301,2.8301,2.8301,2.8301,2.8301,2.8301,2.8301,2.8301,2.8301,2.8301,2.8301,2.8301,2.835,2.8623,2.9258,2.9697,3.0059,3.0488,3.083,3.0898,3.0898,3.0898,3.0898,3.0898,3.0898,3.0898,3.0898,3.0898,3.0898,3.0898,3.0898,3.0898,3.0898,3.0898,3.0898,3.0898,3.0898,3.0898,3.0898,3.0898,3.0898,3.0898,3.0898,3.0898,3.6417,3.6417,3.6417,3.6417,3.6417,3.6417,3.6417,3.6417,3.6417,3.6417,3.6417,3.6417,3.6417,3.6417,3.6417,3.6417,3.6417,3.6417,3.6417,3.6417,3.6417,3.6417,3.6417,3.6417,3.6417,3.6417,3.6417,3.6417,3.6417,3.6417,3.6417,3.637,3.6051,3.5668,3.4993,3.3826,3.2406,3.0473,2.8581,2.726,2.6585,2.6251,2.6074,2.5996,2.5937,2.5957,2.5869,2.6015,2.6299,2.6455,2.6543,2.667,2.6885,2.706,2.7168,2.7266,2.7519,2.7754,2.7812,2.7891,2.8008,2.8174,2.8301,2.8301,2.8301,2.8301,2.8301,2.8301,2.8301,2.8301,2.8301,2.8301,2.8301,2.8301,2.8301,2.8301,2.8301,2.8301,2.8301,2.8301,2.8301,2.8301,2.8301,2.8301,2.8672,2.9355,2.9756,3.0039,3.043,3.0859,3.0898,3.0898,3.0898,3.0898,3.0898,3.0898,3.0898,3.0898,3.0898,3.0898,3.0898,3.0898,3.0898,3.0898,3.0898,3.0898,3.0898,3.0898,3.0898,3.0898,3.0898,3.0898,3.0898,3.0898,3.0898,3.6417,3.6417,3.6417,3.6417,3.6417,3.6417,3.6417,3.6417,3.6417,3.6417,3.6417,3.6417,3.6417,3.6417,3.6417,3.6417,3.6417,3.6417,3.6417,3.6417,3.6417,3.6417,3.6417,3.6417,3.6417,3.6417,3.6417,3.6417,3.6417,3.6417,3.6417,3.6323,3.586,3.5512,3.4655,3.3305,3.16,2.9887,2.8351,2.7663,2.7221,2.6909,2.665,2.6475,2.665,2.6768,2.6406,2.6621,2.6846,2.6953,2.6982,2.706,2.7256,2.748,2.7607,2.7705,2.792,2.8115,2.8144,2.8154,2.8232,2.8281,2.8301,2.8301,2.8301,2.8301,2.8301,2.8301,2.8301,2.8301,2.8301,2.8301,2.8301,2.8301,2.8301,2.8301,2.8301,2.8301,2.8301,2.8301,2.8301,2.8301,2.8301,2.8301,2.8721,2.9394,2.9971,3.0264,3.0547,3.0898,3.0898,3.0898,3.0898,3.0898,3.0898,3.0898,3.0898,3.0898,3.0898,3.0898,3.0898,3.0898,3.0898,3.0898,3.0898,3.0898,3.0898,3.0898,3.0898,3.0898,3.0898,3.0898,3.0898,3.0898,3.0898,3.6417,3.6417,3.6417,3.6417,3.6417,3.6417,3.6417,3.6417,3.6417,3.6417,3.6417,3.6417,3.6417,3.6417,3.6417,3.6417,3.6417,3.6417,3.6417,3.6417,3.6417,3.6417,3.6417,3.6417,3.6417,3.6417,3.6417,3.6417,3.6417,3.6417,3.6275,3.6038,3.5608,3.5017,3.406,3.2518,3.0632,2.9425,2.8269,2.7561,2.7257,2.7063,2.6934,2.6836,2.6865,2.6953,2.6816,2.6914,2.7148,2.7344,2.7402,2.7529,2.7676,2.793,2.7998,2.8018,2.8213,2.8271,2.8301,2.8301,2.8301,2.8301,2.8301,2.8301,2.8301,2.8301,2.8301,2.8301,2.8301,2.8301,2.8301,2.8301,2.8301,2.8301,2.8301,2.8301,2.8301,2.8301,2.8301,2.8301,2.8301,2.8301,2.8301,2.8301,2.8838,2.9424,2.998,3.0469,3.0723,3.0898,3.0898,3.0898,3.0898,3.0898,3.0898,3.0898,3.0898,3.0898,3.0898,3.0898,3.0898,3.0898,3.0898,3.0898,3.0898,3.0898,3.0898,3.0898,3.0898,3.0898,3.0898,3.0898,3.0898,3.0898,3.0898,3.6417,3.6417,3.6417,3.6417,3.6417,3.6417,3.6417,3.6417,3.6417,3.6417,3.6417,3.6417,3.6417,3.6417,3.6417,3.6417,3.6417,3.6417,3.6417,3.6417,3.6417,3.6417,3.6417,3.6417,3.6417,3.6417,3.6417,3.6417,3.6417,3.6417,3.6181,3.58,3.532,3.4726,3.365,3.1655,2.9938,2.9085,2.8314,2.7693,2.7474,2.7432,2.7314,2.7305,2.7373,2.7353,2.7334,2.7402,2.7607,2.7773,2.7881,2.7998,2.8164,2.8291,2.8301,2.8301,2.8301,2.8301,2.8301,2.8301,2.8301,2.8301,2.8301,2.8301,2.8301,2.8301,2.8301,2.8301,2.8301,2.8301,2.8301,2.8301,2.8301,2.8301,2.8301,2.8301,2.8301,2.8301,2.8301,2.8301,2.8301,2.831,2.8506,2.8574,2.9062,2.9629,3.0205,3.0605,3.0771,3.0898,3.0898,3.0898,3.0898,3.0898,3.0898,3.0898,3.0898,3.0898,3.0898,3.0898,3.0898,3.0898,3.0898,3.0898,3.0898,3.0898,3.0898,3.0898,3.0898,3.0898,3.0898,3.0898,3.0898,3.0898,3.0898,3.6417,3.6417,3.6417,3.6417,3.6417,3.6417,3.6417,3.6417,3.6417,3.6417,3.6417,3.6417,3.6417,3.6417,3.6417,3.6417,3.6417,3.6417,3.6417,3.6417,3.6417,3.6417,3.6417,3.6417,3.6417,3.6417,3.6417,3.6417,3.6417,3.6323,3.6098,3.5464,3.4872,3.4225,3.372,3.1841,3.0401,2.9576,2.8883,2.84,2.8158,2.8076,2.7891,2.7793,2.79,2.7871,2.7764,2.7891,2.8057,2.8125,2.8164,2.8223,2.8271,2.8301,2.8301,2.8301,2.8301,2.8301,2.8301,2.8301,2.8301,2.8301,2.8301,2.8301,2.8301,2.8301,2.8301,2.8301,2.8301,2.8301,2.8301,2.8301,2.8301,2.8301,2.8301,2.8301,2.8301,2.8301,2.8301,2.8301,2.8301,2.835,2.8623,2.8916,2.9346,2.9873,3.0449,3.0752,3.0859,3.0898,3.0898,3.0898,3.0898,3.0898,3.0898,3.0898,3.0898,3.0898,3.0898,3.0898,3.0898,3.0898,3.0898,3.0898,3.0898,3.0898,3.0898,3.0898,3.0898,3.0898,3.0898,3.0898,3.0898,3.0898,3.0898,3.6417,3.6417,3.6417,3.6417,3.6417,3.6417,3.6417,3.6417,3.6417,3.6417,3.6417,3.6417,3.6417,3.6417,3.6417,3.6417,3.6417,3.6417,3.6417,3.6417,3.6417,3.6417,3.6417,3.6417,3.6417,3.6417,3.6417,3.637,3.6417,3.6228,3.58,3.5223,3.4017,3.2974,3.2179,3.095,2.9931,2.929,2.8751,2.8335,2.8291,2.8291,2.8223,2.8066,2.8223,2.8193,2.8047,2.8242,2.8281,2.8301,2.8301,2.8301,2.8301,2.8301,2.8301,2.8301,2.8301,2.8301,2.8301,2.8301,2.8301,2.8301,2.8301,2.8301,2.8301,2.8301,2.8301,2.8301,2.8301,2.8301,2.8301,2.8301,2.8301,2.8301,2.8301,2.8301,2.8301,2.8301,2.8301,2.8301,2.8301,2.8574,2.8848,2.9307,2.9746,3.0059,3.0586,3.0771,3.0889,3.0898,3.0898,3.0898,3.0898,3.0898,3.0898,3.0898,3.0898,3.0898,3.0898,3.0898,3.0898,3.0898,3.0898,3.0898,3.0898,3.0898,3.0898,3.0898,3.0898,3.0898,3.0898,3.0898,3.0898,3.0898,3.0898,3.6417,3.6417,3.6417,3.6417,3.6417,3.6417,3.6417,3.6417,3.6417,3.6417,3.6417,3.6417,3.6417,3.6417,3.6417,3.6417,3.6417,3.6417,3.6417,3.6417,3.6417,3.6417,3.6417,3.6417,3.6417,3.637,3.6275,3.6241,3.6193,3.586,3.5271,3.4384,3.3074,3.2167,3.1311,3.0391,2.9669,2.9079,2.8611,2.8291,2.8301,2.8291,2.8291,2.8271,2.8291,2.8271,2.8291,2.8301,2.8301,2.8301,2.8301,2.8301,2.8301,2.8301,2.8301,2.8301,2.8301,2.8301,2.8301,2.8301,2.8301,2.8301,2.8301,2.8301,2.8301,2.8301,2.8301,2.8301,2.8301,2.8301,2.8301,2.8301,2.8301,2.8301,2.8301,2.8301,2.8301,2.8301,2.8428,2.8418,2.8594,2.8857,2.9219,2.9678,3.0166,3.042,3.0693,3.0801,3.0898,3.0898,3.0898,3.0898,3.0898,3.0898,3.0898,3.0898,3.0898,3.0898,3.0898,3.0898,3.0898,3.0898,3.0898,3.0898,3.0898,3.0898,3.0898,3.0898,3.0898,3.0898,3.0898,3.0898,3.0898,3.0898,3.0898,3.6417,3.6417,3.6417,3.6417,3.6417,3.6417,3.6417,3.6417,3.6417,3.6417,3.6417,3.6417,3.6417,3.6417,3.6417,3.6417,3.6417,3.6417,3.6417,3.6417,3.6417,3.6417,3.6417,3.6417,3.637,3.6275,3.6146,3.6003,3.5908,3.5271,3.4482,3.3583,3.2471,3.1556,3.0744,3.0015,2.9396,2.893,2.8558,2.8344,2.8301,2.8301,2.8301,2.8301,2.8301,2.8301,2.8301,2.8301,2.8301,2.8301,2.8301,2.8301,2.8301,2.8301,2.8301,2.8301,2.8301,2.8301,2.8301,2.8301,2.8301,2.8301,2.8301,2.8301,2.8301,2.8301,2.8301,2.8301,2.8301,2.8301,2.8301,2.8301,2.8301,2.8301,2.8301,2.8301,2.831,2.8398,2.8584,2.873,2.8965,2.9287,2.9785,3.0234,3.0459,3.0625,3.0791,3.082,3.0898,3.0898,3.0898,3.0898,3.0898,3.0898,3.0898,3.0898,3.0898,3.0898,3.0898,3.0898,3.0898,3.0898,3.0898,3.0898,3.0898,3.0898,3.0898,3.0898,3.0898,3.0898,3.0898,3.0898,3.0898,3.0898,3.0898,3.6417,3.6417,3.6417,3.6417,3.6417,3.6417,3.6417,3.6417,3.6417,3.6417,3.6417,3.6417,3.6417,3.6417,3.6417,3.6417,3.6417,3.6417,3.6417,3.6417,3.6417,3.6417,3.6417,3.6358,3.6263,3.6146,3.5955,3.5716,3.5223,3.458,3.3522,3.2471,3.1772,3.095,3.0287,2.9564,2.9195,2.8824,2.8451,2.8344,2.8301,2.8301,2.8301,2.8301,2.8301,2.8301,2.8301,2.8301,2.8301,2.8301,2.8301,2.8301,2.8301,2.8301,2.8301,2.8301,2.8301,2.8301,2.8301,2.8301,2.8301,2.8301,2.8301,2.8301,2.8301,2.8301,2.8301,2.8301,2.8301,2.8301,2.8301,2.8301,2.8301,2.8301,2.831,2.834,2.8379,2.8584,2.8779,2.9121,2.9365,2.9785,3.0293,3.0508,3.0703,3.083,3.0898,3.0898,3.0898,3.0898,3.0898,3.0898,3.0898,3.0898,3.0898,3.0898,3.0898,3.0898,3.0898,3.0898,3.0898,3.0898,3.0898,3.0898,3.0898,3.0898,3.0898,3.0898,3.0898,3.0898,3.0898,3.0898,3.0898,3.0898,3.0898,3.6417,3.6417,3.6417,3.6417,3.6417,3.6417,3.6417,3.6417,3.6417,3.6417,3.6417,3.6417,3.6417,3.6417,3.6417,3.6417,3.6417,3.6417,3.6417,3.6417,3.6417,3.6323,3.6263,3.6228,3.5991,3.5812,3.5512,3.5163,3.4519,3.3522,3.242,3.1556,3.0961,3.0349,2.9669,2.9195,2.8834,2.8568,2.8408,2.8301,2.8301,2.8301,2.8301,2.8301,2.8301,2.8301,2.8301,2.8301,2.8301,2.8301,2.8301,2.8301,2.8301,2.8301,2.8301,2.8301,2.8301,2.8301,2.8301,2.8301,2.8301,2.8301,2.8301,2.8301,2.8301,2.8301,2.8301,2.8301,2.8301,2.8301,2.8301,2.8301,2.8301,2.8301,2.834,2.8379,2.8555,2.8769,2.9101,2.9482,2.9873,3.0283,3.0605,3.0791,3.0889,3.0889,3.0898,3.0898,3.0898,3.0898,3.0898,3.0898,3.0898,3.0898,3.0898,3.0898,3.0898,3.0898,3.0898,3.0898,3.0898,3.0898,3.0898,3.0898,3.0898,3.0898,3.0898,3.0898,3.0898,3.0898,3.0898,3.0898,3.0898,3.0898,3.0898,3.6417,3.6417,3.6417,3.6417,3.6417,3.6417,3.6417,3.6417,3.6417,3.6417,3.6417,3.6417,3.6417,3.6417,3.6417,3.6417,3.6417,3.6417,3.6417,3.637,3.6323,3.6228,3.6098,3.5908,3.556,3.5175,3.4775,3.4372,3.3572,3.2572,3.1545,3.0733,3.0287,2.9722,2.9195,2.894,2.8621,2.8408,2.8354,2.8301,2.8301,2.8301,2.8301,2.8301,2.8301,2.8301,2.8301,2.8301,2.8301,2.8301,2.8301,2.8301,2.8301,2.8301,2.8301,2.8301,2.8301,2.8301,2.8301,2.8301,2.8301,2.8301,2.8301,2.8301,2.8301,2.8301,2.8301,2.8301,2.8301,2.8301,2.8301,2.8301,2.8301,2.8301,2.832,2.8476,2.873,2.9082,2.96,2.9971,3.0322,3.0684,3.0732,3.0889,3.0889,3.0898,3.0898,3.0898,3.0898,3.0898,3.0898,3.0898,3.0898,3.0898,3.0898,3.0898,3.0898,3.0898,3.0898,3.0898,3.0898,3.0898,3.0898,3.0898,3.0898,3.0898,3.0898,3.0898,3.0898,3.0898,3.0898,3.0898,3.0898,3.0898,3.0898,3.6417,3.6417,3.6417,3.6417,3.6417,3.6417,3.6417,3.6417,3.6417,3.6405,3.6417,3.6417,3.6417,3.6417,3.6417,3.6417,3.6358,3.637,3.6417,3.6275,3.6181,3.5955,3.586,3.5476,3.5066,3.4677,3.4176,3.3373,3.237,3.1443,3.0681,2.9963,2.9669,2.9353,2.8834,2.8684,2.8514,2.8291,2.8301,2.8301,2.8301,2.8301,2.8301,2.8301,2.8301,2.8301,2.8301,2.8301,2.8301,2.8301,2.8301,2.8301,2.8301,2.8301,2.8301,2.8301,2.8301,2.8301,2.8301,2.8301,2.8301,2.8301,2.8301,2.8301,2.8301,2.8301,2.8301,2.8301,2.8301,2.8301,2.8301,2.8301,2.833,2.833,2.835,2.8633,2.8926,2.9512,3.0088,3.043,3.0771,3.0859,3.0889,3.0898,3.0898,3.0898,3.0898,3.0898,3.0898,3.0898,3.0898,3.0898,3.0898,3.0898,3.0898,3.0898,3.0898,3.0898,3.0898,3.0898,3.0898,3.0898,3.0898,3.0898,3.0898,3.0898,3.0898,3.0898,3.0898,3.0898,3.0898,3.0898,3.0898,3.0898,3.0898,3.6417,3.6417,3.6417,3.6417,3.6417,3.6417,3.631,3.6228,3.6228,3.6133,3.6073,3.6275,3.6417,3.6417,3.6417,3.6275,3.6216,3.6228,3.6086,3.5991,3.5752,3.5572,3.5332,3.4932,3.4262,3.377,3.2862,3.1902,3.1094,3.0484,2.9911,2.9353,2.9195,2.8983,2.8568,2.8514,2.8461,2.8344,2.8291,2.8301,2.8301,2.8301,2.8301,2.8301,2.8301,2.8301,2.8301,2.8301,2.8301,2.8301,2.8301,2.8301,2.8301,2.8301,2.8301,2.8301,2.8301,2.8301,2.8301,2.8301,2.8301,2.8301,2.8301,2.8301,2.8301,2.8301,2.8301,2.8301,2.8301,2.8301,2.8301,2.8301,2.8496,2.8574,2.8701,2.8926,2.9473,3.0117,3.0469,3.0674,3.0869,3.0879,3.0898,3.0898,3.0898,3.0898,3.0898,3.0898,3.0898,3.0898,3.0898,3.0898,3.0898,3.0898,3.0898,3.0898,3.0898,3.0898,3.0898,3.0898,3.0898,3.0898,3.0898,3.0898,3.0898,3.0898,3.0898,3.0898,3.0898,3.0898,3.0898,3.0898,3.0898,3.0898,3.0898,3.6417,3.6417,3.637,3.637,3.6323,3.6323,3.6133,3.592,3.5872,3.5729,3.5572,3.5943,3.6216,3.631,3.6275,3.6086,3.5943,3.5847,3.5716,3.5476,3.5175,3.4932,3.458,3.4078,3.3312,3.2409,3.1494,3.0888,3.0224,2.9711,2.9248,2.8727,2.8578,2.8514,2.8354,2.8291,2.8291,2.8291,2.8301,2.8301,2.8301,2.8301,2.8301,2.8301,2.8301,2.8301,2.8301,2.8301,2.8301,2.8301,2.8301,2.8301,2.8301,2.8301,2.8301,2.8301,2.8301,2.8301,2.8301,2.8301,2.8301,2.8301,2.8301,2.8301,2.8301,2.8301,2.8301,2.8301,2.8301,2.831,2.831,2.8437,2.8652,2.8906,2.9062,2.9277,2.9951,3.0566,3.0742,3.0898,3.0898,3.0898,3.0898,3.0898,3.0898,3.0898,3.0898,3.0898,3.0898,3.0898,3.0898,3.0898,3.0898,3.0898,3.0898,3.0898,3.0898,3.0898,3.0898,3.0898,3.0898,3.0898,3.0898,3.0898,3.0898,3.0898,3.0898,3.0898,3.0898,3.0898,3.0898,3.0898,3.0898,3.0898,3.0898,3.6417,3.6358,3.6193,3.6051,3.6051,3.5847,3.562,3.538,3.5332,3.5211,3.4969,3.503,3.5307,3.5752,3.5764,3.5572,3.532,3.532,3.5175,3.4932,3.4384,3.4188,3.3831,3.3074,3.2156,3.1249,3.0484,2.9911,2.9554,2.9142,2.8717,2.8398,2.8408,2.8354,2.8354,2.8301,2.8301,2.8301,2.8301,2.8301,2.8301,2.8301,2.8301,2.8301,2.8301,2.8301,2.8301,2.8301,2.8301,2.8301,2.8301,2.8301,2.8301,2.8301,2.8301,2.8301,2.8301,2.8301,2.8301,2.8301,2.8301,2.8301,2.8301,2.8301,2.8301,2.8301,2.8301,2.831,2.832,2.8369,2.8418,2.8652,2.8887,2.9219,2.9453,2.9785,3.0273,3.0615,3.085,3.0898,3.0898,3.0898,3.0898,3.0898,3.0898,3.0898,3.0898,3.0898,3.0898,3.0898,3.0898,3.0898,3.0898,3.0898,3.0898,3.0898,3.0898,3.0898,3.0898,3.0898,3.0898,3.0898,3.0898,3.0898,3.0898,3.0898,3.0898,3.0898,3.0898,3.0898,3.0898,3.0898,3.0898,3.0898,3.0898]}]]